<?xml version="1.0" encoding="UTF-8" standalone="no" ?>
<gpx xmlns="http://www.topografix.com/GPX/1/1" xmlns:xsi="http://www.w3.org/2001/XMLSchema-instance" xsi:schemaLocation="http://www.topografix.com/GPX/1/1 http://www.topografix.com/GPX/1/1/gpx.xsd" version="1.1" creator="VisuGPX - https://www.visugpx.com">
  <metadata>
    <name>MOHARE ==&gt; SWANTA (NEPAL)</name>
    <desc><![CDATA[Trek entre DHAULAGIRI et ANNAPURNA]]></desc>
  </metadata>
  <trk>
    <name><![CDATA[MOHARE SWANTA]]></name>
    <trkseg>
      <trkpt lat="28.37114" lon="83.67938">
        <ele>3301.3</ele>
        <time>2013-10-29T02:43:45Z</time>
      </trkpt>
      <trkpt lat="28.37115" lon="83.67938">
        <ele>3301.79</ele>
        <time>2013-10-29T02:43:59Z</time>
      </trkpt>
      <trkpt lat="28.37124" lon="83.67934">
        <ele>3300.34</ele>
        <time>2013-10-29T02:44:10Z</time>
      </trkpt>
      <trkpt lat="28.37135" lon="83.6793">
        <ele>3297.46</ele>
        <time>2013-10-29T02:44:22Z</time>
      </trkpt>
      <trkpt lat="28.37135" lon="83.67929">
        <ele>3296.98</ele>
        <time>2013-10-29T02:44:23Z</time>
      </trkpt>
      <trkpt lat="28.37139" lon="83.67921">
        <ele>3296.02</ele>
        <time>2013-10-29T02:44:39Z</time>
      </trkpt>
      <trkpt lat="28.3715" lon="83.67914">
        <ele>3295.54</ele>
        <time>2013-10-29T02:44:50Z</time>
      </trkpt>
      <trkpt lat="28.37158" lon="83.67907">
        <ele>3295.06</ele>
        <time>2013-10-29T02:45:02Z</time>
      </trkpt>
      <trkpt lat="28.37158" lon="83.67907">
        <ele>3295.54</ele>
        <time>2013-10-29T02:45:03Z</time>
      </trkpt>
      <trkpt lat="28.37159" lon="83.67904">
        <ele>3295.54</ele>
        <time>2013-10-29T02:45:06Z</time>
      </trkpt>
      <trkpt lat="28.3716" lon="83.67901">
        <ele>3295.06</ele>
        <time>2013-10-29T02:45:08Z</time>
      </trkpt>
      <trkpt lat="28.37168" lon="83.67896">
        <ele>3294.09</ele>
        <time>2013-10-29T02:45:21Z</time>
      </trkpt>
      <trkpt lat="28.37171" lon="83.67894">
        <ele>3293.61</ele>
        <time>2013-10-29T02:45:24Z</time>
      </trkpt>
      <trkpt lat="28.37175" lon="83.67894">
        <ele>3293.13</ele>
        <time>2013-10-29T02:45:30Z</time>
      </trkpt>
      <trkpt lat="28.3718" lon="83.67895">
        <ele>3292.65</ele>
        <time>2013-10-29T02:45:35Z</time>
      </trkpt>
      <trkpt lat="28.37191" lon="83.67899">
        <ele>3292.65</ele>
        <time>2013-10-29T02:45:47Z</time>
      </trkpt>
      <trkpt lat="28.37204" lon="83.67905">
        <ele>3292.65</ele>
        <time>2013-10-29T02:46:01Z</time>
      </trkpt>
      <trkpt lat="28.37209" lon="83.67907">
        <ele>3291.21</ele>
        <time>2013-10-29T02:46:14Z</time>
      </trkpt>
      <trkpt lat="28.37218" lon="83.67908">
        <ele>3289.77</ele>
        <time>2013-10-29T02:46:23Z</time>
      </trkpt>
      <trkpt lat="28.37232" lon="83.67906">
        <ele>3287.85</ele>
        <time>2013-10-29T02:46:36Z</time>
      </trkpt>
      <trkpt lat="28.3724" lon="83.67907">
        <ele>3286.4</ele>
        <time>2013-10-29T02:46:50Z</time>
      </trkpt>
      <trkpt lat="28.37245" lon="83.67904">
        <ele>3283.52</ele>
        <time>2013-10-29T02:47:04Z</time>
      </trkpt>
      <trkpt lat="28.37251" lon="83.67898">
        <ele>3280.64</ele>
        <time>2013-10-29T02:47:21Z</time>
      </trkpt>
      <trkpt lat="28.37259" lon="83.67895">
        <ele>3278.23</ele>
        <time>2013-10-29T02:47:35Z</time>
      </trkpt>
      <trkpt lat="28.37269" lon="83.6789">
        <ele>3275.35</ele>
        <time>2013-10-29T02:47:48Z</time>
      </trkpt>
      <trkpt lat="28.37276" lon="83.67888">
        <ele>3272.95</ele>
        <time>2013-10-29T02:48:02Z</time>
      </trkpt>
      <trkpt lat="28.37283" lon="83.67887">
        <ele>3269.58</ele>
        <time>2013-10-29T02:48:17Z</time>
      </trkpt>
      <trkpt lat="28.37289" lon="83.67885">
        <ele>3266.7</ele>
        <time>2013-10-29T02:48:34Z</time>
      </trkpt>
      <trkpt lat="28.37298" lon="83.67886">
        <ele>3263.81</ele>
        <time>2013-10-29T02:48:51Z</time>
      </trkpt>
      <trkpt lat="28.373" lon="83.67888">
        <ele>3262.37</ele>
        <time>2013-10-29T02:49:01Z</time>
      </trkpt>
      <trkpt lat="28.37313" lon="83.67891">
        <ele>3260.45</ele>
        <time>2013-10-29T02:49:16Z</time>
      </trkpt>
      <trkpt lat="28.37323" lon="83.67889">
        <ele>3258.05</ele>
        <time>2013-10-29T02:49:28Z</time>
      </trkpt>
      <trkpt lat="28.37334" lon="83.67884">
        <ele>3256.12</ele>
        <time>2013-10-29T02:49:43Z</time>
      </trkpt>
      <trkpt lat="28.37336" lon="83.67882">
        <ele>3255.16</ele>
        <time>2013-10-29T02:49:46Z</time>
      </trkpt>
      <trkpt lat="28.37346" lon="83.67883">
        <ele>3253.72</ele>
        <time>2013-10-29T02:49:59Z</time>
      </trkpt>
      <trkpt lat="28.37355" lon="83.67881">
        <ele>3252.76</ele>
        <time>2013-10-29T02:50:14Z</time>
      </trkpt>
      <trkpt lat="28.37367" lon="83.67881">
        <ele>3251.8</ele>
        <time>2013-10-29T02:50:27Z</time>
      </trkpt>
      <trkpt lat="28.37378" lon="83.67885">
        <ele>3250.83</ele>
        <time>2013-10-29T02:50:40Z</time>
      </trkpt>
      <trkpt lat="28.37386" lon="83.67885">
        <ele>3249.39</ele>
        <time>2013-10-29T02:50:53Z</time>
      </trkpt>
      <trkpt lat="28.374" lon="83.67882">
        <ele>3248.43</ele>
        <time>2013-10-29T02:51:06Z</time>
      </trkpt>
      <trkpt lat="28.37411" lon="83.67882">
        <ele>3248.43</ele>
        <time>2013-10-29T02:51:18Z</time>
      </trkpt>
      <trkpt lat="28.37419" lon="83.6788">
        <ele>3249.87</ele>
        <time>2013-10-29T02:51:28Z</time>
      </trkpt>
      <trkpt lat="28.37431" lon="83.67879">
        <ele>3251.32</ele>
        <time>2013-10-29T02:51:39Z</time>
      </trkpt>
      <trkpt lat="28.37436" lon="83.67874">
        <ele>3248.91</ele>
        <time>2013-10-29T02:51:53Z</time>
      </trkpt>
      <trkpt lat="28.3744" lon="83.67873">
        <ele>3246.51</ele>
        <time>2013-10-29T02:52:07Z</time>
      </trkpt>
      <trkpt lat="28.37449" lon="83.67871">
        <ele>3244.59</ele>
        <time>2013-10-29T02:52:20Z</time>
      </trkpt>
      <trkpt lat="28.37462" lon="83.67866">
        <ele>3242.18</ele>
        <time>2013-10-29T02:52:34Z</time>
      </trkpt>
      <trkpt lat="28.37469" lon="83.67865">
        <ele>3242.66</ele>
        <time>2013-10-29T02:52:40Z</time>
      </trkpt>
      <trkpt lat="28.37474" lon="83.6787">
        <ele>3243.63</ele>
        <time>2013-10-29T02:52:52Z</time>
      </trkpt>
      <trkpt lat="28.37476" lon="83.67871">
        <ele>3243.63</ele>
        <time>2013-10-29T02:53:10Z</time>
      </trkpt>
      <trkpt lat="28.37477" lon="83.67871">
        <ele>3243.63</ele>
        <time>2013-10-29T02:53:32Z</time>
      </trkpt>
      <trkpt lat="28.37478" lon="83.67871">
        <ele>3243.63</ele>
        <time>2013-10-29T02:53:52Z</time>
      </trkpt>
      <trkpt lat="28.37478" lon="83.67872">
        <ele>3244.11</ele>
        <time>2013-10-29T02:54:14Z</time>
      </trkpt>
      <trkpt lat="28.37478" lon="83.67872">
        <ele>3244.11</ele>
        <time>2013-10-29T02:54:44Z</time>
      </trkpt>
      <trkpt lat="28.37477" lon="83.67872">
        <ele>3244.11</ele>
        <time>2013-10-29T02:55:09Z</time>
      </trkpt>
      <trkpt lat="28.37477" lon="83.67872">
        <ele>3244.11</ele>
        <time>2013-10-29T02:55:39Z</time>
      </trkpt>
      <trkpt lat="28.37477" lon="83.67872">
        <ele>3244.11</ele>
        <time>2013-10-29T02:56:07Z</time>
      </trkpt>
      <trkpt lat="28.37477" lon="83.67872">
        <ele>3243.63</ele>
        <time>2013-10-29T02:56:33Z</time>
      </trkpt>
      <trkpt lat="28.37478" lon="83.67872">
        <ele>3243.14</ele>
        <time>2013-10-29T02:56:46Z</time>
      </trkpt>
      <trkpt lat="28.37483" lon="83.67867">
        <ele>3240.26</ele>
        <time>2013-10-29T02:57:00Z</time>
      </trkpt>
      <trkpt lat="28.37483" lon="83.67863">
        <ele>3240.74</ele>
        <time>2013-10-29T02:57:18Z</time>
      </trkpt>
      <trkpt lat="28.37483" lon="83.67862">
        <ele>3240.74</ele>
        <time>2013-10-29T02:57:24Z</time>
      </trkpt>
      <trkpt lat="28.37484" lon="83.67862">
        <ele>3240.26</ele>
        <time>2013-10-29T02:57:26Z</time>
      </trkpt>
      <trkpt lat="28.37487" lon="83.67859">
        <ele>3240.26</ele>
        <time>2013-10-29T02:57:30Z</time>
      </trkpt>
      <trkpt lat="28.37489" lon="83.67856">
        <ele>3240.26</ele>
        <time>2013-10-29T02:57:33Z</time>
      </trkpt>
      <trkpt lat="28.37493" lon="83.67854">
        <ele>3239.78</ele>
        <time>2013-10-29T02:57:40Z</time>
      </trkpt>
      <trkpt lat="28.37499" lon="83.67854">
        <ele>3239.3</ele>
        <time>2013-10-29T02:57:46Z</time>
      </trkpt>
      <trkpt lat="28.37514" lon="83.67849">
        <ele>3239.3</ele>
        <time>2013-10-29T02:57:59Z</time>
      </trkpt>
      <trkpt lat="28.37527" lon="83.6785">
        <ele>3239.3</ele>
        <time>2013-10-29T02:58:11Z</time>
      </trkpt>
      <trkpt lat="28.37535" lon="83.67844">
        <ele>3240.26</ele>
        <time>2013-10-29T02:58:21Z</time>
      </trkpt>
      <trkpt lat="28.37547" lon="83.67835">
        <ele>3239.78</ele>
        <time>2013-10-29T02:58:33Z</time>
      </trkpt>
      <trkpt lat="28.37559" lon="83.6783">
        <ele>3238.82</ele>
        <time>2013-10-29T02:58:45Z</time>
      </trkpt>
      <trkpt lat="28.37571" lon="83.67829">
        <ele>3239.3</ele>
        <time>2013-10-29T02:58:58Z</time>
      </trkpt>
      <trkpt lat="28.37573" lon="83.67828">
        <ele>3239.3</ele>
        <time>2013-10-29T02:59:02Z</time>
      </trkpt>
      <trkpt lat="28.37588" lon="83.67822">
        <ele>3239.78</ele>
        <time>2013-10-29T02:59:14Z</time>
      </trkpt>
      <trkpt lat="28.37594" lon="83.67817">
        <ele>3239.78</ele>
        <time>2013-10-29T02:59:21Z</time>
      </trkpt>
      <trkpt lat="28.37608" lon="83.67814">
        <ele>3239.78</ele>
        <time>2013-10-29T02:59:33Z</time>
      </trkpt>
      <trkpt lat="28.37616" lon="83.6781">
        <ele>3240.26</ele>
        <time>2013-10-29T02:59:41Z</time>
      </trkpt>
      <trkpt lat="28.37624" lon="83.67806">
        <ele>3240.26</ele>
        <time>2013-10-29T02:59:53Z</time>
      </trkpt>
      <trkpt lat="28.37632" lon="83.67798">
        <ele>3241.7</ele>
        <time>2013-10-29T03:00:09Z</time>
      </trkpt>
      <trkpt lat="28.37646" lon="83.67789">
        <ele>3242.18</ele>
        <time>2013-10-29T03:00:23Z</time>
      </trkpt>
      <trkpt lat="28.3765" lon="83.67786">
        <ele>3242.66</ele>
        <time>2013-10-29T03:00:29Z</time>
      </trkpt>
      <trkpt lat="28.37654" lon="83.67783">
        <ele>3243.14</ele>
        <time>2013-10-29T03:00:33Z</time>
      </trkpt>
      <trkpt lat="28.37658" lon="83.6778">
        <ele>3243.63</ele>
        <time>2013-10-29T03:00:37Z</time>
      </trkpt>
      <trkpt lat="28.37664" lon="83.67778">
        <ele>3243.63</ele>
        <time>2013-10-29T03:00:42Z</time>
      </trkpt>
      <trkpt lat="28.37676" lon="83.67777">
        <ele>3243.14</ele>
        <time>2013-10-29T03:00:54Z</time>
      </trkpt>
      <trkpt lat="28.37679" lon="83.67776">
        <ele>3242.66</ele>
        <time>2013-10-29T03:00:58Z</time>
      </trkpt>
      <trkpt lat="28.37694" lon="83.67777">
        <ele>3242.66</ele>
        <time>2013-10-29T03:01:12Z</time>
      </trkpt>
      <trkpt lat="28.377" lon="83.67777">
        <ele>3242.18</ele>
        <time>2013-10-29T03:01:19Z</time>
      </trkpt>
      <trkpt lat="28.3771" lon="83.67777">
        <ele>3245.07</ele>
        <time>2013-10-29T03:01:30Z</time>
      </trkpt>
      <trkpt lat="28.37721" lon="83.67779">
        <ele>3245.07</ele>
        <time>2013-10-29T03:01:42Z</time>
      </trkpt>
      <trkpt lat="28.37731" lon="83.67782">
        <ele>3246.03</ele>
        <time>2013-10-29T03:01:53Z</time>
      </trkpt>
      <trkpt lat="28.37744" lon="83.67788">
        <ele>3246.99</ele>
        <time>2013-10-29T03:02:08Z</time>
      </trkpt>
      <trkpt lat="28.37747" lon="83.67789">
        <ele>3246.51</ele>
        <time>2013-10-29T03:02:11Z</time>
      </trkpt>
      <trkpt lat="28.37754" lon="83.67791">
        <ele>3246.51</ele>
        <time>2013-10-29T03:02:19Z</time>
      </trkpt>
      <trkpt lat="28.37758" lon="83.67793">
        <ele>3246.99</ele>
        <time>2013-10-29T03:02:24Z</time>
      </trkpt>
      <trkpt lat="28.37772" lon="83.67793">
        <ele>3246.99</ele>
        <time>2013-10-29T03:02:37Z</time>
      </trkpt>
      <trkpt lat="28.37781" lon="83.67785">
        <ele>3247.47</ele>
        <time>2013-10-29T03:02:49Z</time>
      </trkpt>
      <trkpt lat="28.37785" lon="83.67785">
        <ele>3246.99</ele>
        <time>2013-10-29T03:02:54Z</time>
      </trkpt>
      <trkpt lat="28.37788" lon="83.67785">
        <ele>3246.51</ele>
        <time>2013-10-29T03:02:58Z</time>
      </trkpt>
      <trkpt lat="28.37791" lon="83.67784">
        <ele>3246.03</ele>
        <time>2013-10-29T03:03:01Z</time>
      </trkpt>
      <trkpt lat="28.37793" lon="83.67782">
        <ele>3245.55</ele>
        <time>2013-10-29T03:03:04Z</time>
      </trkpt>
      <trkpt lat="28.37804" lon="83.67783">
        <ele>3245.07</ele>
        <time>2013-10-29T03:03:17Z</time>
      </trkpt>
      <trkpt lat="28.37813" lon="83.67785">
        <ele>3244.11</ele>
        <time>2013-10-29T03:03:31Z</time>
      </trkpt>
      <trkpt lat="28.37812" lon="83.67786">
        <ele>3244.11</ele>
        <time>2013-10-29T03:03:46Z</time>
      </trkpt>
      <trkpt lat="28.37812" lon="83.67787">
        <ele>3244.11</ele>
        <time>2013-10-29T03:04:07Z</time>
      </trkpt>
      <trkpt lat="28.37817" lon="83.67786">
        <ele>3243.63</ele>
        <time>2013-10-29T03:04:12Z</time>
      </trkpt>
      <trkpt lat="28.37826" lon="83.67785">
        <ele>3242.18</ele>
        <time>2013-10-29T03:04:21Z</time>
      </trkpt>
      <trkpt lat="28.37829" lon="83.67784">
        <ele>3241.22</ele>
        <time>2013-10-29T03:04:25Z</time>
      </trkpt>
      <trkpt lat="28.37836" lon="83.67791">
        <ele>3239.78</ele>
        <time>2013-10-29T03:04:34Z</time>
      </trkpt>
      <trkpt lat="28.37839" lon="83.67793">
        <ele>3239.3</ele>
        <time>2013-10-29T03:04:37Z</time>
      </trkpt>
      <trkpt lat="28.37849" lon="83.67794">
        <ele>3238.34</ele>
        <time>2013-10-29T03:04:46Z</time>
      </trkpt>
      <trkpt lat="28.37863" lon="83.67793">
        <ele>3238.34</ele>
        <time>2013-10-29T03:04:59Z</time>
      </trkpt>
      <trkpt lat="28.37871" lon="83.67793">
        <ele>3234.97</ele>
        <time>2013-10-29T03:05:12Z</time>
      </trkpt>
      <trkpt lat="28.37877" lon="83.67798">
        <ele>3233.05</ele>
        <time>2013-10-29T03:05:24Z</time>
      </trkpt>
      <trkpt lat="28.37885" lon="83.678">
        <ele>3231.13</ele>
        <time>2013-10-29T03:05:36Z</time>
      </trkpt>
      <trkpt lat="28.37894" lon="83.67802">
        <ele>3229.69</ele>
        <time>2013-10-29T03:05:49Z</time>
      </trkpt>
      <trkpt lat="28.37896" lon="83.67803">
        <ele>3229.21</ele>
        <time>2013-10-29T03:05:51Z</time>
      </trkpt>
      <trkpt lat="28.379" lon="83.67811">
        <ele>3228.24</ele>
        <time>2013-10-29T03:05:58Z</time>
      </trkpt>
      <trkpt lat="28.37904" lon="83.67817">
        <ele>3226.8</ele>
        <time>2013-10-29T03:06:07Z</time>
      </trkpt>
      <trkpt lat="28.37908" lon="83.67818">
        <ele>3225.36</ele>
        <time>2013-10-29T03:06:11Z</time>
      </trkpt>
      <trkpt lat="28.37916" lon="83.67814">
        <ele>3223.92</ele>
        <time>2013-10-29T03:06:22Z</time>
      </trkpt>
      <trkpt lat="28.37921" lon="83.67808">
        <ele>3221.52</ele>
        <time>2013-10-29T03:06:33Z</time>
      </trkpt>
      <trkpt lat="28.37929" lon="83.67804">
        <ele>3220.07</ele>
        <time>2013-10-29T03:06:41Z</time>
      </trkpt>
      <trkpt lat="28.37942" lon="83.67808">
        <ele>3218.15</ele>
        <time>2013-10-29T03:06:54Z</time>
      </trkpt>
      <trkpt lat="28.37948" lon="83.67814">
        <ele>3215.75</ele>
        <time>2013-10-29T03:07:06Z</time>
      </trkpt>
      <trkpt lat="28.37959" lon="83.67818">
        <ele>3212.86</ele>
        <time>2013-10-29T03:07:21Z</time>
      </trkpt>
      <trkpt lat="28.37961" lon="83.67819">
        <ele>3212.86</ele>
        <time>2013-10-29T03:07:43Z</time>
      </trkpt>
      <trkpt lat="28.37965" lon="83.67817">
        <ele>3210.94</ele>
        <time>2013-10-29T03:07:58Z</time>
      </trkpt>
      <trkpt lat="28.37968" lon="83.67812">
        <ele>3209.02</ele>
        <time>2013-10-29T03:08:10Z</time>
      </trkpt>
      <trkpt lat="28.37975" lon="83.67813">
        <ele>3207.1</ele>
        <time>2013-10-29T03:08:24Z</time>
      </trkpt>
      <trkpt lat="28.37984" lon="83.67818">
        <ele>3205.17</ele>
        <time>2013-10-29T03:08:39Z</time>
      </trkpt>
      <trkpt lat="28.3799" lon="83.67822">
        <ele>3203.73</ele>
        <time>2013-10-29T03:08:52Z</time>
      </trkpt>
      <trkpt lat="28.37989" lon="83.67838">
        <ele>3201.81</ele>
        <time>2013-10-29T03:09:08Z</time>
      </trkpt>
      <trkpt lat="28.37994" lon="83.67844">
        <ele>3199.89</ele>
        <time>2013-10-29T03:09:21Z</time>
      </trkpt>
      <trkpt lat="28.37998" lon="83.67852">
        <ele>3197.96</ele>
        <time>2013-10-29T03:09:32Z</time>
      </trkpt>
      <trkpt lat="28.38" lon="83.67861">
        <ele>3195.56</ele>
        <time>2013-10-29T03:09:45Z</time>
      </trkpt>
      <trkpt lat="28.38008" lon="83.67872">
        <ele>3192.68</ele>
        <time>2013-10-29T03:10:01Z</time>
      </trkpt>
      <trkpt lat="28.38021" lon="83.67873">
        <ele>3189.79</ele>
        <time>2013-10-29T03:10:18Z</time>
      </trkpt>
      <trkpt lat="28.38036" lon="83.67869">
        <ele>3187.39</ele>
        <time>2013-10-29T03:10:34Z</time>
      </trkpt>
      <trkpt lat="28.38044" lon="83.67864">
        <ele>3184.98</ele>
        <time>2013-10-29T03:10:50Z</time>
      </trkpt>
      <trkpt lat="28.38044" lon="83.67853">
        <ele>3182.58</ele>
        <time>2013-10-29T03:11:06Z</time>
      </trkpt>
      <trkpt lat="28.38051" lon="83.6785">
        <ele>3179.7</ele>
        <time>2013-10-29T03:11:22Z</time>
      </trkpt>
      <trkpt lat="28.38052" lon="83.67844">
        <ele>3176.33</ele>
        <time>2013-10-29T03:11:34Z</time>
      </trkpt>
      <trkpt lat="28.38062" lon="83.67841">
        <ele>3173.45</ele>
        <time>2013-10-29T03:11:53Z</time>
      </trkpt>
      <trkpt lat="28.38072" lon="83.67836">
        <ele>3171.05</ele>
        <time>2013-10-29T03:12:09Z</time>
      </trkpt>
      <trkpt lat="28.38081" lon="83.67835">
        <ele>3168.16</ele>
        <time>2013-10-29T03:12:22Z</time>
      </trkpt>
      <trkpt lat="28.38089" lon="83.67838">
        <ele>3165.28</ele>
        <time>2013-10-29T03:12:37Z</time>
      </trkpt>
      <trkpt lat="28.38095" lon="83.67836">
        <ele>3161.91</ele>
        <time>2013-10-29T03:12:54Z</time>
      </trkpt>
      <trkpt lat="28.38103" lon="83.67834">
        <ele>3159.99</ele>
        <time>2013-10-29T03:13:05Z</time>
      </trkpt>
      <trkpt lat="28.38107" lon="83.6783">
        <ele>3159.51</ele>
        <time>2013-10-29T03:13:27Z</time>
      </trkpt>
      <trkpt lat="28.38112" lon="83.67832">
        <ele>3157.59</ele>
        <time>2013-10-29T03:13:41Z</time>
      </trkpt>
      <trkpt lat="28.38114" lon="83.67829">
        <ele>3156.15</ele>
        <time>2013-10-29T03:13:54Z</time>
      </trkpt>
      <trkpt lat="28.38118" lon="83.67822">
        <ele>3153.74</ele>
        <time>2013-10-29T03:14:13Z</time>
      </trkpt>
      <trkpt lat="28.38124" lon="83.67825">
        <ele>3151.82</ele>
        <time>2013-10-29T03:14:25Z</time>
      </trkpt>
      <trkpt lat="28.38132" lon="83.67823">
        <ele>3148.46</ele>
        <time>2013-10-29T03:14:39Z</time>
      </trkpt>
      <trkpt lat="28.38136" lon="83.67814">
        <ele>3145.57</ele>
        <time>2013-10-29T03:14:54Z</time>
      </trkpt>
      <trkpt lat="28.38139" lon="83.6781">
        <ele>3144.61</ele>
        <time>2013-10-29T03:14:59Z</time>
      </trkpt>
      <trkpt lat="28.38141" lon="83.67797">
        <ele>3142.69</ele>
        <time>2013-10-29T03:15:12Z</time>
      </trkpt>
      <trkpt lat="28.38142" lon="83.67795">
        <ele>3142.21</ele>
        <time>2013-10-29T03:15:14Z</time>
      </trkpt>
      <trkpt lat="28.38142" lon="83.67792">
        <ele>3142.21</ele>
        <time>2013-10-29T03:15:17Z</time>
      </trkpt>
      <trkpt lat="28.38145" lon="83.67784">
        <ele>3141.25</ele>
        <time>2013-10-29T03:15:23Z</time>
      </trkpt>
      <trkpt lat="28.38145" lon="83.67768">
        <ele>3140.28</ele>
        <time>2013-10-29T03:15:37Z</time>
      </trkpt>
      <trkpt lat="28.38145" lon="83.67764">
        <ele>3139.8</ele>
        <time>2013-10-29T03:15:50Z</time>
      </trkpt>
      <trkpt lat="28.38146" lon="83.6776">
        <ele>3139.8</ele>
        <time>2013-10-29T03:15:53Z</time>
      </trkpt>
      <trkpt lat="28.38141" lon="83.67744">
        <ele>3138.36</ele>
        <time>2013-10-29T03:16:07Z</time>
      </trkpt>
      <trkpt lat="28.38142" lon="83.67744">
        <ele>3137.88</ele>
        <time>2013-10-29T03:16:09Z</time>
      </trkpt>
      <trkpt lat="28.38144" lon="83.67748">
        <ele>3138.36</ele>
        <time>2013-10-29T03:16:13Z</time>
      </trkpt>
      <trkpt lat="28.38148" lon="83.67754">
        <ele>3138.84</ele>
        <time>2013-10-29T03:16:26Z</time>
      </trkpt>
      <trkpt lat="28.38147" lon="83.67752">
        <ele>3138.84</ele>
        <time>2013-10-29T03:16:30Z</time>
      </trkpt>
      <trkpt lat="28.38141" lon="83.67741">
        <ele>3137.4</ele>
        <time>2013-10-29T03:16:39Z</time>
      </trkpt>
      <trkpt lat="28.38131" lon="83.67726">
        <ele>3137.4</ele>
        <time>2013-10-29T03:16:52Z</time>
      </trkpt>
      <trkpt lat="28.38127" lon="83.67721">
        <ele>3137.4</ele>
        <time>2013-10-29T03:16:57Z</time>
      </trkpt>
      <trkpt lat="28.3812" lon="83.67718">
        <ele>3137.4</ele>
        <time>2013-10-29T03:17:03Z</time>
      </trkpt>
      <trkpt lat="28.38106" lon="83.67711">
        <ele>3137.4</ele>
        <time>2013-10-29T03:17:16Z</time>
      </trkpt>
      <trkpt lat="28.38104" lon="83.67711">
        <ele>3137.4</ele>
        <time>2013-10-29T03:17:19Z</time>
      </trkpt>
      <trkpt lat="28.38101" lon="83.67711">
        <ele>3137.4</ele>
        <time>2013-10-29T03:17:22Z</time>
      </trkpt>
      <trkpt lat="28.38094" lon="83.67708">
        <ele>3137.88</ele>
        <time>2013-10-29T03:17:30Z</time>
      </trkpt>
      <trkpt lat="28.38089" lon="83.67705">
        <ele>3137.4</ele>
        <time>2013-10-29T03:17:35Z</time>
      </trkpt>
      <trkpt lat="28.38085" lon="83.67704">
        <ele>3137.4</ele>
        <time>2013-10-29T03:17:38Z</time>
      </trkpt>
      <trkpt lat="28.38077" lon="83.67708">
        <ele>3136.92</ele>
        <time>2013-10-29T03:17:50Z</time>
      </trkpt>
      <trkpt lat="28.38079" lon="83.67707">
        <ele>3135.96</ele>
        <time>2013-10-29T03:18:08Z</time>
      </trkpt>
      <trkpt lat="28.38079" lon="83.67708">
        <ele>3135.96</ele>
        <time>2013-10-29T03:18:41Z</time>
      </trkpt>
      <trkpt lat="28.38078" lon="83.6771">
        <ele>3135</ele>
        <time>2013-10-29T03:18:54Z</time>
      </trkpt>
      <trkpt lat="28.38077" lon="83.6771">
        <ele>3135.96</ele>
        <time>2013-10-29T03:19:30Z</time>
      </trkpt>
      <trkpt lat="28.38078" lon="83.67708">
        <ele>3135.96</ele>
        <time>2013-10-29T03:19:44Z</time>
      </trkpt>
      <trkpt lat="28.3808" lon="83.67707">
        <ele>3135.96</ele>
        <time>2013-10-29T03:20:03Z</time>
      </trkpt>
      <trkpt lat="28.3808" lon="83.67707">
        <ele>3135.96</ele>
        <time>2013-10-29T03:20:34Z</time>
      </trkpt>
      <trkpt lat="28.3808" lon="83.67708">
        <ele>3135.96</ele>
        <time>2013-10-29T03:21:02Z</time>
      </trkpt>
      <trkpt lat="28.38081" lon="83.67708">
        <ele>3135.96</ele>
        <time>2013-10-29T03:21:25Z</time>
      </trkpt>
      <trkpt lat="28.38079" lon="83.67708">
        <ele>3135.96</ele>
        <time>2013-10-29T03:21:51Z</time>
      </trkpt>
      <trkpt lat="28.38076" lon="83.6771">
        <ele>3135.96</ele>
        <time>2013-10-29T03:22:05Z</time>
      </trkpt>
      <trkpt lat="28.38073" lon="83.67707">
        <ele>3135.48</ele>
        <time>2013-10-29T03:22:27Z</time>
      </trkpt>
      <trkpt lat="28.38072" lon="83.67706">
        <ele>3135.96</ele>
        <time>2013-10-29T03:22:33Z</time>
      </trkpt>
      <trkpt lat="28.38066" lon="83.677">
        <ele>3135</ele>
        <time>2013-10-29T03:22:46Z</time>
      </trkpt>
      <trkpt lat="28.38062" lon="83.67708">
        <ele>3135</ele>
        <time>2013-10-29T03:23:16Z</time>
      </trkpt>
      <trkpt lat="28.38067" lon="83.67702">
        <ele>3135</ele>
        <time>2013-10-29T03:23:23Z</time>
      </trkpt>
      <trkpt lat="28.38078" lon="83.67708">
        <ele>3135.48</ele>
        <time>2013-10-29T03:23:36Z</time>
      </trkpt>
      <trkpt lat="28.38078" lon="83.67707">
        <ele>3135</ele>
        <time>2013-10-29T03:24:05Z</time>
      </trkpt>
      <trkpt lat="28.38078" lon="83.67707">
        <ele>3135</ele>
        <time>2013-10-29T03:24:15Z</time>
      </trkpt>
      <trkpt lat="28.38082" lon="83.67705">
        <ele>3135.96</ele>
        <time>2013-10-29T03:24:22Z</time>
      </trkpt>
      <trkpt lat="28.38091" lon="83.67704">
        <ele>3135.96</ele>
        <time>2013-10-29T03:24:34Z</time>
      </trkpt>
      <trkpt lat="28.38094" lon="83.67706">
        <ele>3136.44</ele>
        <time>2013-10-29T03:24:46Z</time>
      </trkpt>
      <trkpt lat="28.38094" lon="83.67707">
        <ele>3135.96</ele>
        <time>2013-10-29T03:24:51Z</time>
      </trkpt>
      <trkpt lat="28.38095" lon="83.67708">
        <ele>3135.96</ele>
        <time>2013-10-29T03:25:05Z</time>
      </trkpt>
      <trkpt lat="28.38094" lon="83.67708">
        <ele>3135.96</ele>
        <time>2013-10-29T03:25:32Z</time>
      </trkpt>
      <trkpt lat="28.38094" lon="83.67707">
        <ele>3135.96</ele>
        <time>2013-10-29T03:25:59Z</time>
      </trkpt>
      <trkpt lat="28.38095" lon="83.67708">
        <ele>3136.44</ele>
        <time>2013-10-29T03:26:17Z</time>
      </trkpt>
      <trkpt lat="28.38095" lon="83.67709">
        <ele>3136.44</ele>
        <time>2013-10-29T03:26:51Z</time>
      </trkpt>
      <trkpt lat="28.38095" lon="83.67709">
        <ele>3136.44</ele>
        <time>2013-10-29T03:27:15Z</time>
      </trkpt>
      <trkpt lat="28.38096" lon="83.67709">
        <ele>3136.44</ele>
        <time>2013-10-29T03:27:39Z</time>
      </trkpt>
      <trkpt lat="28.38097" lon="83.67711">
        <ele>3136.44</ele>
        <time>2013-10-29T03:27:46Z</time>
      </trkpt>
      <trkpt lat="28.38108" lon="83.67711">
        <ele>3135.96</ele>
        <time>2013-10-29T03:27:59Z</time>
      </trkpt>
      <trkpt lat="28.38111" lon="83.67712">
        <ele>3136.44</ele>
        <time>2013-10-29T03:28:02Z</time>
      </trkpt>
      <trkpt lat="28.38117" lon="83.67717">
        <ele>3135.96</ele>
        <time>2013-10-29T03:28:09Z</time>
      </trkpt>
      <trkpt lat="28.3812" lon="83.67719">
        <ele>3135.96</ele>
        <time>2013-10-29T03:28:12Z</time>
      </trkpt>
      <trkpt lat="28.38125" lon="83.67722">
        <ele>3135.96</ele>
        <time>2013-10-29T03:28:18Z</time>
      </trkpt>
      <trkpt lat="28.38129" lon="83.67725">
        <ele>3136.44</ele>
        <time>2013-10-29T03:28:23Z</time>
      </trkpt>
      <trkpt lat="28.38136" lon="83.67729">
        <ele>3136.44</ele>
        <time>2013-10-29T03:28:31Z</time>
      </trkpt>
      <trkpt lat="28.3814" lon="83.67729">
        <ele>3136.92</ele>
        <time>2013-10-29T03:28:36Z</time>
      </trkpt>
      <trkpt lat="28.38146" lon="83.67732">
        <ele>3136.44</ele>
        <time>2013-10-29T03:28:44Z</time>
      </trkpt>
      <trkpt lat="28.38148" lon="83.67739">
        <ele>3136.44</ele>
        <time>2013-10-29T03:28:52Z</time>
      </trkpt>
      <trkpt lat="28.38149" lon="83.67744">
        <ele>3136.44</ele>
        <time>2013-10-29T03:28:56Z</time>
      </trkpt>
      <trkpt lat="28.3815" lon="83.67754">
        <ele>3136.92</ele>
        <time>2013-10-29T03:29:10Z</time>
      </trkpt>
      <trkpt lat="28.38149" lon="83.67754">
        <ele>3136.92</ele>
        <time>2013-10-29T03:29:30Z</time>
      </trkpt>
      <trkpt lat="28.38149" lon="83.67754">
        <ele>3136.92</ele>
        <time>2013-10-29T03:29:50Z</time>
      </trkpt>
      <trkpt lat="28.38149" lon="83.67754">
        <ele>3136.44</ele>
        <time>2013-10-29T03:30:10Z</time>
      </trkpt>
      <trkpt lat="28.38149" lon="83.67754">
        <ele>3136.44</ele>
        <time>2013-10-29T03:30:36Z</time>
      </trkpt>
      <trkpt lat="28.38149" lon="83.67754">
        <ele>3136.44</ele>
        <time>2013-10-29T03:31:01Z</time>
      </trkpt>
      <trkpt lat="28.38149" lon="83.67755">
        <ele>3136.44</ele>
        <time>2013-10-29T03:31:24Z</time>
      </trkpt>
      <trkpt lat="28.38149" lon="83.67755">
        <ele>3136.44</ele>
        <time>2013-10-29T03:31:40Z</time>
      </trkpt>
      <trkpt lat="28.38149" lon="83.67755">
        <ele>3136.44</ele>
        <time>2013-10-29T03:31:54Z</time>
      </trkpt>
      <trkpt lat="28.3815" lon="83.67755">
        <ele>3136.44</ele>
        <time>2013-10-29T03:32:10Z</time>
      </trkpt>
      <trkpt lat="28.3815" lon="83.67755">
        <ele>3136.44</ele>
        <time>2013-10-29T03:32:16Z</time>
      </trkpt>
      <trkpt lat="28.38153" lon="83.6775">
        <ele>3136.44</ele>
        <time>2013-10-29T03:32:27Z</time>
      </trkpt>
      <trkpt lat="28.38158" lon="83.67747">
        <ele>3136.44</ele>
        <time>2013-10-29T03:32:40Z</time>
      </trkpt>
      <trkpt lat="28.38158" lon="83.67746">
        <ele>3136.44</ele>
        <time>2013-10-29T03:32:41Z</time>
      </trkpt>
      <trkpt lat="28.38164" lon="83.67739">
        <ele>3134.52</ele>
        <time>2013-10-29T03:32:53Z</time>
      </trkpt>
      <trkpt lat="28.38178" lon="83.6774">
        <ele>3132.59</ele>
        <time>2013-10-29T03:33:08Z</time>
      </trkpt>
      <trkpt lat="28.38189" lon="83.67741">
        <ele>3130.19</ele>
        <time>2013-10-29T03:33:24Z</time>
      </trkpt>
      <trkpt lat="28.38203" lon="83.67739">
        <ele>3127.31</ele>
        <time>2013-10-29T03:33:40Z</time>
      </trkpt>
      <trkpt lat="28.38217" lon="83.67731">
        <ele>3124.9</ele>
        <time>2013-10-29T03:33:54Z</time>
      </trkpt>
      <trkpt lat="28.38219" lon="83.67729">
        <ele>3123.94</ele>
        <time>2013-10-29T03:34:00Z</time>
      </trkpt>
      <trkpt lat="28.38225" lon="83.6772">
        <ele>3121.54</ele>
        <time>2013-10-29T03:34:14Z</time>
      </trkpt>
      <trkpt lat="28.38233" lon="83.67715">
        <ele>3119.13</ele>
        <time>2013-10-29T03:34:26Z</time>
      </trkpt>
      <trkpt lat="28.38239" lon="83.67719">
        <ele>3117.69</ele>
        <time>2013-10-29T03:34:35Z</time>
      </trkpt>
      <trkpt lat="28.38244" lon="83.6772">
        <ele>3116.73</ele>
        <time>2013-10-29T03:34:39Z</time>
      </trkpt>
      <trkpt lat="28.38246" lon="83.6772">
        <ele>3116.25</ele>
        <time>2013-10-29T03:34:41Z</time>
      </trkpt>
      <trkpt lat="28.38248" lon="83.67719">
        <ele>3116.25</ele>
        <time>2013-10-29T03:34:44Z</time>
      </trkpt>
      <trkpt lat="28.38254" lon="83.6772">
        <ele>3115.29</ele>
        <time>2013-10-29T03:34:50Z</time>
      </trkpt>
      <trkpt lat="28.38263" lon="83.67715">
        <ele>3113.37</ele>
        <time>2013-10-29T03:35:02Z</time>
      </trkpt>
      <trkpt lat="28.38269" lon="83.6771">
        <ele>3111.44</ele>
        <time>2013-10-29T03:35:11Z</time>
      </trkpt>
      <trkpt lat="28.38271" lon="83.67709">
        <ele>3111.44</ele>
        <time>2013-10-29T03:35:13Z</time>
      </trkpt>
      <trkpt lat="28.38287" lon="83.67707">
        <ele>3109.52</ele>
        <time>2013-10-29T03:35:25Z</time>
      </trkpt>
      <trkpt lat="28.38289" lon="83.67705">
        <ele>3109.52</ele>
        <time>2013-10-29T03:35:28Z</time>
      </trkpt>
      <trkpt lat="28.3829" lon="83.67704">
        <ele>3109.04</ele>
        <time>2013-10-29T03:35:30Z</time>
      </trkpt>
      <trkpt lat="28.38301" lon="83.67697">
        <ele>3108.08</ele>
        <time>2013-10-29T03:35:41Z</time>
      </trkpt>
      <trkpt lat="28.38305" lon="83.67694">
        <ele>3108.08</ele>
        <time>2013-10-29T03:35:45Z</time>
      </trkpt>
      <trkpt lat="28.38319" lon="83.67691">
        <ele>3107.12</ele>
        <time>2013-10-29T03:35:56Z</time>
      </trkpt>
      <trkpt lat="28.38324" lon="83.67689">
        <ele>3107.12</ele>
        <time>2013-10-29T03:36:02Z</time>
      </trkpt>
      <trkpt lat="28.38329" lon="83.67687">
        <ele>3106.64</ele>
        <time>2013-10-29T03:36:08Z</time>
      </trkpt>
      <trkpt lat="28.38341" lon="83.67686">
        <ele>3105.2</ele>
        <time>2013-10-29T03:36:21Z</time>
      </trkpt>
      <trkpt lat="28.38345" lon="83.67684">
        <ele>3104.71</ele>
        <time>2013-10-29T03:36:26Z</time>
      </trkpt>
      <trkpt lat="28.38356" lon="83.67675">
        <ele>3104.23</ele>
        <time>2013-10-29T03:36:38Z</time>
      </trkpt>
      <trkpt lat="28.38359" lon="83.67674">
        <ele>3103.75</ele>
        <time>2013-10-29T03:36:41Z</time>
      </trkpt>
      <trkpt lat="28.38362" lon="83.6767">
        <ele>3103.27</ele>
        <time>2013-10-29T03:36:46Z</time>
      </trkpt>
      <trkpt lat="28.38367" lon="83.67668">
        <ele>3102.79</ele>
        <time>2013-10-29T03:36:50Z</time>
      </trkpt>
      <trkpt lat="28.38379" lon="83.67663">
        <ele>3101.35</ele>
        <time>2013-10-29T03:37:04Z</time>
      </trkpt>
      <trkpt lat="28.38389" lon="83.67664">
        <ele>3098.47</ele>
        <time>2013-10-29T03:37:19Z</time>
      </trkpt>
      <trkpt lat="28.38402" lon="83.67661">
        <ele>3097.02</ele>
        <time>2013-10-29T03:37:31Z</time>
      </trkpt>
      <trkpt lat="28.38409" lon="83.67663">
        <ele>3095.58</ele>
        <time>2013-10-29T03:37:39Z</time>
      </trkpt>
      <trkpt lat="28.38423" lon="83.67667">
        <ele>3094.14</ele>
        <time>2013-10-29T03:37:51Z</time>
      </trkpt>
      <trkpt lat="28.38425" lon="83.67667">
        <ele>3094.14</ele>
        <time>2013-10-29T03:37:53Z</time>
      </trkpt>
      <trkpt lat="28.38431" lon="83.67662">
        <ele>3093.66</ele>
        <time>2013-10-29T03:38:01Z</time>
      </trkpt>
      <trkpt lat="28.38443" lon="83.67658">
        <ele>3092.22</ele>
        <time>2013-10-29T03:38:13Z</time>
      </trkpt>
      <trkpt lat="28.38451" lon="83.67658">
        <ele>3090.78</ele>
        <time>2013-10-29T03:38:25Z</time>
      </trkpt>
      <trkpt lat="28.3846" lon="83.67657">
        <ele>3088.85</ele>
        <time>2013-10-29T03:38:38Z</time>
      </trkpt>
      <trkpt lat="28.38461" lon="83.67657">
        <ele>3088.37</ele>
        <time>2013-10-29T03:38:53Z</time>
      </trkpt>
      <trkpt lat="28.38461" lon="83.67656">
        <ele>3088.37</ele>
        <time>2013-10-29T03:38:57Z</time>
      </trkpt>
      <trkpt lat="28.38465" lon="83.67654">
        <ele>3087.41</ele>
        <time>2013-10-29T03:39:09Z</time>
      </trkpt>
      <trkpt lat="28.38467" lon="83.67653">
        <ele>3086.93</ele>
        <time>2013-10-29T03:39:11Z</time>
      </trkpt>
      <trkpt lat="28.38475" lon="83.67654">
        <ele>3085.97</ele>
        <time>2013-10-29T03:39:19Z</time>
      </trkpt>
      <trkpt lat="28.38477" lon="83.67653">
        <ele>3085.01</ele>
        <time>2013-10-29T03:39:23Z</time>
      </trkpt>
      <trkpt lat="28.38485" lon="83.6765">
        <ele>3082.6</ele>
        <time>2013-10-29T03:39:37Z</time>
      </trkpt>
      <trkpt lat="28.38491" lon="83.67645">
        <ele>3079.72</ele>
        <time>2013-10-29T03:39:50Z</time>
      </trkpt>
      <trkpt lat="28.38501" lon="83.67639">
        <ele>3078.28</ele>
        <time>2013-10-29T03:40:01Z</time>
      </trkpt>
      <trkpt lat="28.38506" lon="83.67636">
        <ele>3077.32</ele>
        <time>2013-10-29T03:40:07Z</time>
      </trkpt>
      <trkpt lat="28.38509" lon="83.67633">
        <ele>3076.36</ele>
        <time>2013-10-29T03:40:11Z</time>
      </trkpt>
      <trkpt lat="28.38514" lon="83.6763">
        <ele>3075.4</ele>
        <time>2013-10-29T03:40:16Z</time>
      </trkpt>
      <trkpt lat="28.38515" lon="83.67631">
        <ele>3075.4</ele>
        <time>2013-10-29T03:40:18Z</time>
      </trkpt>
      <trkpt lat="28.3852" lon="83.67632">
        <ele>3075.4</ele>
        <time>2013-10-29T03:40:22Z</time>
      </trkpt>
      <trkpt lat="28.38525" lon="83.67632">
        <ele>3074.43</ele>
        <time>2013-10-29T03:40:28Z</time>
      </trkpt>
      <trkpt lat="28.38534" lon="83.67639">
        <ele>3072.03</ele>
        <time>2013-10-29T03:40:42Z</time>
      </trkpt>
      <trkpt lat="28.38535" lon="83.6764">
        <ele>3072.03</ele>
        <time>2013-10-29T03:41:06Z</time>
      </trkpt>
      <trkpt lat="28.38535" lon="83.6764">
        <ele>3071.55</ele>
        <time>2013-10-29T03:41:37Z</time>
      </trkpt>
      <trkpt lat="28.38535" lon="83.6764">
        <ele>3071.55</ele>
        <time>2013-10-29T03:41:45Z</time>
      </trkpt>
      <trkpt lat="28.3855" lon="83.67644">
        <ele>3069.15</ele>
        <time>2013-10-29T03:41:59Z</time>
      </trkpt>
      <trkpt lat="28.3855" lon="83.67644">
        <ele>3069.15</ele>
        <time>2013-10-29T03:42:09Z</time>
      </trkpt>
      <trkpt lat="28.3855" lon="83.67645">
        <ele>3068.67</ele>
        <time>2013-10-29T03:42:32Z</time>
      </trkpt>
      <trkpt lat="28.38551" lon="83.67646">
        <ele>3068.67</ele>
        <time>2013-10-29T03:42:57Z</time>
      </trkpt>
      <trkpt lat="28.3855" lon="83.67646">
        <ele>3068.67</ele>
        <time>2013-10-29T03:43:17Z</time>
      </trkpt>
      <trkpt lat="28.38551" lon="83.67646">
        <ele>3068.19</ele>
        <time>2013-10-29T03:43:41Z</time>
      </trkpt>
      <trkpt lat="28.3855" lon="83.67647">
        <ele>3068.19</ele>
        <time>2013-10-29T03:44:14Z</time>
      </trkpt>
      <trkpt lat="28.3855" lon="83.67647">
        <ele>3067.7</ele>
        <time>2013-10-29T03:44:35Z</time>
      </trkpt>
      <trkpt lat="28.3855" lon="83.67647">
        <ele>3067.7</ele>
        <time>2013-10-29T03:44:58Z</time>
      </trkpt>
      <trkpt lat="28.38551" lon="83.67647">
        <ele>3067.7</ele>
        <time>2013-10-29T03:45:25Z</time>
      </trkpt>
      <trkpt lat="28.3855" lon="83.67647">
        <ele>3067.22</ele>
        <time>2013-10-29T03:45:46Z</time>
      </trkpt>
      <trkpt lat="28.38551" lon="83.67647">
        <ele>3067.7</ele>
        <time>2013-10-29T03:46:02Z</time>
      </trkpt>
      <trkpt lat="28.38551" lon="83.67647">
        <ele>3067.7</ele>
        <time>2013-10-29T03:46:17Z</time>
      </trkpt>
      <trkpt lat="28.38551" lon="83.67647">
        <ele>3067.7</ele>
        <time>2013-10-29T03:46:46Z</time>
      </trkpt>
      <trkpt lat="28.38551" lon="83.67647">
        <ele>3067.7</ele>
        <time>2013-10-29T03:47:03Z</time>
      </trkpt>
      <trkpt lat="28.38551" lon="83.67646">
        <ele>3067.7</ele>
        <time>2013-10-29T03:47:18Z</time>
      </trkpt>
      <trkpt lat="28.38552" lon="83.67646">
        <ele>3067.7</ele>
        <time>2013-10-29T03:47:30Z</time>
      </trkpt>
      <trkpt lat="28.38552" lon="83.67646">
        <ele>3067.22</ele>
        <time>2013-10-29T03:47:39Z</time>
      </trkpt>
      <trkpt lat="28.38555" lon="83.67645">
        <ele>3066.26</ele>
        <time>2013-10-29T03:47:42Z</time>
      </trkpt>
      <trkpt lat="28.3856" lon="83.67646">
        <ele>3065.3</ele>
        <time>2013-10-29T03:47:47Z</time>
      </trkpt>
      <trkpt lat="28.38563" lon="83.67649">
        <ele>3064.34</ele>
        <time>2013-10-29T03:47:51Z</time>
      </trkpt>
      <trkpt lat="28.3857" lon="83.67648">
        <ele>3062.9</ele>
        <time>2013-10-29T03:47:58Z</time>
      </trkpt>
      <trkpt lat="28.38581" lon="83.67647">
        <ele>3060.49</ele>
        <time>2013-10-29T03:48:09Z</time>
      </trkpt>
      <trkpt lat="28.38584" lon="83.6765">
        <ele>3059.53</ele>
        <time>2013-10-29T03:48:13Z</time>
      </trkpt>
      <trkpt lat="28.38586" lon="83.67656">
        <ele>3058.09</ele>
        <time>2013-10-29T03:48:19Z</time>
      </trkpt>
      <trkpt lat="28.38586" lon="83.67659">
        <ele>3058.09</ele>
        <time>2013-10-29T03:48:21Z</time>
      </trkpt>
      <trkpt lat="28.38587" lon="83.67667">
        <ele>3057.13</ele>
        <time>2013-10-29T03:48:27Z</time>
      </trkpt>
      <trkpt lat="28.38591" lon="83.67671">
        <ele>3057.13</ele>
        <time>2013-10-29T03:48:31Z</time>
      </trkpt>
      <trkpt lat="28.38599" lon="83.67671">
        <ele>3056.17</ele>
        <time>2013-10-29T03:48:41Z</time>
      </trkpt>
      <trkpt lat="28.38609" lon="83.6767">
        <ele>3053.28</ele>
        <time>2013-10-29T03:48:51Z</time>
      </trkpt>
      <trkpt lat="28.38614" lon="83.67669">
        <ele>3052.32</ele>
        <time>2013-10-29T03:48:56Z</time>
      </trkpt>
      <trkpt lat="28.38628" lon="83.67665">
        <ele>3049.44</ele>
        <time>2013-10-29T03:49:09Z</time>
      </trkpt>
      <trkpt lat="28.38629" lon="83.67665">
        <ele>3049.44</ele>
        <time>2013-10-29T03:49:10Z</time>
      </trkpt>
      <trkpt lat="28.3863" lon="83.67663">
        <ele>3048.96</ele>
        <time>2013-10-29T03:49:12Z</time>
      </trkpt>
      <trkpt lat="28.38633" lon="83.67657">
        <ele>3048</ele>
        <time>2013-10-29T03:49:17Z</time>
      </trkpt>
      <trkpt lat="28.38638" lon="83.67657">
        <ele>3046.56</ele>
        <time>2013-10-29T03:49:25Z</time>
      </trkpt>
      <trkpt lat="28.38647" lon="83.67652">
        <ele>3044.15</ele>
        <time>2013-10-29T03:49:36Z</time>
      </trkpt>
      <trkpt lat="28.38651" lon="83.67648">
        <ele>3041.75</ele>
        <time>2013-10-29T03:49:44Z</time>
      </trkpt>
      <trkpt lat="28.38653" lon="83.6765">
        <ele>3041.27</ele>
        <time>2013-10-29T03:49:46Z</time>
      </trkpt>
      <trkpt lat="28.38656" lon="83.67652">
        <ele>3040.31</ele>
        <time>2013-10-29T03:49:51Z</time>
      </trkpt>
      <trkpt lat="28.38658" lon="83.67648">
        <ele>3039.35</ele>
        <time>2013-10-29T03:49:55Z</time>
      </trkpt>
      <trkpt lat="28.38663" lon="83.67642">
        <ele>3036.46</ele>
        <time>2013-10-29T03:50:07Z</time>
      </trkpt>
      <trkpt lat="28.38665" lon="83.67642">
        <ele>3036.46</ele>
        <time>2013-10-29T03:50:13Z</time>
      </trkpt>
      <trkpt lat="28.3867" lon="83.67643">
        <ele>3034.06</ele>
        <time>2013-10-29T03:50:20Z</time>
      </trkpt>
      <trkpt lat="28.38676" lon="83.67637">
        <ele>3031.17</ele>
        <time>2013-10-29T03:50:33Z</time>
      </trkpt>
      <trkpt lat="28.3868" lon="83.67631">
        <ele>3028.77</ele>
        <time>2013-10-29T03:50:45Z</time>
      </trkpt>
      <trkpt lat="28.38682" lon="83.67629">
        <ele>3027.81</ele>
        <time>2013-10-29T03:50:49Z</time>
      </trkpt>
      <trkpt lat="28.3869" lon="83.67629">
        <ele>3025.41</ele>
        <time>2013-10-29T03:50:58Z</time>
      </trkpt>
      <trkpt lat="28.38692" lon="83.67631">
        <ele>3024.93</ele>
        <time>2013-10-29T03:51:01Z</time>
      </trkpt>
      <trkpt lat="28.38697" lon="83.67628">
        <ele>3023.48</ele>
        <time>2013-10-29T03:51:08Z</time>
      </trkpt>
      <trkpt lat="28.38701" lon="83.67625">
        <ele>3023</ele>
        <time>2013-10-29T03:51:12Z</time>
      </trkpt>
      <trkpt lat="28.3871" lon="83.67618">
        <ele>3021.08</ele>
        <time>2013-10-29T03:51:26Z</time>
      </trkpt>
      <trkpt lat="28.3871" lon="83.67618">
        <ele>3020.6</ele>
        <time>2013-10-29T03:51:27Z</time>
      </trkpt>
      <trkpt lat="28.38713" lon="83.67616">
        <ele>3020.6</ele>
        <time>2013-10-29T03:51:30Z</time>
      </trkpt>
      <trkpt lat="28.38723" lon="83.67612">
        <ele>3017.72</ele>
        <time>2013-10-29T03:51:42Z</time>
      </trkpt>
      <trkpt lat="28.38724" lon="83.67611">
        <ele>3016.75</ele>
        <time>2013-10-29T03:51:45Z</time>
      </trkpt>
      <trkpt lat="28.38731" lon="83.67607">
        <ele>3013.87</ele>
        <time>2013-10-29T03:51:56Z</time>
      </trkpt>
      <trkpt lat="28.38734" lon="83.67606">
        <ele>3012.43</ele>
        <time>2013-10-29T03:52:00Z</time>
      </trkpt>
      <trkpt lat="28.38739" lon="83.67606">
        <ele>3011.95</ele>
        <time>2013-10-29T03:52:04Z</time>
      </trkpt>
      <trkpt lat="28.38746" lon="83.67603">
        <ele>3009.54</ele>
        <time>2013-10-29T03:52:11Z</time>
      </trkpt>
      <trkpt lat="28.38751" lon="83.67601">
        <ele>3008.1</ele>
        <time>2013-10-29T03:52:18Z</time>
      </trkpt>
      <trkpt lat="28.38754" lon="83.67604">
        <ele>3007.62</ele>
        <time>2013-10-29T03:52:22Z</time>
      </trkpt>
      <trkpt lat="28.38756" lon="83.67607">
        <ele>3007.62</ele>
        <time>2013-10-29T03:52:26Z</time>
      </trkpt>
      <trkpt lat="28.38764" lon="83.67606">
        <ele>3006.66</ele>
        <time>2013-10-29T03:52:33Z</time>
      </trkpt>
      <trkpt lat="28.3877" lon="83.67604">
        <ele>3006.18</ele>
        <time>2013-10-29T03:52:40Z</time>
      </trkpt>
      <trkpt lat="28.38772" lon="83.67603">
        <ele>3006.18</ele>
        <time>2013-10-29T03:52:42Z</time>
      </trkpt>
      <trkpt lat="28.38776" lon="83.676">
        <ele>3005.7</ele>
        <time>2013-10-29T03:52:46Z</time>
      </trkpt>
      <trkpt lat="28.3878" lon="83.67598">
        <ele>3005.7</ele>
        <time>2013-10-29T03:52:52Z</time>
      </trkpt>
      <trkpt lat="28.38782" lon="83.67596">
        <ele>3005.22</ele>
        <time>2013-10-29T03:52:55Z</time>
      </trkpt>
      <trkpt lat="28.38794" lon="83.67592">
        <ele>3002.33</ele>
        <time>2013-10-29T03:53:09Z</time>
      </trkpt>
      <trkpt lat="28.38797" lon="83.67593">
        <ele>3001.37</ele>
        <time>2013-10-29T03:53:16Z</time>
      </trkpt>
      <trkpt lat="28.38802" lon="83.67588">
        <ele>2999.45</ele>
        <time>2013-10-29T03:53:28Z</time>
      </trkpt>
      <trkpt lat="28.38813" lon="83.67586">
        <ele>2996.57</ele>
        <time>2013-10-29T03:53:42Z</time>
      </trkpt>
      <trkpt lat="28.38822" lon="83.67586">
        <ele>2993.68</ele>
        <time>2013-10-29T03:53:54Z</time>
      </trkpt>
      <trkpt lat="28.38824" lon="83.67583">
        <ele>2992.24</ele>
        <time>2013-10-29T03:54:00Z</time>
      </trkpt>
      <trkpt lat="28.38829" lon="83.67578">
        <ele>2991.28</ele>
        <time>2013-10-29T03:54:14Z</time>
      </trkpt>
      <trkpt lat="28.38831" lon="83.67578">
        <ele>2990.32</ele>
        <time>2013-10-29T03:54:25Z</time>
      </trkpt>
      <trkpt lat="28.38842" lon="83.6757">
        <ele>2989.36</ele>
        <time>2013-10-29T03:54:38Z</time>
      </trkpt>
      <trkpt lat="28.38851" lon="83.67559">
        <ele>2989.36</ele>
        <time>2013-10-29T03:54:52Z</time>
      </trkpt>
      <trkpt lat="28.38861" lon="83.67549">
        <ele>2989.84</ele>
        <time>2013-10-29T03:55:05Z</time>
      </trkpt>
      <trkpt lat="28.38867" lon="83.6754">
        <ele>2990.8</ele>
        <time>2013-10-29T03:55:17Z</time>
      </trkpt>
      <trkpt lat="28.38873" lon="83.67532">
        <ele>2990.32</ele>
        <time>2013-10-29T03:55:25Z</time>
      </trkpt>
      <trkpt lat="28.3888" lon="83.67529">
        <ele>2988.4</ele>
        <time>2013-10-29T03:55:39Z</time>
      </trkpt>
      <trkpt lat="28.38881" lon="83.67528">
        <ele>2987.91</ele>
        <time>2013-10-29T03:55:46Z</time>
      </trkpt>
      <trkpt lat="28.38884" lon="83.67527">
        <ele>2986.95</ele>
        <time>2013-10-29T03:55:58Z</time>
      </trkpt>
      <trkpt lat="28.38892" lon="83.67527">
        <ele>2985.03</ele>
        <time>2013-10-29T03:56:06Z</time>
      </trkpt>
      <trkpt lat="28.38901" lon="83.67523">
        <ele>2981.67</ele>
        <time>2013-10-29T03:56:18Z</time>
      </trkpt>
      <trkpt lat="28.38907" lon="83.67518">
        <ele>2978.3</ele>
        <time>2013-10-29T03:56:27Z</time>
      </trkpt>
      <trkpt lat="28.3891" lon="83.67514">
        <ele>2977.34</ele>
        <time>2013-10-29T03:56:31Z</time>
      </trkpt>
      <trkpt lat="28.38913" lon="83.67511">
        <ele>2976.38</ele>
        <time>2013-10-29T03:56:36Z</time>
      </trkpt>
      <trkpt lat="28.38919" lon="83.67506">
        <ele>2974.46</ele>
        <time>2013-10-29T03:56:43Z</time>
      </trkpt>
      <trkpt lat="28.38926" lon="83.675">
        <ele>2972.05</ele>
        <time>2013-10-29T03:56:51Z</time>
      </trkpt>
      <trkpt lat="28.38931" lon="83.67498">
        <ele>2971.09</ele>
        <time>2013-10-29T03:56:56Z</time>
      </trkpt>
      <trkpt lat="28.38934" lon="83.67497">
        <ele>2970.13</ele>
        <time>2013-10-29T03:56:59Z</time>
      </trkpt>
      <trkpt lat="28.38941" lon="83.67491">
        <ele>2967.25</ele>
        <time>2013-10-29T03:57:12Z</time>
      </trkpt>
      <trkpt lat="28.38943" lon="83.67489">
        <ele>2966.29</ele>
        <time>2013-10-29T03:57:14Z</time>
      </trkpt>
      <trkpt lat="28.38951" lon="83.67487">
        <ele>2963.88</ele>
        <time>2013-10-29T03:57:28Z</time>
      </trkpt>
      <trkpt lat="28.3896" lon="83.67481">
        <ele>2960.52</ele>
        <time>2013-10-29T03:57:40Z</time>
      </trkpt>
      <trkpt lat="28.38965" lon="83.67479">
        <ele>2957.15</ele>
        <time>2013-10-29T03:57:50Z</time>
      </trkpt>
      <trkpt lat="28.38972" lon="83.67482">
        <ele>2954.27</ele>
        <time>2013-10-29T03:57:59Z</time>
      </trkpt>
      <trkpt lat="28.38972" lon="83.67482">
        <ele>2953.79</ele>
        <time>2013-10-29T03:58:01Z</time>
      </trkpt>
      <trkpt lat="28.38979" lon="83.67487">
        <ele>2950.9</ele>
        <time>2013-10-29T03:58:14Z</time>
      </trkpt>
      <trkpt lat="28.38984" lon="83.67483">
        <ele>2948.98</ele>
        <time>2013-10-29T03:58:24Z</time>
      </trkpt>
      <trkpt lat="28.38987" lon="83.67483">
        <ele>2947.54</ele>
        <time>2013-10-29T03:58:30Z</time>
      </trkpt>
      <trkpt lat="28.38991" lon="83.67483">
        <ele>2946.1</ele>
        <time>2013-10-29T03:58:35Z</time>
      </trkpt>
      <trkpt lat="28.38994" lon="83.67485">
        <ele>2944.66</ele>
        <time>2013-10-29T03:58:39Z</time>
      </trkpt>
      <trkpt lat="28.38998" lon="83.67491">
        <ele>2941.77</ele>
        <time>2013-10-29T03:58:50Z</time>
      </trkpt>
      <trkpt lat="28.39" lon="83.6749">
        <ele>2939.37</ele>
        <time>2013-10-29T03:58:57Z</time>
      </trkpt>
      <trkpt lat="28.39004" lon="83.67487">
        <ele>2938.41</ele>
        <time>2013-10-29T03:59:03Z</time>
      </trkpt>
      <trkpt lat="28.3901" lon="83.67501">
        <ele>2935.04</ele>
        <time>2013-10-29T03:59:17Z</time>
      </trkpt>
      <trkpt lat="28.39013" lon="83.67505">
        <ele>2933.12</ele>
        <time>2013-10-29T03:59:25Z</time>
      </trkpt>
      <trkpt lat="28.39014" lon="83.67511">
        <ele>2929.75</ele>
        <time>2013-10-29T03:59:36Z</time>
      </trkpt>
      <trkpt lat="28.39019" lon="83.67507">
        <ele>2927.83</ele>
        <time>2013-10-29T03:59:44Z</time>
      </trkpt>
      <trkpt lat="28.39027" lon="83.67505">
        <ele>2924.47</ele>
        <time>2013-10-29T03:59:54Z</time>
      </trkpt>
      <trkpt lat="28.39033" lon="83.67506">
        <ele>2921.58</ele>
        <time>2013-10-29T04:00:02Z</time>
      </trkpt>
      <trkpt lat="28.39036" lon="83.67506">
        <ele>2921.1</ele>
        <time>2013-10-29T04:00:04Z</time>
      </trkpt>
      <trkpt lat="28.39041" lon="83.67505">
        <ele>2919.66</ele>
        <time>2013-10-29T04:00:10Z</time>
      </trkpt>
      <trkpt lat="28.39054" lon="83.67505">
        <ele>2917.74</ele>
        <time>2013-10-29T04:00:22Z</time>
      </trkpt>
      <trkpt lat="28.39058" lon="83.67507">
        <ele>2917.26</ele>
        <time>2013-10-29T04:00:34Z</time>
      </trkpt>
      <trkpt lat="28.39068" lon="83.67506">
        <ele>2916.3</ele>
        <time>2013-10-29T04:00:45Z</time>
      </trkpt>
      <trkpt lat="28.3907" lon="83.67504">
        <ele>2915.82</ele>
        <time>2013-10-29T04:01:01Z</time>
      </trkpt>
      <trkpt lat="28.39071" lon="83.67505">
        <ele>2915.82</ele>
        <time>2013-10-29T04:01:28Z</time>
      </trkpt>
      <trkpt lat="28.39072" lon="83.67506">
        <ele>2915.82</ele>
        <time>2013-10-29T04:01:49Z</time>
      </trkpt>
      <trkpt lat="28.39072" lon="83.67506">
        <ele>2915.82</ele>
        <time>2013-10-29T04:02:08Z</time>
      </trkpt>
      <trkpt lat="28.39072" lon="83.67506">
        <ele>2915.34</ele>
        <time>2013-10-29T04:02:28Z</time>
      </trkpt>
      <trkpt lat="28.39072" lon="83.67507">
        <ele>2915.34</ele>
        <time>2013-10-29T04:02:54Z</time>
      </trkpt>
      <trkpt lat="28.39072" lon="83.67506">
        <ele>2915.34</ele>
        <time>2013-10-29T04:03:20Z</time>
      </trkpt>
      <trkpt lat="28.39073" lon="83.67507">
        <ele>2914.85</ele>
        <time>2013-10-29T04:03:49Z</time>
      </trkpt>
      <trkpt lat="28.39073" lon="83.67507">
        <ele>2914.37</ele>
        <time>2013-10-29T04:04:11Z</time>
      </trkpt>
      <trkpt lat="28.39075" lon="83.67508">
        <ele>2913.89</ele>
        <time>2013-10-29T04:04:29Z</time>
      </trkpt>
      <trkpt lat="28.39086" lon="83.67508">
        <ele>2913.89</ele>
        <time>2013-10-29T04:04:40Z</time>
      </trkpt>
      <trkpt lat="28.39095" lon="83.6751">
        <ele>2912.45</ele>
        <time>2013-10-29T04:04:48Z</time>
      </trkpt>
      <trkpt lat="28.39099" lon="83.67509">
        <ele>2911.01</ele>
        <time>2013-10-29T04:04:52Z</time>
      </trkpt>
      <trkpt lat="28.39108" lon="83.67506">
        <ele>2909.09</ele>
        <time>2013-10-29T04:05:00Z</time>
      </trkpt>
      <trkpt lat="28.39121" lon="83.675">
        <ele>2908.13</ele>
        <time>2013-10-29T04:05:12Z</time>
      </trkpt>
      <trkpt lat="28.3913" lon="83.67499">
        <ele>2906.2</ele>
        <time>2013-10-29T04:05:25Z</time>
      </trkpt>
      <trkpt lat="28.39142" lon="83.67501">
        <ele>2904.76</ele>
        <time>2013-10-29T04:05:34Z</time>
      </trkpt>
      <trkpt lat="28.39151" lon="83.67503">
        <ele>2903.8</ele>
        <time>2013-10-29T04:05:42Z</time>
      </trkpt>
      <trkpt lat="28.39156" lon="83.67502">
        <ele>2903.32</ele>
        <time>2013-10-29T04:05:46Z</time>
      </trkpt>
      <trkpt lat="28.39163" lon="83.67498">
        <ele>2902.36</ele>
        <time>2013-10-29T04:05:55Z</time>
      </trkpt>
      <trkpt lat="28.39175" lon="83.67501">
        <ele>2900.92</ele>
        <time>2013-10-29T04:06:08Z</time>
      </trkpt>
      <trkpt lat="28.39185" lon="83.67505">
        <ele>2898.03</ele>
        <time>2013-10-29T04:06:21Z</time>
      </trkpt>
      <trkpt lat="28.3919" lon="83.67514">
        <ele>2897.07</ele>
        <time>2013-10-29T04:06:37Z</time>
      </trkpt>
      <trkpt lat="28.39193" lon="83.67521">
        <ele>2895.63</ele>
        <time>2013-10-29T04:06:57Z</time>
      </trkpt>
      <trkpt lat="28.39202" lon="83.67528">
        <ele>2894.19</ele>
        <time>2013-10-29T04:07:10Z</time>
      </trkpt>
      <trkpt lat="28.39204" lon="83.67529">
        <ele>2893.23</ele>
        <time>2013-10-29T04:07:33Z</time>
      </trkpt>
      <trkpt lat="28.39213" lon="83.67533">
        <ele>2892.74</ele>
        <time>2013-10-29T04:07:50Z</time>
      </trkpt>
      <trkpt lat="28.39215" lon="83.67533">
        <ele>2892.74</ele>
        <time>2013-10-29T04:08:13Z</time>
      </trkpt>
      <trkpt lat="28.39218" lon="83.67535">
        <ele>2892.26</ele>
        <time>2013-10-29T04:08:38Z</time>
      </trkpt>
      <trkpt lat="28.39228" lon="83.67537">
        <ele>2889.38</ele>
        <time>2013-10-29T04:08:47Z</time>
      </trkpt>
      <trkpt lat="28.39238" lon="83.67537">
        <ele>2886.02</ele>
        <time>2013-10-29T04:08:56Z</time>
      </trkpt>
      <trkpt lat="28.39243" lon="83.67541">
        <ele>2882.65</ele>
        <time>2013-10-29T04:09:06Z</time>
      </trkpt>
      <trkpt lat="28.39255" lon="83.67549">
        <ele>2881.21</ele>
        <time>2013-10-29T04:09:12Z</time>
      </trkpt>
      <trkpt lat="28.39265" lon="83.67565">
        <ele>2877.84</ele>
        <time>2013-10-29T04:09:28Z</time>
      </trkpt>
      <trkpt lat="28.39267" lon="83.67574">
        <ele>2874.48</ele>
        <time>2013-10-29T04:09:43Z</time>
      </trkpt>
      <trkpt lat="28.39276" lon="83.6759">
        <ele>2872.08</ele>
        <time>2013-10-29T04:10:03Z</time>
      </trkpt>
      <trkpt lat="28.39284" lon="83.67608">
        <ele>2868.71</ele>
        <time>2013-10-29T04:10:20Z</time>
      </trkpt>
      <trkpt lat="28.39285" lon="83.67618">
        <ele>2866.31</ele>
        <time>2013-10-29T04:10:36Z</time>
      </trkpt>
      <trkpt lat="28.39282" lon="83.67634">
        <ele>2863.42</ele>
        <time>2013-10-29T04:10:55Z</time>
      </trkpt>
      <trkpt lat="28.39282" lon="83.67638">
        <ele>2860.54</ele>
        <time>2013-10-29T04:11:14Z</time>
      </trkpt>
      <trkpt lat="28.39281" lon="83.67641">
        <ele>2859.1</ele>
        <time>2013-10-29T04:11:30Z</time>
      </trkpt>
      <trkpt lat="28.39278" lon="83.67647">
        <ele>2855.73</ele>
        <time>2013-10-29T04:11:44Z</time>
      </trkpt>
      <trkpt lat="28.39281" lon="83.67668">
        <ele>2852.85</ele>
        <time>2013-10-29T04:12:02Z</time>
      </trkpt>
      <trkpt lat="28.39281" lon="83.67673">
        <ele>2850.93</ele>
        <time>2013-10-29T04:12:25Z</time>
      </trkpt>
      <trkpt lat="28.39292" lon="83.67681">
        <ele>2851.89</ele>
        <time>2013-10-29T04:12:45Z</time>
      </trkpt>
      <trkpt lat="28.39301" lon="83.6769">
        <ele>2848.52</ele>
        <time>2013-10-29T04:13:02Z</time>
      </trkpt>
      <trkpt lat="28.39309" lon="83.677">
        <ele>2845.64</ele>
        <time>2013-10-29T04:13:17Z</time>
      </trkpt>
      <trkpt lat="28.39315" lon="83.67702">
        <ele>2842.28</ele>
        <time>2013-10-29T04:13:33Z</time>
      </trkpt>
      <trkpt lat="28.39329" lon="83.67719">
        <ele>2839.39</ele>
        <time>2013-10-29T04:13:49Z</time>
      </trkpt>
      <trkpt lat="28.39337" lon="83.67742">
        <ele>2836.51</ele>
        <time>2013-10-29T04:14:09Z</time>
      </trkpt>
      <trkpt lat="28.39344" lon="83.6775">
        <ele>2836.03</ele>
        <time>2013-10-29T04:14:24Z</time>
      </trkpt>
      <trkpt lat="28.3934" lon="83.67762">
        <ele>2834.58</ele>
        <time>2013-10-29T04:14:40Z</time>
      </trkpt>
      <trkpt lat="28.39341" lon="83.67764">
        <ele>2834.58</ele>
        <time>2013-10-29T04:15:00Z</time>
      </trkpt>
      <trkpt lat="28.39354" lon="83.67765">
        <ele>2835.06</ele>
        <time>2013-10-29T04:15:16Z</time>
      </trkpt>
      <trkpt lat="28.39378" lon="83.67773">
        <ele>2833.14</ele>
        <time>2013-10-29T04:15:35Z</time>
      </trkpt>
      <trkpt lat="28.39391" lon="83.67786">
        <ele>2830.74</ele>
        <time>2013-10-29T04:15:53Z</time>
      </trkpt>
      <trkpt lat="28.39402" lon="83.67795">
        <ele>2831.7</ele>
        <time>2013-10-29T04:16:09Z</time>
      </trkpt>
      <trkpt lat="28.39409" lon="83.67795">
        <ele>2831.22</ele>
        <time>2013-10-29T04:16:23Z</time>
      </trkpt>
      <trkpt lat="28.39415" lon="83.678">
        <ele>2829.3</ele>
        <time>2013-10-29T04:16:44Z</time>
      </trkpt>
      <trkpt lat="28.39423" lon="83.67803">
        <ele>2828.34</ele>
        <time>2013-10-29T04:17:01Z</time>
      </trkpt>
      <trkpt lat="28.39431" lon="83.67812">
        <ele>2827.85</ele>
        <time>2013-10-29T04:17:14Z</time>
      </trkpt>
      <trkpt lat="28.39437" lon="83.67823">
        <ele>2826.89</ele>
        <time>2013-10-29T04:17:27Z</time>
      </trkpt>
      <trkpt lat="28.3944" lon="83.67826">
        <ele>2823.53</ele>
        <time>2013-10-29T04:17:42Z</time>
      </trkpt>
      <trkpt lat="28.39445" lon="83.67828">
        <ele>2822.09</ele>
        <time>2013-10-29T04:17:56Z</time>
      </trkpt>
      <trkpt lat="28.3945" lon="83.67835">
        <ele>2820.65</ele>
        <time>2013-10-29T04:18:13Z</time>
      </trkpt>
      <trkpt lat="28.3946" lon="83.67837">
        <ele>2817.76</ele>
        <time>2013-10-29T04:18:27Z</time>
      </trkpt>
      <trkpt lat="28.39469" lon="83.67844">
        <ele>2815.84</ele>
        <time>2013-10-29T04:18:43Z</time>
      </trkpt>
      <trkpt lat="28.39471" lon="83.6785">
        <ele>2812.96</ele>
        <time>2013-10-29T04:18:58Z</time>
      </trkpt>
      <trkpt lat="28.39478" lon="83.67847">
        <ele>2810.07</ele>
        <time>2013-10-29T04:19:17Z</time>
      </trkpt>
      <trkpt lat="28.39486" lon="83.67845">
        <ele>2810.55</ele>
        <time>2013-10-29T04:19:34Z</time>
      </trkpt>
      <trkpt lat="28.39495" lon="83.67843">
        <ele>2807.67</ele>
        <time>2013-10-29T04:19:50Z</time>
      </trkpt>
      <trkpt lat="28.39502" lon="83.67841">
        <ele>2804.78</ele>
        <time>2013-10-29T04:20:06Z</time>
      </trkpt>
      <trkpt lat="28.39508" lon="83.67837">
        <ele>2801.9</ele>
        <time>2013-10-29T04:20:22Z</time>
      </trkpt>
      <trkpt lat="28.39514" lon="83.67833">
        <ele>2798.54</ele>
        <time>2013-10-29T04:20:36Z</time>
      </trkpt>
      <trkpt lat="28.39518" lon="83.67828">
        <ele>2795.65</ele>
        <time>2013-10-29T04:20:54Z</time>
      </trkpt>
      <trkpt lat="28.39525" lon="83.67829">
        <ele>2794.69</ele>
        <time>2013-10-29T04:21:10Z</time>
      </trkpt>
      <trkpt lat="28.39534" lon="83.67823">
        <ele>2792.77</ele>
        <time>2013-10-29T04:21:27Z</time>
      </trkpt>
      <trkpt lat="28.39567" lon="83.67818">
        <ele>2793.73</ele>
        <time>2013-10-29T04:21:47Z</time>
      </trkpt>
      <trkpt lat="28.39579" lon="83.67822">
        <ele>2791.81</ele>
        <time>2013-10-29T04:22:04Z</time>
      </trkpt>
      <trkpt lat="28.39587" lon="83.67821">
        <ele>2789.4</ele>
        <time>2013-10-29T04:22:23Z</time>
      </trkpt>
      <trkpt lat="28.39588" lon="83.6782">
        <ele>2786.04</ele>
        <time>2013-10-29T04:22:39Z</time>
      </trkpt>
      <trkpt lat="28.396" lon="83.67823">
        <ele>2784.6</ele>
        <time>2013-10-29T04:23:02Z</time>
      </trkpt>
      <trkpt lat="28.39619" lon="83.67824">
        <ele>2785.56</ele>
        <time>2013-10-29T04:23:17Z</time>
      </trkpt>
      <trkpt lat="28.39622" lon="83.67823">
        <ele>2786.04</ele>
        <time>2013-10-29T04:23:34Z</time>
      </trkpt>
      <trkpt lat="28.39627" lon="83.67823">
        <ele>2787</ele>
        <time>2013-10-29T04:23:50Z</time>
      </trkpt>
      <trkpt lat="28.39643" lon="83.67828">
        <ele>2787.96</ele>
        <time>2013-10-29T04:24:05Z</time>
      </trkpt>
      <trkpt lat="28.39656" lon="83.67831">
        <ele>2787</ele>
        <time>2013-10-29T04:24:20Z</time>
      </trkpt>
      <trkpt lat="28.39688" lon="83.67826">
        <ele>2785.56</ele>
        <time>2013-10-29T04:24:40Z</time>
      </trkpt>
      <trkpt lat="28.39714" lon="83.67836">
        <ele>2784.12</ele>
        <time>2013-10-29T04:25:00Z</time>
      </trkpt>
      <trkpt lat="28.39726" lon="83.67845">
        <ele>2784.12</ele>
        <time>2013-10-29T04:25:17Z</time>
      </trkpt>
      <trkpt lat="28.39737" lon="83.67852">
        <ele>2783.15</ele>
        <time>2013-10-29T04:25:32Z</time>
      </trkpt>
      <trkpt lat="28.3975" lon="83.67852">
        <ele>2782.67</ele>
        <time>2013-10-29T04:25:47Z</time>
      </trkpt>
      <trkpt lat="28.39766" lon="83.67857">
        <ele>2781.71</ele>
        <time>2013-10-29T04:26:02Z</time>
      </trkpt>
      <trkpt lat="28.39769" lon="83.67857">
        <ele>2780.75</ele>
        <time>2013-10-29T04:26:19Z</time>
      </trkpt>
      <trkpt lat="28.3977" lon="83.67857">
        <ele>2780.27</ele>
        <time>2013-10-29T04:26:20Z</time>
      </trkpt>
      <trkpt lat="28.39778" lon="83.67862">
        <ele>2779.31</ele>
        <time>2013-10-29T04:26:29Z</time>
      </trkpt>
      <trkpt lat="28.39786" lon="83.67867">
        <ele>2779.31</ele>
        <time>2013-10-29T04:26:41Z</time>
      </trkpt>
      <trkpt lat="28.3979" lon="83.67867">
        <ele>2779.31</ele>
        <time>2013-10-29T04:26:46Z</time>
      </trkpt>
      <trkpt lat="28.39796" lon="83.67871">
        <ele>2780.27</ele>
        <time>2013-10-29T04:26:58Z</time>
      </trkpt>
      <trkpt lat="28.39805" lon="83.67874">
        <ele>2780.27</ele>
        <time>2013-10-29T04:27:07Z</time>
      </trkpt>
      <trkpt lat="28.39815" lon="83.67887">
        <ele>2780.27</ele>
        <time>2013-10-29T04:27:20Z</time>
      </trkpt>
      <trkpt lat="28.39825" lon="83.67893">
        <ele>2778.83</ele>
        <time>2013-10-29T04:27:35Z</time>
      </trkpt>
      <trkpt lat="28.39826" lon="83.67894">
        <ele>2778.83</ele>
        <time>2013-10-29T04:27:36Z</time>
      </trkpt>
      <trkpt lat="28.39834" lon="83.67902">
        <ele>2776.91</ele>
        <time>2013-10-29T04:27:50Z</time>
      </trkpt>
      <trkpt lat="28.39836" lon="83.67912">
        <ele>2774.98</ele>
        <time>2013-10-29T04:28:03Z</time>
      </trkpt>
      <trkpt lat="28.3984" lon="83.67919">
        <ele>2772.1</ele>
        <time>2013-10-29T04:28:21Z</time>
      </trkpt>
      <trkpt lat="28.3985" lon="83.6792">
        <ele>2770.66</ele>
        <time>2013-10-29T04:28:43Z</time>
      </trkpt>
      <trkpt lat="28.39862" lon="83.67921">
        <ele>2771.62</ele>
        <time>2013-10-29T04:28:58Z</time>
      </trkpt>
      <trkpt lat="28.39873" lon="83.67918">
        <ele>2770.66</ele>
        <time>2013-10-29T04:29:14Z</time>
      </trkpt>
      <trkpt lat="28.39877" lon="83.67914">
        <ele>2771.62</ele>
        <time>2013-10-29T04:29:31Z</time>
      </trkpt>
      <trkpt lat="28.39889" lon="83.67908">
        <ele>2773.06</ele>
        <time>2013-10-29T04:29:49Z</time>
      </trkpt>
      <trkpt lat="28.39908" lon="83.67901">
        <ele>2773.54</ele>
        <time>2013-10-29T04:30:04Z</time>
      </trkpt>
      <trkpt lat="28.3991" lon="83.679">
        <ele>2774.02</ele>
        <time>2013-10-29T04:30:10Z</time>
      </trkpt>
      <trkpt lat="28.39913" lon="83.67899">
        <ele>2773.54</ele>
        <time>2013-10-29T04:30:13Z</time>
      </trkpt>
      <trkpt lat="28.39918" lon="83.67896">
        <ele>2774.02</ele>
        <time>2013-10-29T04:30:18Z</time>
      </trkpt>
      <trkpt lat="28.39928" lon="83.67895">
        <ele>2773.54</ele>
        <time>2013-10-29T04:30:26Z</time>
      </trkpt>
      <trkpt lat="28.3994" lon="83.67898">
        <ele>2773.06</ele>
        <time>2013-10-29T04:30:38Z</time>
      </trkpt>
      <trkpt lat="28.39954" lon="83.67898">
        <ele>2773.06</ele>
        <time>2013-10-29T04:30:51Z</time>
      </trkpt>
      <trkpt lat="28.39964" lon="83.67902">
        <ele>2773.54</ele>
        <time>2013-10-29T04:31:03Z</time>
      </trkpt>
      <trkpt lat="28.3997" lon="83.67908">
        <ele>2773.06</ele>
        <time>2013-10-29T04:31:13Z</time>
      </trkpt>
      <trkpt lat="28.39982" lon="83.67918">
        <ele>2771.14</ele>
        <time>2013-10-29T04:31:30Z</time>
      </trkpt>
      <trkpt lat="28.39983" lon="83.67919">
        <ele>2771.62</ele>
        <time>2013-10-29T04:31:31Z</time>
      </trkpt>
      <trkpt lat="28.39991" lon="83.67921">
        <ele>2771.14</ele>
        <time>2013-10-29T04:31:41Z</time>
      </trkpt>
      <trkpt lat="28.40001" lon="83.67922">
        <ele>2770.66</ele>
        <time>2013-10-29T04:31:49Z</time>
      </trkpt>
      <trkpt lat="28.40006" lon="83.67924">
        <ele>2771.14</ele>
        <time>2013-10-29T04:31:53Z</time>
      </trkpt>
      <trkpt lat="28.40011" lon="83.67923">
        <ele>2770.18</ele>
        <time>2013-10-29T04:31:59Z</time>
      </trkpt>
      <trkpt lat="28.40013" lon="83.67923">
        <ele>2771.14</ele>
        <time>2013-10-29T04:32:02Z</time>
      </trkpt>
      <trkpt lat="28.40024" lon="83.67927">
        <ele>2770.18</ele>
        <time>2013-10-29T04:32:12Z</time>
      </trkpt>
      <trkpt lat="28.40028" lon="83.67926">
        <ele>2770.66</ele>
        <time>2013-10-29T04:32:15Z</time>
      </trkpt>
      <trkpt lat="28.40031" lon="83.67928">
        <ele>2770.66</ele>
        <time>2013-10-29T04:32:19Z</time>
      </trkpt>
      <trkpt lat="28.4004" lon="83.67932">
        <ele>2771.14</ele>
        <time>2013-10-29T04:32:32Z</time>
      </trkpt>
      <trkpt lat="28.40041" lon="83.67932">
        <ele>2771.62</ele>
        <time>2013-10-29T04:32:34Z</time>
      </trkpt>
      <trkpt lat="28.40045" lon="83.67937">
        <ele>2771.62</ele>
        <time>2013-10-29T04:32:41Z</time>
      </trkpt>
      <trkpt lat="28.40048" lon="83.6794">
        <ele>2771.62</ele>
        <time>2013-10-29T04:32:45Z</time>
      </trkpt>
      <trkpt lat="28.40061" lon="83.67948">
        <ele>2772.1</ele>
        <time>2013-10-29T04:32:58Z</time>
      </trkpt>
      <trkpt lat="28.40063" lon="83.6795">
        <ele>2772.58</ele>
        <time>2013-10-29T04:33:01Z</time>
      </trkpt>
      <trkpt lat="28.40075" lon="83.67957">
        <ele>2773.54</ele>
        <time>2013-10-29T04:33:13Z</time>
      </trkpt>
      <trkpt lat="28.40078" lon="83.6796">
        <ele>2773.06</ele>
        <time>2013-10-29T04:33:16Z</time>
      </trkpt>
      <trkpt lat="28.40086" lon="83.67964">
        <ele>2773.06</ele>
        <time>2013-10-29T04:33:23Z</time>
      </trkpt>
      <trkpt lat="28.40097" lon="83.67973">
        <ele>2771.14</ele>
        <time>2013-10-29T04:33:37Z</time>
      </trkpt>
      <trkpt lat="28.40101" lon="83.67981">
        <ele>2768.73</ele>
        <time>2013-10-29T04:33:53Z</time>
      </trkpt>
      <trkpt lat="28.4011" lon="83.67993">
        <ele>2768.25</ele>
        <time>2013-10-29T04:34:06Z</time>
      </trkpt>
      <trkpt lat="28.40118" lon="83.68005">
        <ele>2766.81</ele>
        <time>2013-10-29T04:34:22Z</time>
      </trkpt>
      <trkpt lat="28.40125" lon="83.68011">
        <ele>2766.33</ele>
        <time>2013-10-29T04:34:40Z</time>
      </trkpt>
      <trkpt lat="28.40138" lon="83.68017">
        <ele>2767.29</ele>
        <time>2013-10-29T04:34:55Z</time>
      </trkpt>
      <trkpt lat="28.40148" lon="83.68028">
        <ele>2767.29</ele>
        <time>2013-10-29T04:35:08Z</time>
      </trkpt>
      <trkpt lat="28.40155" lon="83.68036">
        <ele>2765.85</ele>
        <time>2013-10-29T04:35:23Z</time>
      </trkpt>
      <trkpt lat="28.40164" lon="83.68042">
        <ele>2768.25</ele>
        <time>2013-10-29T04:35:39Z</time>
      </trkpt>
      <trkpt lat="28.40168" lon="83.68045">
        <ele>2768.73</ele>
        <time>2013-10-29T04:35:55Z</time>
      </trkpt>
      <trkpt lat="28.40179" lon="83.68046">
        <ele>2766.33</ele>
        <time>2013-10-29T04:36:08Z</time>
      </trkpt>
      <trkpt lat="28.40186" lon="83.68049">
        <ele>2765.85</ele>
        <time>2013-10-29T04:36:24Z</time>
      </trkpt>
      <trkpt lat="28.402" lon="83.68054">
        <ele>2764.41</ele>
        <time>2013-10-29T04:36:39Z</time>
      </trkpt>
      <trkpt lat="28.40211" lon="83.68063">
        <ele>2766.33</ele>
        <time>2013-10-29T04:36:52Z</time>
      </trkpt>
      <trkpt lat="28.40223" lon="83.68067">
        <ele>2766.33</ele>
        <time>2013-10-29T04:37:08Z</time>
      </trkpt>
      <trkpt lat="28.40227" lon="83.68078">
        <ele>2763.93</ele>
        <time>2013-10-29T04:37:22Z</time>
      </trkpt>
      <trkpt lat="28.40226" lon="83.68084">
        <ele>2762.49</ele>
        <time>2013-10-29T04:37:26Z</time>
      </trkpt>
      <trkpt lat="28.40232" lon="83.68098">
        <ele>2761.52</ele>
        <time>2013-10-29T04:37:41Z</time>
      </trkpt>
      <trkpt lat="28.4024" lon="83.68108">
        <ele>2762</ele>
        <time>2013-10-29T04:37:56Z</time>
      </trkpt>
      <trkpt lat="28.4024" lon="83.68111">
        <ele>2762</ele>
        <time>2013-10-29T04:38:09Z</time>
      </trkpt>
      <trkpt lat="28.40244" lon="83.6811">
        <ele>2759.12</ele>
        <time>2013-10-29T04:38:30Z</time>
      </trkpt>
      <trkpt lat="28.40245" lon="83.68111">
        <ele>2756.24</ele>
        <time>2013-10-29T04:38:48Z</time>
      </trkpt>
      <trkpt lat="28.40246" lon="83.68111">
        <ele>2754.31</ele>
        <time>2013-10-29T04:39:03Z</time>
      </trkpt>
      <trkpt lat="28.40258" lon="83.68113">
        <ele>2753.83</ele>
        <time>2013-10-29T04:39:18Z</time>
      </trkpt>
      <trkpt lat="28.40263" lon="83.68112">
        <ele>2753.83</ele>
        <time>2013-10-29T04:39:32Z</time>
      </trkpt>
      <trkpt lat="28.40263" lon="83.68111">
        <ele>2756.24</ele>
        <time>2013-10-29T04:39:48Z</time>
      </trkpt>
      <trkpt lat="28.40266" lon="83.68107">
        <ele>2756.72</ele>
        <time>2013-10-29T04:39:54Z</time>
      </trkpt>
      <trkpt lat="28.40264" lon="83.68096">
        <ele>2758.16</ele>
        <time>2013-10-29T04:40:09Z</time>
      </trkpt>
      <trkpt lat="28.40273" lon="83.68097">
        <ele>2761.04</ele>
        <time>2013-10-29T04:40:28Z</time>
      </trkpt>
      <trkpt lat="28.40293" lon="83.68092">
        <ele>2762.97</ele>
        <time>2013-10-29T04:40:42Z</time>
      </trkpt>
      <trkpt lat="28.40296" lon="83.68092">
        <ele>2763.93</ele>
        <time>2013-10-29T04:40:58Z</time>
      </trkpt>
      <trkpt lat="28.40299" lon="83.68083">
        <ele>2765.37</ele>
        <time>2013-10-29T04:41:08Z</time>
      </trkpt>
      <trkpt lat="28.40306" lon="83.68081">
        <ele>2765.85</ele>
        <time>2013-10-29T04:41:19Z</time>
      </trkpt>
      <trkpt lat="28.40312" lon="83.68074">
        <ele>2768.25</ele>
        <time>2013-10-29T04:41:34Z</time>
      </trkpt>
      <trkpt lat="28.40316" lon="83.6807">
        <ele>2768.73</ele>
        <time>2013-10-29T04:41:54Z</time>
      </trkpt>
      <trkpt lat="28.40325" lon="83.68067">
        <ele>2770.18</ele>
        <time>2013-10-29T04:42:08Z</time>
      </trkpt>
      <trkpt lat="28.40337" lon="83.68067">
        <ele>2769.21</ele>
        <time>2013-10-29T04:42:22Z</time>
      </trkpt>
      <trkpt lat="28.40343" lon="83.68073">
        <ele>2768.73</ele>
        <time>2013-10-29T04:42:37Z</time>
      </trkpt>
      <trkpt lat="28.40347" lon="83.68085">
        <ele>2766.81</ele>
        <time>2013-10-29T04:42:49Z</time>
      </trkpt>
      <trkpt lat="28.40347" lon="83.68086">
        <ele>2766.81</ele>
        <time>2013-10-29T04:42:50Z</time>
      </trkpt>
      <trkpt lat="28.40353" lon="83.68103">
        <ele>2765.85</ele>
        <time>2013-10-29T04:43:03Z</time>
      </trkpt>
      <trkpt lat="28.40355" lon="83.68116">
        <ele>2765.85</ele>
        <time>2013-10-29T04:43:16Z</time>
      </trkpt>
      <trkpt lat="28.40356" lon="83.6813">
        <ele>2765.85</ele>
        <time>2013-10-29T04:43:31Z</time>
      </trkpt>
      <trkpt lat="28.4036" lon="83.68134">
        <ele>2766.81</ele>
        <time>2013-10-29T04:43:43Z</time>
      </trkpt>
      <trkpt lat="28.40372" lon="83.68135">
        <ele>2766.33</ele>
        <time>2013-10-29T04:43:54Z</time>
      </trkpt>
      <trkpt lat="28.40381" lon="83.68135">
        <ele>2766.33</ele>
        <time>2013-10-29T04:44:08Z</time>
      </trkpt>
      <trkpt lat="28.40384" lon="83.68136">
        <ele>2766.33</ele>
        <time>2013-10-29T04:44:27Z</time>
      </trkpt>
      <trkpt lat="28.40386" lon="83.68137">
        <ele>2765.37</ele>
        <time>2013-10-29T04:44:45Z</time>
      </trkpt>
      <trkpt lat="28.40399" lon="83.68134">
        <ele>2763.93</ele>
        <time>2013-10-29T04:45:03Z</time>
      </trkpt>
      <trkpt lat="28.40406" lon="83.68125">
        <ele>2766.33</ele>
        <time>2013-10-29T04:45:23Z</time>
      </trkpt>
      <trkpt lat="28.40413" lon="83.68123">
        <ele>2767.77</ele>
        <time>2013-10-29T04:45:45Z</time>
      </trkpt>
      <trkpt lat="28.40421" lon="83.68117">
        <ele>2769.7</ele>
        <time>2013-10-29T04:45:56Z</time>
      </trkpt>
      <trkpt lat="28.40435" lon="83.68109">
        <ele>2773.06</ele>
        <time>2013-10-29T04:46:14Z</time>
      </trkpt>
      <trkpt lat="28.40435" lon="83.68109">
        <ele>2773.54</ele>
        <time>2013-10-29T04:46:17Z</time>
      </trkpt>
      <trkpt lat="28.40436" lon="83.68105">
        <ele>2775.94</ele>
        <time>2013-10-29T04:46:31Z</time>
      </trkpt>
      <trkpt lat="28.40438" lon="83.681">
        <ele>2778.35</ele>
        <time>2013-10-29T04:46:47Z</time>
      </trkpt>
      <trkpt lat="28.40442" lon="83.6809">
        <ele>2781.71</ele>
        <time>2013-10-29T04:47:02Z</time>
      </trkpt>
      <trkpt lat="28.40449" lon="83.68081">
        <ele>2782.67</ele>
        <time>2013-10-29T04:47:16Z</time>
      </trkpt>
      <trkpt lat="28.40455" lon="83.6807">
        <ele>2783.15</ele>
        <time>2013-10-29T04:47:28Z</time>
      </trkpt>
      <trkpt lat="28.40462" lon="83.68057">
        <ele>2785.56</ele>
        <time>2013-10-29T04:47:44Z</time>
      </trkpt>
      <trkpt lat="28.40468" lon="83.68052">
        <ele>2786.52</ele>
        <time>2013-10-29T04:47:52Z</time>
      </trkpt>
      <trkpt lat="28.4047" lon="83.6805">
        <ele>2786.04</ele>
        <time>2013-10-29T04:47:54Z</time>
      </trkpt>
      <trkpt lat="28.40479" lon="83.68044">
        <ele>2787.48</ele>
        <time>2013-10-29T04:48:10Z</time>
      </trkpt>
      <trkpt lat="28.40482" lon="83.68043">
        <ele>2787</ele>
        <time>2013-10-29T04:48:18Z</time>
      </trkpt>
      <trkpt lat="28.40486" lon="83.68042">
        <ele>2787</ele>
        <time>2013-10-29T04:48:21Z</time>
      </trkpt>
      <trkpt lat="28.40495" lon="83.6804">
        <ele>2786.52</ele>
        <time>2013-10-29T04:48:27Z</time>
      </trkpt>
      <trkpt lat="28.4051" lon="83.68032">
        <ele>2785.08</ele>
        <time>2013-10-29T04:48:39Z</time>
      </trkpt>
      <trkpt lat="28.40516" lon="83.6803">
        <ele>2785.08</ele>
        <time>2013-10-29T04:48:43Z</time>
      </trkpt>
      <trkpt lat="28.40518" lon="83.68026">
        <ele>2785.08</ele>
        <time>2013-10-29T04:48:46Z</time>
      </trkpt>
      <trkpt lat="28.40519" lon="83.68023">
        <ele>2785.08</ele>
        <time>2013-10-29T04:48:48Z</time>
      </trkpt>
      <trkpt lat="28.40522" lon="83.68019">
        <ele>2785.56</ele>
        <time>2013-10-29T04:48:52Z</time>
      </trkpt>
      <trkpt lat="28.40529" lon="83.68009">
        <ele>2786.52</ele>
        <time>2013-10-29T04:49:01Z</time>
      </trkpt>
      <trkpt lat="28.40536" lon="83.68002">
        <ele>2787</ele>
        <time>2013-10-29T04:49:08Z</time>
      </trkpt>
      <trkpt lat="28.40537" lon="83.68">
        <ele>2787</ele>
        <time>2013-10-29T04:49:10Z</time>
      </trkpt>
      <trkpt lat="28.40542" lon="83.67995">
        <ele>2787.48</ele>
        <time>2013-10-29T04:49:14Z</time>
      </trkpt>
      <trkpt lat="28.40543" lon="83.67992">
        <ele>2787</ele>
        <time>2013-10-29T04:49:17Z</time>
      </trkpt>
      <trkpt lat="28.40548" lon="83.6799">
        <ele>2786.52</ele>
        <time>2013-10-29T04:49:21Z</time>
      </trkpt>
      <trkpt lat="28.40555" lon="83.67988">
        <ele>2786.52</ele>
        <time>2013-10-29T04:49:27Z</time>
      </trkpt>
      <trkpt lat="28.40561" lon="83.67989">
        <ele>2786.52</ele>
        <time>2013-10-29T04:49:34Z</time>
      </trkpt>
      <trkpt lat="28.40574" lon="83.67993">
        <ele>2785.08</ele>
        <time>2013-10-29T04:49:46Z</time>
      </trkpt>
      <trkpt lat="28.40583" lon="83.67996">
        <ele>2785.56</ele>
        <time>2013-10-29T04:50:00Z</time>
      </trkpt>
      <trkpt lat="28.40593" lon="83.67995">
        <ele>2783.63</ele>
        <time>2013-10-29T04:50:11Z</time>
      </trkpt>
      <trkpt lat="28.40598" lon="83.67992">
        <ele>2783.63</ele>
        <time>2013-10-29T04:50:16Z</time>
      </trkpt>
      <trkpt lat="28.40605" lon="83.67981">
        <ele>2782.19</ele>
        <time>2013-10-29T04:50:29Z</time>
      </trkpt>
      <trkpt lat="28.40606" lon="83.67973">
        <ele>2782.19</ele>
        <time>2013-10-29T04:50:38Z</time>
      </trkpt>
      <trkpt lat="28.40607" lon="83.67969">
        <ele>2782.67</ele>
        <time>2013-10-29T04:50:41Z</time>
      </trkpt>
      <trkpt lat="28.40608" lon="83.67965">
        <ele>2782.19</ele>
        <time>2013-10-29T04:50:44Z</time>
      </trkpt>
      <trkpt lat="28.40608" lon="83.67963">
        <ele>2783.15</ele>
        <time>2013-10-29T04:50:46Z</time>
      </trkpt>
      <trkpt lat="28.40612" lon="83.67954">
        <ele>2783.15</ele>
        <time>2013-10-29T04:50:52Z</time>
      </trkpt>
      <trkpt lat="28.40618" lon="83.67942">
        <ele>2783.15</ele>
        <time>2013-10-29T04:51:00Z</time>
      </trkpt>
      <trkpt lat="28.40631" lon="83.67932">
        <ele>2783.15</ele>
        <time>2013-10-29T04:51:13Z</time>
      </trkpt>
      <trkpt lat="28.40637" lon="83.67927">
        <ele>2782.67</ele>
        <time>2013-10-29T04:51:20Z</time>
      </trkpt>
      <trkpt lat="28.4065" lon="83.67921">
        <ele>2781.23</ele>
        <time>2013-10-29T04:51:32Z</time>
      </trkpt>
      <trkpt lat="28.40662" lon="83.67915">
        <ele>2779.31</ele>
        <time>2013-10-29T04:51:45Z</time>
      </trkpt>
      <trkpt lat="28.40672" lon="83.6791">
        <ele>2776.91</ele>
        <time>2013-10-29T04:51:59Z</time>
      </trkpt>
      <trkpt lat="28.40675" lon="83.67905">
        <ele>2773.54</ele>
        <time>2013-10-29T04:52:13Z</time>
      </trkpt>
      <trkpt lat="28.40679" lon="83.67903">
        <ele>2771.62</ele>
        <time>2013-10-29T04:52:31Z</time>
      </trkpt>
      <trkpt lat="28.40681" lon="83.67901">
        <ele>2772.1</ele>
        <time>2013-10-29T04:52:56Z</time>
      </trkpt>
      <trkpt lat="28.40684" lon="83.679">
        <ele>2772.58</ele>
        <time>2013-10-29T04:53:16Z</time>
      </trkpt>
      <trkpt lat="28.40686" lon="83.679">
        <ele>2771.62</ele>
        <time>2013-10-29T04:53:43Z</time>
      </trkpt>
      <trkpt lat="28.40686" lon="83.679">
        <ele>2771.62</ele>
        <time>2013-10-29T04:54:05Z</time>
      </trkpt>
      <trkpt lat="28.40681" lon="83.67902">
        <ele>2773.06</ele>
        <time>2013-10-29T04:54:21Z</time>
      </trkpt>
      <trkpt lat="28.40675" lon="83.67902">
        <ele>2773.54</ele>
        <time>2013-10-29T04:54:47Z</time>
      </trkpt>
      <trkpt lat="28.40678" lon="83.67906">
        <ele>2773.54</ele>
        <time>2013-10-29T04:55:10Z</time>
      </trkpt>
      <trkpt lat="28.40681" lon="83.67903">
        <ele>2772.1</ele>
        <time>2013-10-29T04:55:24Z</time>
      </trkpt>
      <trkpt lat="28.40681" lon="83.679">
        <ele>2772.58</ele>
        <time>2013-10-29T04:55:52Z</time>
      </trkpt>
      <trkpt lat="28.40681" lon="83.67901">
        <ele>2772.1</ele>
        <time>2013-10-29T04:56:23Z</time>
      </trkpt>
      <trkpt lat="28.40681" lon="83.67901">
        <ele>2772.1</ele>
        <time>2013-10-29T04:56:52Z</time>
      </trkpt>
      <trkpt lat="28.40683" lon="83.67897">
        <ele>2772.1</ele>
        <time>2013-10-29T04:57:20Z</time>
      </trkpt>
      <trkpt lat="28.4068" lon="83.67899">
        <ele>2772.58</ele>
        <time>2013-10-29T04:57:50Z</time>
      </trkpt>
      <trkpt lat="28.40679" lon="83.67897">
        <ele>2773.06</ele>
        <time>2013-10-29T04:58:13Z</time>
      </trkpt>
      <trkpt lat="28.40682" lon="83.67894">
        <ele>2772.1</ele>
        <time>2013-10-29T04:58:40Z</time>
      </trkpt>
      <trkpt lat="28.40683" lon="83.67894">
        <ele>2772.58</ele>
        <time>2013-10-29T04:58:54Z</time>
      </trkpt>
      <trkpt lat="28.40683" lon="83.67892">
        <ele>2772.58</ele>
        <time>2013-10-29T04:59:23Z</time>
      </trkpt>
      <trkpt lat="28.40683" lon="83.67892">
        <ele>2773.06</ele>
        <time>2013-10-29T04:59:53Z</time>
      </trkpt>
      <trkpt lat="28.40683" lon="83.67891">
        <ele>2772.58</ele>
        <time>2013-10-29T05:00:15Z</time>
      </trkpt>
      <trkpt lat="28.40691" lon="83.67897">
        <ele>2770.66</ele>
        <time>2013-10-29T05:00:32Z</time>
      </trkpt>
      <trkpt lat="28.40701" lon="83.67893">
        <ele>2767.77</ele>
        <time>2013-10-29T05:00:48Z</time>
      </trkpt>
      <trkpt lat="28.40707" lon="83.67891">
        <ele>2766.33</ele>
        <time>2013-10-29T05:01:03Z</time>
      </trkpt>
      <trkpt lat="28.40706" lon="83.67882">
        <ele>2763.45</ele>
        <time>2013-10-29T05:01:21Z</time>
      </trkpt>
      <trkpt lat="28.40705" lon="83.67872">
        <ele>2761.52</ele>
        <time>2013-10-29T05:01:35Z</time>
      </trkpt>
      <trkpt lat="28.40706" lon="83.67864">
        <ele>2759.12</ele>
        <time>2013-10-29T05:01:52Z</time>
      </trkpt>
      <trkpt lat="28.40705" lon="83.67852">
        <ele>2756.72</ele>
        <time>2013-10-29T05:02:09Z</time>
      </trkpt>
      <trkpt lat="28.40704" lon="83.67831">
        <ele>2755.28</ele>
        <time>2013-10-29T05:02:24Z</time>
      </trkpt>
      <trkpt lat="28.40713" lon="83.67825">
        <ele>2755.28</ele>
        <time>2013-10-29T05:02:40Z</time>
      </trkpt>
      <trkpt lat="28.40721" lon="83.67819">
        <ele>2755.28</ele>
        <time>2013-10-29T05:02:58Z</time>
      </trkpt>
      <trkpt lat="28.40726" lon="83.67804">
        <ele>2751.91</ele>
        <time>2013-10-29T05:03:12Z</time>
      </trkpt>
      <trkpt lat="28.40729" lon="83.67789">
        <ele>2752.87</ele>
        <time>2013-10-29T05:03:28Z</time>
      </trkpt>
      <trkpt lat="28.40732" lon="83.67774">
        <ele>2753.35</ele>
        <time>2013-10-29T05:03:43Z</time>
      </trkpt>
      <trkpt lat="28.40743" lon="83.67766">
        <ele>2753.35</ele>
        <time>2013-10-29T05:03:59Z</time>
      </trkpt>
      <trkpt lat="28.40748" lon="83.67762">
        <ele>2752.87</ele>
        <time>2013-10-29T05:04:10Z</time>
      </trkpt>
      <trkpt lat="28.40753" lon="83.67758">
        <ele>2752.39</ele>
        <time>2013-10-29T05:04:24Z</time>
      </trkpt>
      <trkpt lat="28.4076" lon="83.67743">
        <ele>2749.99</ele>
        <time>2013-10-29T05:04:40Z</time>
      </trkpt>
      <trkpt lat="28.4077" lon="83.67727">
        <ele>2747.1</ele>
        <time>2013-10-29T05:04:55Z</time>
      </trkpt>
      <trkpt lat="28.40777" lon="83.67712">
        <ele>2749.03</ele>
        <time>2013-10-29T05:05:11Z</time>
      </trkpt>
      <trkpt lat="28.40788" lon="83.67706">
        <ele>2748.55</ele>
        <time>2013-10-29T05:05:25Z</time>
      </trkpt>
      <trkpt lat="28.408" lon="83.67694">
        <ele>2747.1</ele>
        <time>2013-10-29T05:05:40Z</time>
      </trkpt>
      <trkpt lat="28.40807" lon="83.67692">
        <ele>2745.66</ele>
        <time>2013-10-29T05:05:48Z</time>
      </trkpt>
      <trkpt lat="28.4082" lon="83.67689">
        <ele>2743.74</ele>
        <time>2013-10-29T05:06:04Z</time>
      </trkpt>
      <trkpt lat="28.40829" lon="83.6769">
        <ele>2741.82</ele>
        <time>2013-10-29T05:06:18Z</time>
      </trkpt>
      <trkpt lat="28.4085" lon="83.67684">
        <ele>2743.26</ele>
        <time>2013-10-29T05:06:33Z</time>
      </trkpt>
      <trkpt lat="28.40868" lon="83.67679">
        <ele>2743.74</ele>
        <time>2013-10-29T05:06:49Z</time>
      </trkpt>
      <trkpt lat="28.40881" lon="83.67687">
        <ele>2741.82</ele>
        <time>2013-10-29T05:07:05Z</time>
      </trkpt>
      <trkpt lat="28.40892" lon="83.67689">
        <ele>2738.45</ele>
        <time>2013-10-29T05:07:19Z</time>
      </trkpt>
      <trkpt lat="28.409" lon="83.67686">
        <ele>2737.01</ele>
        <time>2013-10-29T05:07:36Z</time>
      </trkpt>
      <trkpt lat="28.40914" lon="83.67688">
        <ele>2737.97</ele>
        <time>2013-10-29T05:07:49Z</time>
      </trkpt>
      <trkpt lat="28.40921" lon="83.67686">
        <ele>2738.45</ele>
        <time>2013-10-29T05:07:53Z</time>
      </trkpt>
      <trkpt lat="28.40939" lon="83.67673">
        <ele>2738.45</ele>
        <time>2013-10-29T05:08:07Z</time>
      </trkpt>
      <trkpt lat="28.40948" lon="83.67674">
        <ele>2739.89</ele>
        <time>2013-10-29T05:08:20Z</time>
      </trkpt>
      <trkpt lat="28.40956" lon="83.67675">
        <ele>2738.93</ele>
        <time>2013-10-29T05:08:35Z</time>
      </trkpt>
      <trkpt lat="28.40967" lon="83.67674">
        <ele>2737.97</ele>
        <time>2013-10-29T05:08:56Z</time>
      </trkpt>
      <trkpt lat="28.40971" lon="83.67657">
        <ele>2737.49</ele>
        <time>2013-10-29T05:09:13Z</time>
      </trkpt>
      <trkpt lat="28.40984" lon="83.67656">
        <ele>2735.57</ele>
        <time>2013-10-29T05:09:28Z</time>
      </trkpt>
      <trkpt lat="28.40997" lon="83.67656">
        <ele>2733.17</ele>
        <time>2013-10-29T05:09:44Z</time>
      </trkpt>
      <trkpt lat="28.41007" lon="83.67655">
        <ele>2731.72</ele>
        <time>2013-10-29T05:10:01Z</time>
      </trkpt>
      <trkpt lat="28.41026" lon="83.67644">
        <ele>2728.84</ele>
        <time>2013-10-29T05:10:16Z</time>
      </trkpt>
      <trkpt lat="28.41032" lon="83.67637">
        <ele>2728.36</ele>
        <time>2013-10-29T05:10:26Z</time>
      </trkpt>
      <trkpt lat="28.41044" lon="83.67627">
        <ele>2727.88</ele>
        <time>2013-10-29T05:10:42Z</time>
      </trkpt>
      <trkpt lat="28.41048" lon="83.67626">
        <ele>2729.8</ele>
        <time>2013-10-29T05:10:56Z</time>
      </trkpt>
      <trkpt lat="28.41055" lon="83.67631">
        <ele>2731.72</ele>
        <time>2013-10-29T05:11:13Z</time>
      </trkpt>
      <trkpt lat="28.41063" lon="83.67641">
        <ele>2734.13</ele>
        <time>2013-10-29T05:11:32Z</time>
      </trkpt>
      <trkpt lat="28.41072" lon="83.67647">
        <ele>2736.53</ele>
        <time>2013-10-29T05:11:48Z</time>
      </trkpt>
      <trkpt lat="28.41084" lon="83.67651">
        <ele>2739.89</ele>
        <time>2013-10-29T05:12:06Z</time>
      </trkpt>
      <trkpt lat="28.41092" lon="83.67653">
        <ele>2740.86</ele>
        <time>2013-10-29T05:12:16Z</time>
      </trkpt>
      <trkpt lat="28.41101" lon="83.67656">
        <ele>2743.74</ele>
        <time>2013-10-29T05:12:31Z</time>
      </trkpt>
      <trkpt lat="28.41104" lon="83.67661">
        <ele>2744.22</ele>
        <time>2013-10-29T05:12:42Z</time>
      </trkpt>
      <trkpt lat="28.41106" lon="83.67656">
        <ele>2744.7</ele>
        <time>2013-10-29T05:12:55Z</time>
      </trkpt>
      <trkpt lat="28.41105" lon="83.67656">
        <ele>2744.22</ele>
        <time>2013-10-29T05:13:14Z</time>
      </trkpt>
      <trkpt lat="28.41105" lon="83.67655">
        <ele>2744.22</ele>
        <time>2013-10-29T05:13:37Z</time>
      </trkpt>
      <trkpt lat="28.41105" lon="83.67657">
        <ele>2744.7</ele>
        <time>2013-10-29T05:14:03Z</time>
      </trkpt>
      <trkpt lat="28.41106" lon="83.67658">
        <ele>2744.7</ele>
        <time>2013-10-29T05:14:30Z</time>
      </trkpt>
      <trkpt lat="28.41106" lon="83.67658">
        <ele>2744.7</ele>
        <time>2013-10-29T05:14:44Z</time>
      </trkpt>
      <trkpt lat="28.41107" lon="83.67659">
        <ele>2744.7</ele>
        <time>2013-10-29T05:15:08Z</time>
      </trkpt>
      <trkpt lat="28.41106" lon="83.6766">
        <ele>2744.22</ele>
        <time>2013-10-29T05:15:34Z</time>
      </trkpt>
      <trkpt lat="28.41106" lon="83.67661">
        <ele>2744.22</ele>
        <time>2013-10-29T05:16:03Z</time>
      </trkpt>
      <trkpt lat="28.41107" lon="83.67661">
        <ele>2744.22</ele>
        <time>2013-10-29T05:16:29Z</time>
      </trkpt>
      <trkpt lat="28.41107" lon="83.6766">
        <ele>2744.22</ele>
        <time>2013-10-29T05:16:55Z</time>
      </trkpt>
      <trkpt lat="28.41107" lon="83.67659">
        <ele>2743.74</ele>
        <time>2013-10-29T05:17:21Z</time>
      </trkpt>
      <trkpt lat="28.41107" lon="83.67659">
        <ele>2743.74</ele>
        <time>2013-10-29T05:17:46Z</time>
      </trkpt>
      <trkpt lat="28.41107" lon="83.67658">
        <ele>2743.74</ele>
        <time>2013-10-29T05:18:07Z</time>
      </trkpt>
      <trkpt lat="28.41107" lon="83.67656">
        <ele>2743.74</ele>
        <time>2013-10-29T05:18:40Z</time>
      </trkpt>
      <trkpt lat="28.41108" lon="83.67656">
        <ele>2743.74</ele>
        <time>2013-10-29T05:19:08Z</time>
      </trkpt>
      <trkpt lat="28.4111" lon="83.67656">
        <ele>2743.26</ele>
        <time>2013-10-29T05:19:40Z</time>
      </trkpt>
      <trkpt lat="28.41109" lon="83.67657">
        <ele>2743.74</ele>
        <time>2013-10-29T05:20:06Z</time>
      </trkpt>
      <trkpt lat="28.41109" lon="83.67657">
        <ele>2743.26</ele>
        <time>2013-10-29T05:20:30Z</time>
      </trkpt>
      <trkpt lat="28.4111" lon="83.67657">
        <ele>2743.26</ele>
        <time>2013-10-29T05:21:04Z</time>
      </trkpt>
      <trkpt lat="28.4111" lon="83.67656">
        <ele>2743.74</ele>
        <time>2013-10-29T05:21:34Z</time>
      </trkpt>
      <trkpt lat="28.4111" lon="83.67656">
        <ele>2743.74</ele>
        <time>2013-10-29T05:22:07Z</time>
      </trkpt>
      <trkpt lat="28.41111" lon="83.67656">
        <ele>2743.74</ele>
        <time>2013-10-29T05:22:47Z</time>
      </trkpt>
      <trkpt lat="28.41111" lon="83.67657">
        <ele>2743.74</ele>
        <time>2013-10-29T05:23:15Z</time>
      </trkpt>
      <trkpt lat="28.41111" lon="83.67657">
        <ele>2743.74</ele>
        <time>2013-10-29T05:23:48Z</time>
      </trkpt>
      <trkpt lat="28.4111" lon="83.67658">
        <ele>2743.74</ele>
        <time>2013-10-29T05:24:09Z</time>
      </trkpt>
      <trkpt lat="28.41108" lon="83.6766">
        <ele>2743.26</ele>
        <time>2013-10-29T05:24:29Z</time>
      </trkpt>
      <trkpt lat="28.41107" lon="83.67661">
        <ele>2743.26</ele>
        <time>2013-10-29T05:24:57Z</time>
      </trkpt>
      <trkpt lat="28.41107" lon="83.6766">
        <ele>2743.26</ele>
        <time>2013-10-29T05:25:20Z</time>
      </trkpt>
      <trkpt lat="28.41108" lon="83.6766">
        <ele>2743.26</ele>
        <time>2013-10-29T05:25:40Z</time>
      </trkpt>
      <trkpt lat="28.41108" lon="83.67659">
        <ele>2743.74</ele>
        <time>2013-10-29T05:26:07Z</time>
      </trkpt>
      <trkpt lat="28.41109" lon="83.67659">
        <ele>2743.26</ele>
        <time>2013-10-29T05:26:38Z</time>
      </trkpt>
      <trkpt lat="28.41109" lon="83.67659">
        <ele>2742.78</ele>
        <time>2013-10-29T05:27:03Z</time>
      </trkpt>
      <trkpt lat="28.41109" lon="83.6766">
        <ele>2742.78</ele>
        <time>2013-10-29T05:27:22Z</time>
      </trkpt>
      <trkpt lat="28.41108" lon="83.67659">
        <ele>2743.26</ele>
        <time>2013-10-29T05:27:42Z</time>
      </trkpt>
      <trkpt lat="28.41108" lon="83.67659">
        <ele>2743.26</ele>
        <time>2013-10-29T05:28:04Z</time>
      </trkpt>
      <trkpt lat="28.41111" lon="83.67659">
        <ele>2741.34</ele>
        <time>2013-10-29T05:28:20Z</time>
      </trkpt>
      <trkpt lat="28.4112" lon="83.6766">
        <ele>2738.45</ele>
        <time>2013-10-29T05:28:37Z</time>
      </trkpt>
      <trkpt lat="28.41121" lon="83.6766">
        <ele>2735.57</ele>
        <time>2013-10-29T05:28:53Z</time>
      </trkpt>
      <trkpt lat="28.41138" lon="83.67668">
        <ele>2732.68</ele>
        <time>2013-10-29T05:29:10Z</time>
      </trkpt>
      <trkpt lat="28.41143" lon="83.67678">
        <ele>2730.28</ele>
        <time>2013-10-29T05:29:25Z</time>
      </trkpt>
      <trkpt lat="28.41145" lon="83.67676">
        <ele>2726.92</ele>
        <time>2013-10-29T05:29:43Z</time>
      </trkpt>
      <trkpt lat="28.41153" lon="83.67674">
        <ele>2724.03</ele>
        <time>2013-10-29T05:29:58Z</time>
      </trkpt>
      <trkpt lat="28.41157" lon="83.67674">
        <ele>2720.67</ele>
        <time>2013-10-29T05:30:15Z</time>
      </trkpt>
      <trkpt lat="28.4116" lon="83.67674">
        <ele>2717.78</ele>
        <time>2013-10-29T05:30:31Z</time>
      </trkpt>
      <trkpt lat="28.41167" lon="83.67678">
        <ele>2715.86</ele>
        <time>2013-10-29T05:30:44Z</time>
      </trkpt>
      <trkpt lat="28.41177" lon="83.67688">
        <ele>2712.5</ele>
        <time>2013-10-29T05:31:01Z</time>
      </trkpt>
      <trkpt lat="28.41183" lon="83.67693">
        <ele>2709.61</ele>
        <time>2013-10-29T05:31:20Z</time>
      </trkpt>
      <trkpt lat="28.41184" lon="83.67698">
        <ele>2707.21</ele>
        <time>2013-10-29T05:31:32Z</time>
      </trkpt>
      <trkpt lat="28.41202" lon="83.67712">
        <ele>2705.29</ele>
        <time>2013-10-29T05:31:48Z</time>
      </trkpt>
      <trkpt lat="28.41204" lon="83.67702">
        <ele>2702.88</ele>
        <time>2013-10-29T05:32:05Z</time>
      </trkpt>
      <trkpt lat="28.41207" lon="83.67699">
        <ele>2700.96</ele>
        <time>2013-10-29T05:32:20Z</time>
      </trkpt>
      <trkpt lat="28.41213" lon="83.67693">
        <ele>2697.6</ele>
        <time>2013-10-29T05:32:37Z</time>
      </trkpt>
      <trkpt lat="28.41215" lon="83.67692">
        <ele>2695.19</ele>
        <time>2013-10-29T05:32:57Z</time>
      </trkpt>
      <trkpt lat="28.41217" lon="83.67693">
        <ele>2692.31</ele>
        <time>2013-10-29T05:33:16Z</time>
      </trkpt>
      <trkpt lat="28.41224" lon="83.67696">
        <ele>2690.39</ele>
        <time>2013-10-29T05:33:34Z</time>
      </trkpt>
      <trkpt lat="28.4124" lon="83.67695">
        <ele>2688.46</ele>
        <time>2013-10-29T05:33:54Z</time>
      </trkpt>
      <trkpt lat="28.41242" lon="83.67694">
        <ele>2685.1</ele>
        <time>2013-10-29T05:34:09Z</time>
      </trkpt>
      <trkpt lat="28.41255" lon="83.67703">
        <ele>2683.18</ele>
        <time>2013-10-29T05:34:26Z</time>
      </trkpt>
      <trkpt lat="28.41257" lon="83.67708">
        <ele>2680.29</ele>
        <time>2013-10-29T05:34:42Z</time>
      </trkpt>
      <trkpt lat="28.41269" lon="83.67722">
        <ele>2677.89</ele>
        <time>2013-10-29T05:34:58Z</time>
      </trkpt>
      <trkpt lat="28.41269" lon="83.67726">
        <ele>2675.01</ele>
        <time>2013-10-29T05:35:18Z</time>
      </trkpt>
      <trkpt lat="28.41272" lon="83.67731">
        <ele>2672.12</ele>
        <time>2013-10-29T05:35:35Z</time>
      </trkpt>
      <trkpt lat="28.41278" lon="83.67739">
        <ele>2669.24</ele>
        <time>2013-10-29T05:35:51Z</time>
      </trkpt>
      <trkpt lat="28.41287" lon="83.67745">
        <ele>2666.35</ele>
        <time>2013-10-29T05:36:10Z</time>
      </trkpt>
      <trkpt lat="28.41296" lon="83.67751">
        <ele>2663.95</ele>
        <time>2013-10-29T05:36:28Z</time>
      </trkpt>
      <trkpt lat="28.41302" lon="83.67759">
        <ele>2662.03</ele>
        <time>2013-10-29T05:36:43Z</time>
      </trkpt>
      <trkpt lat="28.41302" lon="83.67774">
        <ele>2659.62</ele>
        <time>2013-10-29T05:36:58Z</time>
      </trkpt>
      <trkpt lat="28.4131" lon="83.67781">
        <ele>2657.22</ele>
        <time>2013-10-29T05:37:14Z</time>
      </trkpt>
      <trkpt lat="28.41319" lon="83.67786">
        <ele>2656.74</ele>
        <time>2013-10-29T05:37:22Z</time>
      </trkpt>
      <trkpt lat="28.41326" lon="83.67799">
        <ele>2657.7</ele>
        <time>2013-10-29T05:37:37Z</time>
      </trkpt>
      <trkpt lat="28.41329" lon="83.67806">
        <ele>2658.66</ele>
        <time>2013-10-29T05:37:45Z</time>
      </trkpt>
      <trkpt lat="28.41332" lon="83.67807">
        <ele>2659.14</ele>
        <time>2013-10-29T05:37:48Z</time>
      </trkpt>
      <trkpt lat="28.41343" lon="83.67817">
        <ele>2661.07</ele>
        <time>2013-10-29T05:38:07Z</time>
      </trkpt>
      <trkpt lat="28.41349" lon="83.67832">
        <ele>2659.62</ele>
        <time>2013-10-29T05:38:27Z</time>
      </trkpt>
      <trkpt lat="28.4135" lon="83.67848">
        <ele>2658.18</ele>
        <time>2013-10-29T05:38:43Z</time>
      </trkpt>
      <trkpt lat="28.4135" lon="83.6785">
        <ele>2658.18</ele>
        <time>2013-10-29T05:38:44Z</time>
      </trkpt>
      <trkpt lat="28.41353" lon="83.67864">
        <ele>2659.14</ele>
        <time>2013-10-29T05:38:58Z</time>
      </trkpt>
      <trkpt lat="28.41354" lon="83.67865">
        <ele>2659.62</ele>
        <time>2013-10-29T05:39:00Z</time>
      </trkpt>
      <trkpt lat="28.41359" lon="83.67872">
        <ele>2659.62</ele>
        <time>2013-10-29T05:39:06Z</time>
      </trkpt>
      <trkpt lat="28.41366" lon="83.67884">
        <ele>2660.59</ele>
        <time>2013-10-29T05:39:19Z</time>
      </trkpt>
      <trkpt lat="28.4137" lon="83.67886">
        <ele>2660.59</ele>
        <time>2013-10-29T05:39:25Z</time>
      </trkpt>
      <trkpt lat="28.4138" lon="83.67901">
        <ele>2660.11</ele>
        <time>2013-10-29T05:39:40Z</time>
      </trkpt>
      <trkpt lat="28.41388" lon="83.67909">
        <ele>2658.66</ele>
        <time>2013-10-29T05:39:52Z</time>
      </trkpt>
      <trkpt lat="28.41393" lon="83.67917">
        <ele>2656.26</ele>
        <time>2013-10-29T05:40:07Z</time>
      </trkpt>
      <trkpt lat="28.41404" lon="83.67927">
        <ele>2653.38</ele>
        <time>2013-10-29T05:40:22Z</time>
      </trkpt>
      <trkpt lat="28.41408" lon="83.67929">
        <ele>2650.49</ele>
        <time>2013-10-29T05:40:38Z</time>
      </trkpt>
      <trkpt lat="28.41417" lon="83.67935">
        <ele>2647.61</ele>
        <time>2013-10-29T05:40:54Z</time>
      </trkpt>
      <trkpt lat="28.41423" lon="83.67928">
        <ele>2645.21</ele>
        <time>2013-10-29T05:41:11Z</time>
      </trkpt>
      <trkpt lat="28.41441" lon="83.6792">
        <ele>2642.8</ele>
        <time>2013-10-29T05:41:27Z</time>
      </trkpt>
      <trkpt lat="28.4145" lon="83.67917">
        <ele>2641.84</ele>
        <time>2013-10-29T05:41:35Z</time>
      </trkpt>
      <trkpt lat="28.41457" lon="83.67918">
        <ele>2640.4</ele>
        <time>2013-10-29T05:41:40Z</time>
      </trkpt>
      <trkpt lat="28.41467" lon="83.67917">
        <ele>2639.44</ele>
        <time>2013-10-29T05:41:53Z</time>
      </trkpt>
      <trkpt lat="28.41474" lon="83.6792">
        <ele>2637.51</ele>
        <time>2013-10-29T05:42:11Z</time>
      </trkpt>
      <trkpt lat="28.41482" lon="83.67923">
        <ele>2635.11</ele>
        <time>2013-10-29T05:42:21Z</time>
      </trkpt>
      <trkpt lat="28.41486" lon="83.67927">
        <ele>2633.67</ele>
        <time>2013-10-29T05:42:26Z</time>
      </trkpt>
      <trkpt lat="28.41498" lon="83.67924">
        <ele>2633.19</ele>
        <time>2013-10-29T05:42:38Z</time>
      </trkpt>
      <trkpt lat="28.41505" lon="83.67924">
        <ele>2633.19</ele>
        <time>2013-10-29T05:42:43Z</time>
      </trkpt>
      <trkpt lat="28.41513" lon="83.67927">
        <ele>2632.71</ele>
        <time>2013-10-29T05:42:55Z</time>
      </trkpt>
      <trkpt lat="28.41513" lon="83.67927">
        <ele>2632.71</ele>
        <time>2013-10-29T05:42:57Z</time>
      </trkpt>
      <trkpt lat="28.41523" lon="83.67927">
        <ele>2633.19</ele>
        <time>2013-10-29T05:43:07Z</time>
      </trkpt>
      <trkpt lat="28.41534" lon="83.67932">
        <ele>2631.75</ele>
        <time>2013-10-29T05:43:18Z</time>
      </trkpt>
      <trkpt lat="28.41547" lon="83.67934">
        <ele>2629.34</ele>
        <time>2013-10-29T05:43:31Z</time>
      </trkpt>
      <trkpt lat="28.41552" lon="83.67937">
        <ele>2627.9</ele>
        <time>2013-10-29T05:43:37Z</time>
      </trkpt>
      <trkpt lat="28.41557" lon="83.67947">
        <ele>2625.98</ele>
        <time>2013-10-29T05:43:46Z</time>
      </trkpt>
      <trkpt lat="28.41557" lon="83.67954">
        <ele>2625.02</ele>
        <time>2013-10-29T05:43:51Z</time>
      </trkpt>
      <trkpt lat="28.41558" lon="83.67956">
        <ele>2625.02</ele>
        <time>2013-10-29T05:43:53Z</time>
      </trkpt>
      <trkpt lat="28.4156" lon="83.67959">
        <ele>2624.06</ele>
        <time>2013-10-29T05:43:56Z</time>
      </trkpt>
      <trkpt lat="28.41561" lon="83.67963">
        <ele>2624.54</ele>
        <time>2013-10-29T05:43:59Z</time>
      </trkpt>
      <trkpt lat="28.41562" lon="83.67965">
        <ele>2624.06</ele>
        <time>2013-10-29T05:44:01Z</time>
      </trkpt>
      <trkpt lat="28.41563" lon="83.67967">
        <ele>2623.58</ele>
        <time>2013-10-29T05:44:04Z</time>
      </trkpt>
      <trkpt lat="28.41565" lon="83.67971">
        <ele>2623.09</ele>
        <time>2013-10-29T05:44:08Z</time>
      </trkpt>
      <trkpt lat="28.41568" lon="83.67975">
        <ele>2622.13</ele>
        <time>2013-10-29T05:44:13Z</time>
      </trkpt>
      <trkpt lat="28.41574" lon="83.67986">
        <ele>2619.25</ele>
        <time>2013-10-29T05:44:28Z</time>
      </trkpt>
      <trkpt lat="28.4158" lon="83.67996">
        <ele>2618.29</ele>
        <time>2013-10-29T05:44:39Z</time>
      </trkpt>
      <trkpt lat="28.41586" lon="83.68005">
        <ele>2620.21</ele>
        <time>2013-10-29T05:44:49Z</time>
      </trkpt>
      <trkpt lat="28.4159" lon="83.68013">
        <ele>2619.25</ele>
        <time>2013-10-29T05:44:55Z</time>
      </trkpt>
      <trkpt lat="28.41599" lon="83.68023">
        <ele>2619.25</ele>
        <time>2013-10-29T05:45:04Z</time>
      </trkpt>
      <trkpt lat="28.416" lon="83.68027">
        <ele>2618.29</ele>
        <time>2013-10-29T05:45:07Z</time>
      </trkpt>
      <trkpt lat="28.41604" lon="83.68034">
        <ele>2618.77</ele>
        <time>2013-10-29T05:45:15Z</time>
      </trkpt>
      <trkpt lat="28.41606" lon="83.68043">
        <ele>2619.25</ele>
        <time>2013-10-29T05:45:23Z</time>
      </trkpt>
      <trkpt lat="28.41609" lon="83.68052">
        <ele>2618.29</ele>
        <time>2013-10-29T05:45:31Z</time>
      </trkpt>
      <trkpt lat="28.41612" lon="83.68058">
        <ele>2616.85</ele>
        <time>2013-10-29T05:45:37Z</time>
      </trkpt>
      <trkpt lat="28.41619" lon="83.6807">
        <ele>2614.44</ele>
        <time>2013-10-29T05:45:49Z</time>
      </trkpt>
      <trkpt lat="28.4162" lon="83.68072">
        <ele>2613.96</ele>
        <time>2013-10-29T05:45:51Z</time>
      </trkpt>
      <trkpt lat="28.41623" lon="83.68077">
        <ele>2612.52</ele>
        <time>2013-10-29T05:45:57Z</time>
      </trkpt>
      <trkpt lat="28.41625" lon="83.68079">
        <ele>2612.04</ele>
        <time>2013-10-29T05:46:11Z</time>
      </trkpt>
      <trkpt lat="28.41625" lon="83.68079">
        <ele>2608.19</ele>
        <time>2013-10-29T05:46:14Z</time>
      </trkpt>
      <trkpt lat="28.41625" lon="83.68079">
        <ele>2613.96</ele>
        <time>2013-10-29T05:46:15Z</time>
      </trkpt>
      <trkpt lat="28.41625" lon="83.68079">
        <ele>2610.6</ele>
        <time>2013-10-29T05:46:17Z</time>
      </trkpt>
      <trkpt lat="28.41624" lon="83.68078">
        <ele>2610.6</ele>
        <time>2013-10-29T05:46:41Z</time>
      </trkpt>
      <trkpt lat="28.41626" lon="83.68078">
        <ele>2610.6</ele>
        <time>2013-10-29T05:47:03Z</time>
      </trkpt>
      <trkpt lat="28.41625" lon="83.68077">
        <ele>2610.6</ele>
        <time>2013-10-29T05:47:32Z</time>
      </trkpt>
      <trkpt lat="28.41624" lon="83.68077">
        <ele>2610.12</ele>
        <time>2013-10-29T05:48:00Z</time>
      </trkpt>
      <trkpt lat="28.41624" lon="83.68077">
        <ele>2609.64</ele>
        <time>2013-10-29T05:48:35Z</time>
      </trkpt>
      <trkpt lat="28.41624" lon="83.68076">
        <ele>2609.16</ele>
        <time>2013-10-29T05:49:04Z</time>
      </trkpt>
      <trkpt lat="28.41624" lon="83.68077">
        <ele>2608.67</ele>
        <time>2013-10-29T05:49:34Z</time>
      </trkpt>
      <trkpt lat="28.41624" lon="83.68077">
        <ele>2608.67</ele>
        <time>2013-10-29T05:50:06Z</time>
      </trkpt>
      <trkpt lat="28.41624" lon="83.68078">
        <ele>2608.67</ele>
        <time>2013-10-29T05:50:39Z</time>
      </trkpt>
      <trkpt lat="28.41623" lon="83.68077">
        <ele>2608.67</ele>
        <time>2013-10-29T05:51:08Z</time>
      </trkpt>
      <trkpt lat="28.41623" lon="83.68077">
        <ele>2609.16</ele>
        <time>2013-10-29T05:51:41Z</time>
      </trkpt>
      <trkpt lat="28.41623" lon="83.68077">
        <ele>2609.16</ele>
        <time>2013-10-29T05:52:01Z</time>
      </trkpt>
      <trkpt lat="28.41623" lon="83.68077">
        <ele>2609.64</ele>
        <time>2013-10-29T05:52:05Z</time>
      </trkpt>
      <trkpt lat="28.41624" lon="83.68085">
        <ele>2608.19</ele>
        <time>2013-10-29T05:52:13Z</time>
      </trkpt>
      <trkpt lat="28.4163" lon="83.68092">
        <ele>2607.23</ele>
        <time>2013-10-29T05:52:18Z</time>
      </trkpt>
      <trkpt lat="28.41635" lon="83.68099">
        <ele>2607.23</ele>
        <time>2013-10-29T05:52:23Z</time>
      </trkpt>
      <trkpt lat="28.41637" lon="83.68112">
        <ele>2606.75</ele>
        <time>2013-10-29T05:52:37Z</time>
      </trkpt>
      <trkpt lat="28.41634" lon="83.68125">
        <ele>2605.31</ele>
        <time>2013-10-29T05:52:55Z</time>
      </trkpt>
      <trkpt lat="28.41636" lon="83.68144">
        <ele>2602.91</ele>
        <time>2013-10-29T05:53:11Z</time>
      </trkpt>
      <trkpt lat="28.41637" lon="83.68146">
        <ele>2602.43</ele>
        <time>2013-10-29T05:53:12Z</time>
      </trkpt>
      <trkpt lat="28.41636" lon="83.6815">
        <ele>2602.43</ele>
        <time>2013-10-29T05:53:15Z</time>
      </trkpt>
      <trkpt lat="28.41641" lon="83.68161">
        <ele>2600.5</ele>
        <time>2013-10-29T05:53:27Z</time>
      </trkpt>
      <trkpt lat="28.41644" lon="83.68177">
        <ele>2597.14</ele>
        <time>2013-10-29T05:53:43Z</time>
      </trkpt>
      <trkpt lat="28.41653" lon="83.68184">
        <ele>2594.74</ele>
        <time>2013-10-29T05:53:56Z</time>
      </trkpt>
      <trkpt lat="28.41658" lon="83.6819">
        <ele>2591.85</ele>
        <time>2013-10-29T05:54:09Z</time>
      </trkpt>
      <trkpt lat="28.41669" lon="83.68199">
        <ele>2589.45</ele>
        <time>2013-10-29T05:54:23Z</time>
      </trkpt>
      <trkpt lat="28.41671" lon="83.68203">
        <ele>2587.04</ele>
        <time>2013-10-29T05:54:36Z</time>
      </trkpt>
      <trkpt lat="28.41682" lon="83.68213">
        <ele>2585.6</ele>
        <time>2013-10-29T05:54:48Z</time>
      </trkpt>
      <trkpt lat="28.41685" lon="83.68221">
        <ele>2584.16</ele>
        <time>2013-10-29T05:55:05Z</time>
      </trkpt>
      <trkpt lat="28.41684" lon="83.68222">
        <ele>2584.16</ele>
        <time>2013-10-29T05:55:06Z</time>
      </trkpt>
      <trkpt lat="28.41685" lon="83.68231">
        <ele>2583.68</ele>
        <time>2013-10-29T05:55:18Z</time>
      </trkpt>
      <trkpt lat="28.4169" lon="83.6824">
        <ele>2582.72</ele>
        <time>2013-10-29T05:55:30Z</time>
      </trkpt>
      <trkpt lat="28.41698" lon="83.6825">
        <ele>2579.84</ele>
        <time>2013-10-29T05:55:45Z</time>
      </trkpt>
      <trkpt lat="28.4171" lon="83.68254">
        <ele>2577.43</ele>
        <time>2013-10-29T05:55:59Z</time>
      </trkpt>
      <trkpt lat="28.41712" lon="83.68255">
        <ele>2577.43</ele>
        <time>2013-10-29T05:56:01Z</time>
      </trkpt>
      <trkpt lat="28.41722" lon="83.68257">
        <ele>2576.47</ele>
        <time>2013-10-29T05:56:13Z</time>
      </trkpt>
      <trkpt lat="28.41725" lon="83.68261">
        <ele>2575.99</ele>
        <time>2013-10-29T05:56:31Z</time>
      </trkpt>
      <trkpt lat="28.41735" lon="83.68268">
        <ele>2575.03</ele>
        <time>2013-10-29T05:56:44Z</time>
      </trkpt>
      <trkpt lat="28.4174" lon="83.68269">
        <ele>2574.07</ele>
        <time>2013-10-29T05:57:02Z</time>
      </trkpt>
      <trkpt lat="28.41743" lon="83.6827">
        <ele>2574.07</ele>
        <time>2013-10-29T05:57:18Z</time>
      </trkpt>
      <trkpt lat="28.41747" lon="83.68272">
        <ele>2574.07</ele>
        <time>2013-10-29T05:57:25Z</time>
      </trkpt>
      <trkpt lat="28.41755" lon="83.68282">
        <ele>2572.14</ele>
        <time>2013-10-29T05:57:38Z</time>
      </trkpt>
      <trkpt lat="28.41764" lon="83.68275">
        <ele>2568.78</ele>
        <time>2013-10-29T05:57:54Z</time>
      </trkpt>
      <trkpt lat="28.41775" lon="83.6828">
        <ele>2566.86</ele>
        <time>2013-10-29T05:58:08Z</time>
      </trkpt>
      <trkpt lat="28.41779" lon="83.68286">
        <ele>2565.42</ele>
        <time>2013-10-29T05:58:21Z</time>
      </trkpt>
      <trkpt lat="28.41787" lon="83.68288">
        <ele>2565.9</ele>
        <time>2013-10-29T05:58:38Z</time>
      </trkpt>
      <trkpt lat="28.41797" lon="83.68285">
        <ele>2564.93</ele>
        <time>2013-10-29T05:58:50Z</time>
      </trkpt>
      <trkpt lat="28.41804" lon="83.68284">
        <ele>2563.97</ele>
        <time>2013-10-29T05:58:57Z</time>
      </trkpt>
      <trkpt lat="28.41816" lon="83.68289">
        <ele>2561.57</ele>
        <time>2013-10-29T05:59:11Z</time>
      </trkpt>
      <trkpt lat="28.41826" lon="83.68289">
        <ele>2561.57</ele>
        <time>2013-10-29T05:59:23Z</time>
      </trkpt>
      <trkpt lat="28.41838" lon="83.68291">
        <ele>2561.09</ele>
        <time>2013-10-29T05:59:35Z</time>
      </trkpt>
      <trkpt lat="28.41853" lon="83.68297">
        <ele>2561.09</ele>
        <time>2013-10-29T05:59:46Z</time>
      </trkpt>
      <trkpt lat="28.41864" lon="83.68299">
        <ele>2559.17</ele>
        <time>2013-10-29T05:59:58Z</time>
      </trkpt>
      <trkpt lat="28.41864" lon="83.68299">
        <ele>2558.69</ele>
        <time>2013-10-29T05:59:59Z</time>
      </trkpt>
      <trkpt lat="28.41874" lon="83.68304">
        <ele>2557.73</ele>
        <time>2013-10-29T06:00:10Z</time>
      </trkpt>
      <trkpt lat="28.41875" lon="83.68304">
        <ele>2557.73</ele>
        <time>2013-10-29T06:00:24Z</time>
      </trkpt>
      <trkpt lat="28.41874" lon="83.68305">
        <ele>2557.24</ele>
        <time>2013-10-29T06:00:46Z</time>
      </trkpt>
      <trkpt lat="28.41874" lon="83.68305">
        <ele>2557.24</ele>
        <time>2013-10-29T06:01:20Z</time>
      </trkpt>
      <trkpt lat="28.41874" lon="83.68305">
        <ele>2557.24</ele>
        <time>2013-10-29T06:01:45Z</time>
      </trkpt>
      <trkpt lat="28.41878" lon="83.68306">
        <ele>2556.28</ele>
        <time>2013-10-29T06:02:00Z</time>
      </trkpt>
      <trkpt lat="28.41878" lon="83.68306">
        <ele>2556.28</ele>
        <time>2013-10-29T06:02:16Z</time>
      </trkpt>
      <trkpt lat="28.41877" lon="83.68304">
        <ele>2556.28</ele>
        <time>2013-10-29T06:02:40Z</time>
      </trkpt>
      <trkpt lat="28.41877" lon="83.68303">
        <ele>2556.76</ele>
        <time>2013-10-29T06:03:06Z</time>
      </trkpt>
      <trkpt lat="28.4188" lon="83.68307">
        <ele>2555.8</ele>
        <time>2013-10-29T06:03:19Z</time>
      </trkpt>
      <trkpt lat="28.41881" lon="83.68307">
        <ele>2555.8</ele>
        <time>2013-10-29T06:03:20Z</time>
      </trkpt>
      <trkpt lat="28.41884" lon="83.68309">
        <ele>2555.32</ele>
        <time>2013-10-29T06:03:22Z</time>
      </trkpt>
      <trkpt lat="28.41896" lon="83.6832">
        <ele>2554.36</ele>
        <time>2013-10-29T06:03:33Z</time>
      </trkpt>
      <trkpt lat="28.41898" lon="83.68328">
        <ele>2555.32</ele>
        <time>2013-10-29T06:03:41Z</time>
      </trkpt>
      <trkpt lat="28.41908" lon="83.68337">
        <ele>2554.84</ele>
        <time>2013-10-29T06:03:53Z</time>
      </trkpt>
      <trkpt lat="28.41917" lon="83.68345">
        <ele>2554.36</ele>
        <time>2013-10-29T06:04:03Z</time>
      </trkpt>
      <trkpt lat="28.41919" lon="83.68351">
        <ele>2553.88</ele>
        <time>2013-10-29T06:04:07Z</time>
      </trkpt>
      <trkpt lat="28.41927" lon="83.68357">
        <ele>2551.96</ele>
        <time>2013-10-29T06:04:17Z</time>
      </trkpt>
      <trkpt lat="28.41933" lon="83.68365">
        <ele>2550.03</ele>
        <time>2013-10-29T06:04:29Z</time>
      </trkpt>
      <trkpt lat="28.41937" lon="83.68367">
        <ele>2548.59</ele>
        <time>2013-10-29T06:04:40Z</time>
      </trkpt>
      <trkpt lat="28.41945" lon="83.68373">
        <ele>2547.63</ele>
        <time>2013-10-29T06:04:50Z</time>
      </trkpt>
      <trkpt lat="28.41951" lon="83.68374">
        <ele>2545.71</ele>
        <time>2013-10-29T06:04:57Z</time>
      </trkpt>
      <trkpt lat="28.41951" lon="83.68387">
        <ele>2542.34</ele>
        <time>2013-10-29T06:05:10Z</time>
      </trkpt>
      <trkpt lat="28.41956" lon="83.68394">
        <ele>2539.94</ele>
        <time>2013-10-29T06:05:17Z</time>
      </trkpt>
      <trkpt lat="28.41962" lon="83.684">
        <ele>2537.06</ele>
        <time>2013-10-29T06:05:28Z</time>
      </trkpt>
      <trkpt lat="28.41975" lon="83.68402">
        <ele>2535.13</ele>
        <time>2013-10-29T06:05:40Z</time>
      </trkpt>
      <trkpt lat="28.41983" lon="83.68407">
        <ele>2533.69</ele>
        <time>2013-10-29T06:05:47Z</time>
      </trkpt>
      <trkpt lat="28.41988" lon="83.68413">
        <ele>2532.73</ele>
        <time>2013-10-29T06:05:52Z</time>
      </trkpt>
      <trkpt lat="28.4199" lon="83.68416">
        <ele>2532.73</ele>
        <time>2013-10-29T06:05:55Z</time>
      </trkpt>
      <trkpt lat="28.41991" lon="83.68418">
        <ele>2532.73</ele>
        <time>2013-10-29T06:05:57Z</time>
      </trkpt>
      <trkpt lat="28.41995" lon="83.68424">
        <ele>2532.25</ele>
        <time>2013-10-29T06:06:03Z</time>
      </trkpt>
      <trkpt lat="28.42003" lon="83.68432">
        <ele>2530.33</ele>
        <time>2013-10-29T06:06:16Z</time>
      </trkpt>
      <trkpt lat="28.42008" lon="83.68442">
        <ele>2527.44</ele>
        <time>2013-10-29T06:06:28Z</time>
      </trkpt>
      <trkpt lat="28.42012" lon="83.68447">
        <ele>2526</ele>
        <time>2013-10-29T06:06:35Z</time>
      </trkpt>
      <trkpt lat="28.42025" lon="83.68446">
        <ele>2523.12</ele>
        <time>2013-10-29T06:06:48Z</time>
      </trkpt>
      <trkpt lat="28.42027" lon="83.68447">
        <ele>2522.16</ele>
        <time>2013-10-29T06:06:51Z</time>
      </trkpt>
      <trkpt lat="28.42039" lon="83.68453">
        <ele>2520.71</ele>
        <time>2013-10-29T06:07:02Z</time>
      </trkpt>
      <trkpt lat="28.4204" lon="83.68454">
        <ele>2520.23</ele>
        <time>2013-10-29T06:07:04Z</time>
      </trkpt>
      <trkpt lat="28.42045" lon="83.68456">
        <ele>2518.79</ele>
        <time>2013-10-29T06:07:15Z</time>
      </trkpt>
      <trkpt lat="28.42048" lon="83.68457">
        <ele>2516.87</ele>
        <time>2013-10-29T06:07:28Z</time>
      </trkpt>
      <trkpt lat="28.42056" lon="83.68457">
        <ele>2514.95</ele>
        <time>2013-10-29T06:07:47Z</time>
      </trkpt>
      <trkpt lat="28.42057" lon="83.68458">
        <ele>2514.95</ele>
        <time>2013-10-29T06:07:53Z</time>
      </trkpt>
      <trkpt lat="28.42062" lon="83.6846">
        <ele>2514.47</ele>
        <time>2013-10-29T06:07:57Z</time>
      </trkpt>
      <trkpt lat="28.42066" lon="83.68464">
        <ele>2513.98</ele>
        <time>2013-10-29T06:08:01Z</time>
      </trkpt>
      <trkpt lat="28.4207" lon="83.68471">
        <ele>2513.02</ele>
        <time>2013-10-29T06:08:07Z</time>
      </trkpt>
      <trkpt lat="28.42079" lon="83.68477">
        <ele>2511.1</ele>
        <time>2013-10-29T06:08:19Z</time>
      </trkpt>
      <trkpt lat="28.42089" lon="83.68482">
        <ele>2509.18</ele>
        <time>2013-10-29T06:08:32Z</time>
      </trkpt>
      <trkpt lat="28.42097" lon="83.68484">
        <ele>2505.81</ele>
        <time>2013-10-29T06:08:43Z</time>
      </trkpt>
      <trkpt lat="28.42107" lon="83.68487">
        <ele>2505.81</ele>
        <time>2013-10-29T06:08:53Z</time>
      </trkpt>
      <trkpt lat="28.42115" lon="83.6849">
        <ele>2504.85</ele>
        <time>2013-10-29T06:08:59Z</time>
      </trkpt>
      <trkpt lat="28.42122" lon="83.68505">
        <ele>2504.37</ele>
        <time>2013-10-29T06:09:12Z</time>
      </trkpt>
      <trkpt lat="28.42127" lon="83.68513">
        <ele>2502.45</ele>
        <time>2013-10-29T06:09:23Z</time>
      </trkpt>
      <trkpt lat="28.42128" lon="83.68522">
        <ele>2500.05</ele>
        <time>2013-10-29T06:09:36Z</time>
      </trkpt>
      <trkpt lat="28.42134" lon="83.6853">
        <ele>2497.64</ele>
        <time>2013-10-29T06:09:48Z</time>
      </trkpt>
      <trkpt lat="28.42131" lon="83.68535">
        <ele>2496.2</ele>
        <time>2013-10-29T06:10:00Z</time>
      </trkpt>
      <trkpt lat="28.42132" lon="83.68537">
        <ele>2494.76</ele>
        <time>2013-10-29T06:10:11Z</time>
      </trkpt>
      <trkpt lat="28.42135" lon="83.68541">
        <ele>2492.84</ele>
        <time>2013-10-29T06:10:22Z</time>
      </trkpt>
      <trkpt lat="28.42135" lon="83.68541">
        <ele>2491.87</ele>
        <time>2013-10-29T06:10:39Z</time>
      </trkpt>
      <trkpt lat="28.42141" lon="83.68544">
        <ele>2489.47</ele>
        <time>2013-10-29T06:10:53Z</time>
      </trkpt>
      <trkpt lat="28.42145" lon="83.68548">
        <ele>2487.07</ele>
        <time>2013-10-29T06:11:05Z</time>
      </trkpt>
      <trkpt lat="28.42143" lon="83.68559">
        <ele>2484.18</ele>
        <time>2013-10-29T06:11:19Z</time>
      </trkpt>
      <trkpt lat="28.4215" lon="83.68562">
        <ele>2480.82</ele>
        <time>2013-10-29T06:11:34Z</time>
      </trkpt>
      <trkpt lat="28.4215" lon="83.68565">
        <ele>2479.86</ele>
        <time>2013-10-29T06:11:46Z</time>
      </trkpt>
      <trkpt lat="28.42159" lon="83.68559">
        <ele>2477.45</ele>
        <time>2013-10-29T06:12:00Z</time>
      </trkpt>
      <trkpt lat="28.42163" lon="83.68554">
        <ele>2474.57</ele>
        <time>2013-10-29T06:12:16Z</time>
      </trkpt>
      <trkpt lat="28.42171" lon="83.68556">
        <ele>2473.61</ele>
        <time>2013-10-29T06:12:22Z</time>
      </trkpt>
      <trkpt lat="28.42177" lon="83.68558">
        <ele>2473.13</ele>
        <time>2013-10-29T06:12:26Z</time>
      </trkpt>
      <trkpt lat="28.42179" lon="83.68561">
        <ele>2473.13</ele>
        <time>2013-10-29T06:12:29Z</time>
      </trkpt>
      <trkpt lat="28.42188" lon="83.68567">
        <ele>2472.65</ele>
        <time>2013-10-29T06:12:38Z</time>
      </trkpt>
      <trkpt lat="28.4219" lon="83.68568">
        <ele>2472.65</ele>
        <time>2013-10-29T06:12:41Z</time>
      </trkpt>
      <trkpt lat="28.42193" lon="83.68573">
        <ele>2472.17</ele>
        <time>2013-10-29T06:12:45Z</time>
      </trkpt>
      <trkpt lat="28.42195" lon="83.68576">
        <ele>2471.69</ele>
        <time>2013-10-29T06:12:48Z</time>
      </trkpt>
      <trkpt lat="28.42201" lon="83.68582">
        <ele>2471.21</ele>
        <time>2013-10-29T06:12:54Z</time>
      </trkpt>
      <trkpt lat="28.42208" lon="83.68591">
        <ele>2469.76</ele>
        <time>2013-10-29T06:13:07Z</time>
      </trkpt>
      <trkpt lat="28.4221" lon="83.68597">
        <ele>2467.36</ele>
        <time>2013-10-29T06:13:14Z</time>
      </trkpt>
      <trkpt lat="28.42219" lon="83.68603">
        <ele>2464.96</ele>
        <time>2013-10-29T06:13:28Z</time>
      </trkpt>
      <trkpt lat="28.42228" lon="83.6861">
        <ele>2463.52</ele>
        <time>2013-10-29T06:13:38Z</time>
      </trkpt>
      <trkpt lat="28.42229" lon="83.68611">
        <ele>2462.55</ele>
        <time>2013-10-29T06:13:39Z</time>
      </trkpt>
      <trkpt lat="28.42241" lon="83.68615">
        <ele>2460.15</ele>
        <time>2013-10-29T06:13:53Z</time>
      </trkpt>
      <trkpt lat="28.42251" lon="83.6862">
        <ele>2458.23</ele>
        <time>2013-10-29T06:14:04Z</time>
      </trkpt>
      <trkpt lat="28.42258" lon="83.6862">
        <ele>2455.82</ele>
        <time>2013-10-29T06:14:14Z</time>
      </trkpt>
      <trkpt lat="28.42266" lon="83.68628">
        <ele>2453.9</ele>
        <time>2013-10-29T06:14:24Z</time>
      </trkpt>
      <trkpt lat="28.42272" lon="83.68634">
        <ele>2451.98</ele>
        <time>2013-10-29T06:14:32Z</time>
      </trkpt>
      <trkpt lat="28.42276" lon="83.68645">
        <ele>2449.58</ele>
        <time>2013-10-29T06:14:43Z</time>
      </trkpt>
      <trkpt lat="28.42279" lon="83.6865">
        <ele>2447.17</ele>
        <time>2013-10-29T06:14:54Z</time>
      </trkpt>
      <trkpt lat="28.42281" lon="83.68653">
        <ele>2445.73</ele>
        <time>2013-10-29T06:15:05Z</time>
      </trkpt>
      <trkpt lat="28.42284" lon="83.68657">
        <ele>2444.29</ele>
        <time>2013-10-29T06:15:15Z</time>
      </trkpt>
      <trkpt lat="28.42284" lon="83.68656">
        <ele>2444.29</ele>
        <time>2013-10-29T06:15:38Z</time>
      </trkpt>
      <trkpt lat="28.42284" lon="83.68658">
        <ele>2443.81</ele>
        <time>2013-10-29T06:16:03Z</time>
      </trkpt>
      <trkpt lat="28.42284" lon="83.68659">
        <ele>2443.81</ele>
        <time>2013-10-29T06:16:34Z</time>
      </trkpt>
      <trkpt lat="28.42284" lon="83.68662">
        <ele>2441.89</ele>
        <time>2013-10-29T06:16:41Z</time>
      </trkpt>
      <trkpt lat="28.42283" lon="83.68664">
        <ele>2441.41</ele>
        <time>2013-10-29T06:16:43Z</time>
      </trkpt>
      <trkpt lat="28.42282" lon="83.68667">
        <ele>2440.44</ele>
        <time>2013-10-29T06:16:46Z</time>
      </trkpt>
      <trkpt lat="28.42287" lon="83.68671">
        <ele>2438.52</ele>
        <time>2013-10-29T06:16:53Z</time>
      </trkpt>
      <trkpt lat="28.42289" lon="83.68674">
        <ele>2437.56</ele>
        <time>2013-10-29T06:16:56Z</time>
      </trkpt>
      <trkpt lat="28.42302" lon="83.68684">
        <ele>2435.64</ele>
        <time>2013-10-29T06:17:07Z</time>
      </trkpt>
      <trkpt lat="28.42306" lon="83.68697">
        <ele>2433.71</ele>
        <time>2013-10-29T06:17:16Z</time>
      </trkpt>
      <trkpt lat="28.42307" lon="83.68701">
        <ele>2433.23</ele>
        <time>2013-10-29T06:17:20Z</time>
      </trkpt>
      <trkpt lat="28.42318" lon="83.68711">
        <ele>2430.35</ele>
        <time>2013-10-29T06:17:32Z</time>
      </trkpt>
      <trkpt lat="28.4232" lon="83.68714">
        <ele>2429.87</ele>
        <time>2013-10-29T06:17:34Z</time>
      </trkpt>
      <trkpt lat="28.42328" lon="83.68718">
        <ele>2427.95</ele>
        <time>2013-10-29T06:17:41Z</time>
      </trkpt>
      <trkpt lat="28.42335" lon="83.68723">
        <ele>2426.5</ele>
        <time>2013-10-29T06:17:47Z</time>
      </trkpt>
      <trkpt lat="28.42343" lon="83.68733">
        <ele>2424.58</ele>
        <time>2013-10-29T06:18:00Z</time>
      </trkpt>
      <trkpt lat="28.42344" lon="83.68734">
        <ele>2424.58</ele>
        <time>2013-10-29T06:18:17Z</time>
      </trkpt>
      <trkpt lat="28.42349" lon="83.68735">
        <ele>2423.14</ele>
        <time>2013-10-29T06:18:33Z</time>
      </trkpt>
      <trkpt lat="28.42355" lon="83.68736">
        <ele>2421.22</ele>
        <time>2013-10-29T06:18:47Z</time>
      </trkpt>
      <trkpt lat="28.42358" lon="83.68735">
        <ele>2419.3</ele>
        <time>2013-10-29T06:19:01Z</time>
      </trkpt>
      <trkpt lat="28.42358" lon="83.68735">
        <ele>2416.89</ele>
        <time>2013-10-29T06:19:18Z</time>
      </trkpt>
      <trkpt lat="28.42369" lon="83.68739">
        <ele>2414.01</ele>
        <time>2013-10-29T06:19:32Z</time>
      </trkpt>
      <trkpt lat="28.42375" lon="83.68734">
        <ele>2412.09</ele>
        <time>2013-10-29T06:19:45Z</time>
      </trkpt>
      <trkpt lat="28.42386" lon="83.6873">
        <ele>2409.2</ele>
        <time>2013-10-29T06:19:58Z</time>
      </trkpt>
      <trkpt lat="28.42393" lon="83.6873">
        <ele>2407.76</ele>
        <time>2013-10-29T06:20:12Z</time>
      </trkpt>
      <trkpt lat="28.42395" lon="83.6873">
        <ele>2407.28</ele>
        <time>2013-10-29T06:20:29Z</time>
      </trkpt>
      <trkpt lat="28.42395" lon="83.6873">
        <ele>2406.8</ele>
        <time>2013-10-29T06:21:04Z</time>
      </trkpt>
      <trkpt lat="28.42395" lon="83.68729">
        <ele>2406.32</ele>
        <time>2013-10-29T06:21:39Z</time>
      </trkpt>
      <trkpt lat="28.42395" lon="83.6873">
        <ele>2406.8</ele>
        <time>2013-10-29T06:22:15Z</time>
      </trkpt>
      <trkpt lat="28.42395" lon="83.68732">
        <ele>2405.84</ele>
        <time>2013-10-29T06:22:30Z</time>
      </trkpt>
      <trkpt lat="28.42405" lon="83.68733">
        <ele>2402.95</ele>
        <time>2013-10-29T06:22:48Z</time>
      </trkpt>
      <trkpt lat="28.42419" lon="83.68734">
        <ele>2400.55</ele>
        <time>2013-10-29T06:22:59Z</time>
      </trkpt>
      <trkpt lat="28.4242" lon="83.68734">
        <ele>2400.07</ele>
        <time>2013-10-29T06:23:00Z</time>
      </trkpt>
      <trkpt lat="28.42434" lon="83.68735">
        <ele>2398.63</ele>
        <time>2013-10-29T06:23:13Z</time>
      </trkpt>
      <trkpt lat="28.42436" lon="83.68737">
        <ele>2397.67</ele>
        <time>2013-10-29T06:23:16Z</time>
      </trkpt>
      <trkpt lat="28.42447" lon="83.68744">
        <ele>2394.3</ele>
        <time>2013-10-29T06:23:29Z</time>
      </trkpt>
      <trkpt lat="28.42449" lon="83.68745">
        <ele>2392.86</ele>
        <time>2013-10-29T06:23:33Z</time>
      </trkpt>
      <trkpt lat="28.42451" lon="83.68757">
        <ele>2392.86</ele>
        <time>2013-10-29T06:23:45Z</time>
      </trkpt>
      <trkpt lat="28.42446" lon="83.6877">
        <ele>2390.46</ele>
        <time>2013-10-29T06:23:58Z</time>
      </trkpt>
      <trkpt lat="28.42447" lon="83.68772">
        <ele>2389.97</ele>
        <time>2013-10-29T06:24:00Z</time>
      </trkpt>
      <trkpt lat="28.42446" lon="83.68782">
        <ele>2388.53</ele>
        <time>2013-10-29T06:24:09Z</time>
      </trkpt>
      <trkpt lat="28.42453" lon="83.68785">
        <ele>2387.09</ele>
        <time>2013-10-29T06:24:17Z</time>
      </trkpt>
      <trkpt lat="28.42461" lon="83.6879">
        <ele>2385.17</ele>
        <time>2013-10-29T06:24:28Z</time>
      </trkpt>
      <trkpt lat="28.42465" lon="83.68796">
        <ele>2383.25</ele>
        <time>2013-10-29T06:24:39Z</time>
      </trkpt>
      <trkpt lat="28.42467" lon="83.68798">
        <ele>2381.8</ele>
        <time>2013-10-29T06:24:52Z</time>
      </trkpt>
      <trkpt lat="28.42474" lon="83.68799">
        <ele>2380.36</ele>
        <time>2013-10-29T06:25:00Z</time>
      </trkpt>
      <trkpt lat="28.42478" lon="83.68804">
        <ele>2379.4</ele>
        <time>2013-10-29T06:25:06Z</time>
      </trkpt>
      <trkpt lat="28.42486" lon="83.68815">
        <ele>2378.44</ele>
        <time>2013-10-29T06:25:18Z</time>
      </trkpt>
      <trkpt lat="28.42494" lon="83.68819">
        <ele>2376.52</ele>
        <time>2013-10-29T06:25:30Z</time>
      </trkpt>
      <trkpt lat="28.42496" lon="83.6881">
        <ele>2373.15</ele>
        <time>2013-10-29T06:25:43Z</time>
      </trkpt>
      <trkpt lat="28.42501" lon="83.68809">
        <ele>2370.27</ele>
        <time>2013-10-29T06:25:56Z</time>
      </trkpt>
      <trkpt lat="28.42506" lon="83.68808">
        <ele>2368.83</ele>
        <time>2013-10-29T06:26:10Z</time>
      </trkpt>
      <trkpt lat="28.42507" lon="83.68807">
        <ele>2368.35</ele>
        <time>2013-10-29T06:26:17Z</time>
      </trkpt>
      <trkpt lat="28.42511" lon="83.68807">
        <ele>2367.86</ele>
        <time>2013-10-29T06:26:20Z</time>
      </trkpt>
      <trkpt lat="28.42519" lon="83.68805">
        <ele>2365.46</ele>
        <time>2013-10-29T06:26:34Z</time>
      </trkpt>
      <trkpt lat="28.4252" lon="83.68805">
        <ele>2364.98</ele>
        <time>2013-10-29T06:26:57Z</time>
      </trkpt>
      <trkpt lat="28.42524" lon="83.68811">
        <ele>2362.1</ele>
        <time>2013-10-29T06:27:21Z</time>
      </trkpt>
      <trkpt lat="28.42528" lon="83.68817">
        <ele>2360.17</ele>
        <time>2013-10-29T06:27:34Z</time>
      </trkpt>
      <trkpt lat="28.42528" lon="83.68819">
        <ele>2360.17</ele>
        <time>2013-10-29T06:27:50Z</time>
      </trkpt>
      <trkpt lat="28.42528" lon="83.6882">
        <ele>2359.69</ele>
        <time>2013-10-29T06:28:08Z</time>
      </trkpt>
      <trkpt lat="28.42529" lon="83.6882">
        <ele>2359.69</ele>
        <time>2013-10-29T06:28:21Z</time>
      </trkpt>
      <trkpt lat="28.42529" lon="83.68821">
        <ele>2359.69</ele>
        <time>2013-10-29T06:28:25Z</time>
      </trkpt>
      <trkpt lat="28.4253" lon="83.6882">
        <ele>2359.21</ele>
        <time>2013-10-29T06:28:38Z</time>
      </trkpt>
      <trkpt lat="28.42529" lon="83.68822">
        <ele>2359.21</ele>
        <time>2013-10-29T06:28:58Z</time>
      </trkpt>
      <trkpt lat="28.42532" lon="83.68822">
        <ele>2358.73</ele>
        <time>2013-10-29T06:29:21Z</time>
      </trkpt>
      <trkpt lat="28.42531" lon="83.68821">
        <ele>2358.73</ele>
        <time>2013-10-29T06:29:35Z</time>
      </trkpt>
      <trkpt lat="28.42531" lon="83.68822">
        <ele>2358.25</ele>
        <time>2013-10-29T06:29:56Z</time>
      </trkpt>
      <trkpt lat="28.42534" lon="83.68825">
        <ele>2358.25</ele>
        <time>2013-10-29T06:30:16Z</time>
      </trkpt>
      <trkpt lat="28.42539" lon="83.68825">
        <ele>2357.29</ele>
        <time>2013-10-29T06:30:41Z</time>
      </trkpt>
      <trkpt lat="28.42539" lon="83.68824">
        <ele>2357.29</ele>
        <time>2013-10-29T06:30:51Z</time>
      </trkpt>
      <trkpt lat="28.42534" lon="83.68821">
        <ele>2356.81</ele>
        <time>2013-10-29T06:31:15Z</time>
      </trkpt>
      <trkpt lat="28.42533" lon="83.68822">
        <ele>2356.81</ele>
        <time>2013-10-29T06:31:33Z</time>
      </trkpt>
      <trkpt lat="28.42532" lon="83.68822">
        <ele>2356.33</ele>
        <time>2013-10-29T06:32:02Z</time>
      </trkpt>
      <trkpt lat="28.42531" lon="83.68822">
        <ele>2356.33</ele>
        <time>2013-10-29T06:32:34Z</time>
      </trkpt>
      <trkpt lat="28.42531" lon="83.68822">
        <ele>2355.85</ele>
        <time>2013-10-29T06:33:04Z</time>
      </trkpt>
      <trkpt lat="28.42531" lon="83.68822">
        <ele>2355.85</ele>
        <time>2013-10-29T06:33:42Z</time>
      </trkpt>
      <trkpt lat="28.42531" lon="83.68824">
        <ele>2356.33</ele>
        <time>2013-10-29T06:34:10Z</time>
      </trkpt>
      <trkpt lat="28.42534" lon="83.68832">
        <ele>2356.33</ele>
        <time>2013-10-29T06:34:23Z</time>
      </trkpt>
      <trkpt lat="28.42533" lon="83.68831">
        <ele>2356.33</ele>
        <time>2013-10-29T06:34:51Z</time>
      </trkpt>
      <trkpt lat="28.42533" lon="83.6883">
        <ele>2356.33</ele>
        <time>2013-10-29T06:35:17Z</time>
      </trkpt>
      <trkpt lat="28.42533" lon="83.68829">
        <ele>2355.85</ele>
        <time>2013-10-29T06:35:36Z</time>
      </trkpt>
      <trkpt lat="28.42533" lon="83.68829">
        <ele>2355.85</ele>
        <time>2013-10-29T06:35:43Z</time>
      </trkpt>
      <trkpt lat="28.42531" lon="83.68824">
        <ele>2355.85</ele>
        <time>2013-10-29T06:35:53Z</time>
      </trkpt>
      <trkpt lat="28.42531" lon="83.68824">
        <ele>2355.85</ele>
        <time>2013-10-29T06:36:21Z</time>
      </trkpt>
      <trkpt lat="28.4253" lon="83.68824">
        <ele>2355.85</ele>
        <time>2013-10-29T06:36:36Z</time>
      </trkpt>
      <trkpt lat="28.42534" lon="83.68825">
        <ele>2354.89</ele>
        <time>2013-10-29T06:36:48Z</time>
      </trkpt>
      <trkpt lat="28.42536" lon="83.68822">
        <ele>2354.89</ele>
        <time>2013-10-29T06:37:02Z</time>
      </trkpt>
      <trkpt lat="28.42535" lon="83.68824">
        <ele>2355.37</ele>
        <time>2013-10-29T06:37:15Z</time>
      </trkpt>
      <trkpt lat="28.42534" lon="83.68823">
        <ele>2356.33</ele>
        <time>2013-10-29T06:37:34Z</time>
      </trkpt>
      <trkpt lat="28.42533" lon="83.68823">
        <ele>2355.85</ele>
        <time>2013-10-29T06:37:51Z</time>
      </trkpt>
      <trkpt lat="28.42532" lon="83.68823">
        <ele>2355.85</ele>
        <time>2013-10-29T06:38:14Z</time>
      </trkpt>
      <trkpt lat="28.42532" lon="83.68824">
        <ele>2356.33</ele>
        <time>2013-10-29T06:38:35Z</time>
      </trkpt>
      <trkpt lat="28.42532" lon="83.68825">
        <ele>2356.33</ele>
        <time>2013-10-29T06:39:02Z</time>
      </trkpt>
      <trkpt lat="28.42532" lon="83.68825">
        <ele>2356.81</ele>
        <time>2013-10-29T06:39:31Z</time>
      </trkpt>
      <trkpt lat="28.4253" lon="83.68825">
        <ele>2356.33</ele>
        <time>2013-10-29T06:39:59Z</time>
      </trkpt>
      <trkpt lat="28.4253" lon="83.68824">
        <ele>2356.33</ele>
        <time>2013-10-29T06:40:13Z</time>
      </trkpt>
      <trkpt lat="28.42531" lon="83.68822">
        <ele>2356.33</ele>
        <time>2013-10-29T06:40:41Z</time>
      </trkpt>
      <trkpt lat="28.42531" lon="83.68821">
        <ele>2354.89</ele>
        <time>2013-10-29T06:41:00Z</time>
      </trkpt>
      <trkpt lat="28.4253" lon="83.68821">
        <ele>2356.33</ele>
        <time>2013-10-29T06:41:29Z</time>
      </trkpt>
      <trkpt lat="28.4253" lon="83.68822">
        <ele>2355.85</ele>
        <time>2013-10-29T06:41:46Z</time>
      </trkpt>
      <trkpt lat="28.42529" lon="83.6882">
        <ele>2355.37</ele>
        <time>2013-10-29T06:42:13Z</time>
      </trkpt>
      <trkpt lat="28.42529" lon="83.68819">
        <ele>2354.89</ele>
        <time>2013-10-29T06:42:39Z</time>
      </trkpt>
      <trkpt lat="28.42529" lon="83.68821">
        <ele>2354.89</ele>
        <time>2013-10-29T06:42:52Z</time>
      </trkpt>
      <trkpt lat="28.42529" lon="83.68822">
        <ele>2354.89</ele>
        <time>2013-10-29T06:43:07Z</time>
      </trkpt>
      <trkpt lat="28.42529" lon="83.68822">
        <ele>2354.41</ele>
        <time>2013-10-29T06:43:34Z</time>
      </trkpt>
      <trkpt lat="28.42529" lon="83.68822">
        <ele>2354.41</ele>
        <time>2013-10-29T06:43:59Z</time>
      </trkpt>
      <trkpt lat="28.42528" lon="83.68823">
        <ele>2354.41</ele>
        <time>2013-10-29T06:44:24Z</time>
      </trkpt>
      <trkpt lat="28.42527" lon="83.68823">
        <ele>2354.41</ele>
        <time>2013-10-29T06:44:56Z</time>
      </trkpt>
      <trkpt lat="28.42527" lon="83.68824">
        <ele>2354.41</ele>
        <time>2013-10-29T06:45:25Z</time>
      </trkpt>
      <trkpt lat="28.42528" lon="83.68825">
        <ele>2354.41</ele>
        <time>2013-10-29T06:45:50Z</time>
      </trkpt>
      <trkpt lat="28.42527" lon="83.68825">
        <ele>2354.89</ele>
        <time>2013-10-29T06:46:16Z</time>
      </trkpt>
      <trkpt lat="28.42527" lon="83.68825">
        <ele>2354.89</ele>
        <time>2013-10-29T06:46:47Z</time>
      </trkpt>
      <trkpt lat="28.42527" lon="83.68826">
        <ele>2354.89</ele>
        <time>2013-10-29T06:47:16Z</time>
      </trkpt>
      <trkpt lat="28.42527" lon="83.68826">
        <ele>2354.89</ele>
        <time>2013-10-29T06:47:42Z</time>
      </trkpt>
      <trkpt lat="28.42528" lon="83.68826">
        <ele>2354.89</ele>
        <time>2013-10-29T06:48:05Z</time>
      </trkpt>
      <trkpt lat="28.42527" lon="83.68826">
        <ele>2354.89</ele>
        <time>2013-10-29T06:48:23Z</time>
      </trkpt>
      <trkpt lat="28.42528" lon="83.68825">
        <ele>2354.41</ele>
        <time>2013-10-29T06:48:51Z</time>
      </trkpt>
      <trkpt lat="28.4253" lon="83.68823">
        <ele>2354.89</ele>
        <time>2013-10-29T06:49:08Z</time>
      </trkpt>
      <trkpt lat="28.4253" lon="83.68823">
        <ele>2353.44</ele>
        <time>2013-10-29T06:49:32Z</time>
      </trkpt>
      <trkpt lat="28.42531" lon="83.68823">
        <ele>2353.44</ele>
        <time>2013-10-29T06:49:56Z</time>
      </trkpt>
      <trkpt lat="28.42531" lon="83.68823">
        <ele>2352.96</ele>
        <time>2013-10-29T06:50:29Z</time>
      </trkpt>
      <trkpt lat="28.42531" lon="83.68823">
        <ele>2352.48</ele>
        <time>2013-10-29T06:50:59Z</time>
      </trkpt>
      <trkpt lat="28.42529" lon="83.68823">
        <ele>2352.48</ele>
        <time>2013-10-29T06:51:26Z</time>
      </trkpt>
      <trkpt lat="28.42529" lon="83.68823">
        <ele>2352</ele>
        <time>2013-10-29T06:51:55Z</time>
      </trkpt>
      <trkpt lat="28.42528" lon="83.68823">
        <ele>2352</ele>
        <time>2013-10-29T06:52:26Z</time>
      </trkpt>
      <trkpt lat="28.42528" lon="83.68824">
        <ele>2352</ele>
        <time>2013-10-29T06:52:58Z</time>
      </trkpt>
      <trkpt lat="28.42528" lon="83.68824">
        <ele>2352</ele>
        <time>2013-10-29T06:53:28Z</time>
      </trkpt>
      <trkpt lat="28.42528" lon="83.68825">
        <ele>2351.52</ele>
        <time>2013-10-29T06:53:59Z</time>
      </trkpt>
      <trkpt lat="28.42528" lon="83.68825">
        <ele>2352</ele>
        <time>2013-10-29T06:54:35Z</time>
      </trkpt>
      <trkpt lat="28.42528" lon="83.68824">
        <ele>2352</ele>
        <time>2013-10-29T06:55:01Z</time>
      </trkpt>
      <trkpt lat="28.42528" lon="83.68824">
        <ele>2352</ele>
        <time>2013-10-29T06:55:34Z</time>
      </trkpt>
      <trkpt lat="28.42528" lon="83.68824">
        <ele>2352</ele>
        <time>2013-10-29T06:56:03Z</time>
      </trkpt>
      <trkpt lat="28.42528" lon="83.68824">
        <ele>2352</ele>
        <time>2013-10-29T06:56:31Z</time>
      </trkpt>
      <trkpt lat="28.42527" lon="83.68825">
        <ele>2352</ele>
        <time>2013-10-29T06:57:03Z</time>
      </trkpt>
      <trkpt lat="28.42527" lon="83.68825">
        <ele>2352</ele>
        <time>2013-10-29T06:57:30Z</time>
      </trkpt>
      <trkpt lat="28.42527" lon="83.68825">
        <ele>2352</ele>
        <time>2013-10-29T06:58:01Z</time>
      </trkpt>
      <trkpt lat="28.42527" lon="83.68825">
        <ele>2351.52</ele>
        <time>2013-10-29T06:58:07Z</time>
      </trkpt>
      <trkpt lat="28.4253" lon="83.68822">
        <ele>2352.96</ele>
        <time>2013-10-29T06:58:26Z</time>
      </trkpt>
      <trkpt lat="28.42531" lon="83.68821">
        <ele>2352.48</ele>
        <time>2013-10-29T06:58:55Z</time>
      </trkpt>
      <trkpt lat="28.42531" lon="83.6882">
        <ele>2352.48</ele>
        <time>2013-10-29T06:59:22Z</time>
      </trkpt>
      <trkpt lat="28.42531" lon="83.68819">
        <ele>2352.48</ele>
        <time>2013-10-29T06:59:47Z</time>
      </trkpt>
      <trkpt lat="28.42532" lon="83.68819">
        <ele>2349.12</ele>
        <time>2013-10-29T07:00:09Z</time>
      </trkpt>
      <trkpt lat="28.42532" lon="83.68819">
        <ele>2355.37</ele>
        <time>2013-10-29T07:00:10Z</time>
      </trkpt>
      <trkpt lat="28.42532" lon="83.68819">
        <ele>2352</ele>
        <time>2013-10-29T07:00:13Z</time>
      </trkpt>
      <trkpt lat="28.42532" lon="83.68819">
        <ele>2348.64</ele>
        <time>2013-10-29T07:00:17Z</time>
      </trkpt>
      <trkpt lat="28.42532" lon="83.68819">
        <ele>2354.89</ele>
        <time>2013-10-29T07:00:18Z</time>
      </trkpt>
      <trkpt lat="28.42532" lon="83.68819">
        <ele>2339.99</ele>
        <time>2013-10-29T07:00:21Z</time>
      </trkpt>
      <trkpt lat="28.42532" lon="83.68819">
        <ele>2350.08</ele>
        <time>2013-10-29T07:00:22Z</time>
      </trkpt>
      <trkpt lat="28.42532" lon="83.68819">
        <ele>2356.33</ele>
        <time>2013-10-29T07:00:23Z</time>
      </trkpt>
      <trkpt lat="28.42532" lon="83.68819">
        <ele>2355.85</ele>
        <time>2013-10-29T07:00:24Z</time>
      </trkpt>
      <trkpt lat="28.42532" lon="83.68819">
        <ele>2352.48</ele>
        <time>2013-10-29T07:00:26Z</time>
      </trkpt>
      <trkpt lat="28.42532" lon="83.68819">
        <ele>2352.48</ele>
        <time>2013-10-29T07:00:27Z</time>
      </trkpt>
      <trkpt lat="28.42532" lon="83.68819">
        <ele>2352.96</ele>
        <time>2013-10-29T07:00:39Z</time>
      </trkpt>
      <trkpt lat="28.42533" lon="83.6882">
        <ele>2352</ele>
        <time>2013-10-29T07:01:06Z</time>
      </trkpt>
      <trkpt lat="28.42533" lon="83.6882">
        <ele>2352</ele>
        <time>2013-10-29T07:01:28Z</time>
      </trkpt>
      <trkpt lat="28.42533" lon="83.6882">
        <ele>2352</ele>
        <time>2013-10-29T07:01:54Z</time>
      </trkpt>
      <trkpt lat="28.42532" lon="83.68819">
        <ele>2351.52</ele>
        <time>2013-10-29T07:02:11Z</time>
      </trkpt>
      <trkpt lat="28.42531" lon="83.6882">
        <ele>2351.52</ele>
        <time>2013-10-29T07:02:29Z</time>
      </trkpt>
      <trkpt lat="28.4253" lon="83.6882">
        <ele>2351.52</ele>
        <time>2013-10-29T07:02:45Z</time>
      </trkpt>
      <trkpt lat="28.42529" lon="83.68819">
        <ele>2351.52</ele>
        <time>2013-10-29T07:03:11Z</time>
      </trkpt>
      <trkpt lat="28.42527" lon="83.6882">
        <ele>2351.52</ele>
        <time>2013-10-29T07:03:36Z</time>
      </trkpt>
      <trkpt lat="28.42531" lon="83.68822">
        <ele>2352.48</ele>
        <time>2013-10-29T07:04:13Z</time>
      </trkpt>
      <trkpt lat="28.4253" lon="83.6882">
        <ele>2352.48</ele>
        <time>2013-10-29T07:04:44Z</time>
      </trkpt>
      <trkpt lat="28.4253" lon="83.6882">
        <ele>2352.48</ele>
        <time>2013-10-29T07:05:08Z</time>
      </trkpt>
      <trkpt lat="28.4253" lon="83.68819">
        <ele>2351.04</ele>
        <time>2013-10-29T07:05:43Z</time>
      </trkpt>
      <trkpt lat="28.42532" lon="83.68822">
        <ele>2352.48</ele>
        <time>2013-10-29T07:05:57Z</time>
      </trkpt>
      <trkpt lat="28.42534" lon="83.6882">
        <ele>2352.96</ele>
        <time>2013-10-29T07:06:10Z</time>
      </trkpt>
      <trkpt lat="28.42533" lon="83.6882">
        <ele>2352.96</ele>
        <time>2013-10-29T07:06:38Z</time>
      </trkpt>
      <trkpt lat="28.42534" lon="83.68821">
        <ele>2353.44</ele>
        <time>2013-10-29T07:07:06Z</time>
      </trkpt>
      <trkpt lat="28.42534" lon="83.68822">
        <ele>2353.44</ele>
        <time>2013-10-29T07:07:35Z</time>
      </trkpt>
      <trkpt lat="28.42533" lon="83.68823">
        <ele>2353.44</ele>
        <time>2013-10-29T07:08:05Z</time>
      </trkpt>
      <trkpt lat="28.42533" lon="83.68823">
        <ele>2353.44</ele>
        <time>2013-10-29T07:08:40Z</time>
      </trkpt>
      <trkpt lat="28.42533" lon="83.68824">
        <ele>2353.44</ele>
        <time>2013-10-29T07:09:13Z</time>
      </trkpt>
      <trkpt lat="28.42533" lon="83.68824">
        <ele>2352.96</ele>
        <time>2013-10-29T07:09:47Z</time>
      </trkpt>
      <trkpt lat="28.42533" lon="83.68825">
        <ele>2352.96</ele>
        <time>2013-10-29T07:10:19Z</time>
      </trkpt>
      <trkpt lat="28.42533" lon="83.68825">
        <ele>2352.48</ele>
        <time>2013-10-29T07:10:50Z</time>
      </trkpt>
      <trkpt lat="28.42533" lon="83.68825">
        <ele>2352.48</ele>
        <time>2013-10-29T07:11:21Z</time>
      </trkpt>
      <trkpt lat="28.42533" lon="83.68825">
        <ele>2352.48</ele>
        <time>2013-10-29T07:11:53Z</time>
      </trkpt>
      <trkpt lat="28.42533" lon="83.68824">
        <ele>2352</ele>
        <time>2013-10-29T07:12:26Z</time>
      </trkpt>
      <trkpt lat="28.42533" lon="83.68824">
        <ele>2352</ele>
        <time>2013-10-29T07:13:01Z</time>
      </trkpt>
      <trkpt lat="28.42533" lon="83.68824">
        <ele>2352</ele>
        <time>2013-10-29T07:13:30Z</time>
      </trkpt>
      <trkpt lat="28.42533" lon="83.68824">
        <ele>2352</ele>
        <time>2013-10-29T07:13:57Z</time>
      </trkpt>
      <trkpt lat="28.42533" lon="83.68824">
        <ele>2352</ele>
        <time>2013-10-29T07:14:23Z</time>
      </trkpt>
      <trkpt lat="28.42533" lon="83.68825">
        <ele>2352</ele>
        <time>2013-10-29T07:14:50Z</time>
      </trkpt>
      <trkpt lat="28.42532" lon="83.68825">
        <ele>2352.48</ele>
        <time>2013-10-29T07:15:25Z</time>
      </trkpt>
      <trkpt lat="28.42532" lon="83.68825">
        <ele>2352.48</ele>
        <time>2013-10-29T07:16:00Z</time>
      </trkpt>
      <trkpt lat="28.42532" lon="83.68824">
        <ele>2352.48</ele>
        <time>2013-10-29T07:16:31Z</time>
      </trkpt>
      <trkpt lat="28.42532" lon="83.68824">
        <ele>2352.48</ele>
        <time>2013-10-29T07:16:59Z</time>
      </trkpt>
      <trkpt lat="28.42532" lon="83.68825">
        <ele>2352</ele>
        <time>2013-10-29T07:17:27Z</time>
      </trkpt>
      <trkpt lat="28.42532" lon="83.68825">
        <ele>2352</ele>
        <time>2013-10-29T07:17:57Z</time>
      </trkpt>
      <trkpt lat="28.42533" lon="83.68825">
        <ele>2352</ele>
        <time>2013-10-29T07:18:26Z</time>
      </trkpt>
      <trkpt lat="28.42532" lon="83.68825">
        <ele>2352.48</ele>
        <time>2013-10-29T07:18:49Z</time>
      </trkpt>
      <trkpt lat="28.42533" lon="83.68825">
        <ele>2352.48</ele>
        <time>2013-10-29T07:19:17Z</time>
      </trkpt>
      <trkpt lat="28.42533" lon="83.68825">
        <ele>2352.48</ele>
        <time>2013-10-29T07:19:48Z</time>
      </trkpt>
      <trkpt lat="28.42533" lon="83.68825">
        <ele>2352.96</ele>
        <time>2013-10-29T07:20:14Z</time>
      </trkpt>
      <trkpt lat="28.42533" lon="83.68825">
        <ele>2353.44</ele>
        <time>2013-10-29T07:20:42Z</time>
      </trkpt>
      <trkpt lat="28.42533" lon="83.68824">
        <ele>2353.44</ele>
        <time>2013-10-29T07:21:08Z</time>
      </trkpt>
      <trkpt lat="28.42533" lon="83.68824">
        <ele>2353.93</ele>
        <time>2013-10-29T07:21:45Z</time>
      </trkpt>
      <trkpt lat="28.42533" lon="83.68824">
        <ele>2353.93</ele>
        <time>2013-10-29T07:22:23Z</time>
      </trkpt>
      <trkpt lat="28.42533" lon="83.68824">
        <ele>2353.93</ele>
        <time>2013-10-29T07:22:55Z</time>
      </trkpt>
      <trkpt lat="28.42533" lon="83.68824">
        <ele>2354.41</ele>
        <time>2013-10-29T07:23:33Z</time>
      </trkpt>
      <trkpt lat="28.42533" lon="83.68824">
        <ele>2354.41</ele>
        <time>2013-10-29T07:24:08Z</time>
      </trkpt>
      <trkpt lat="28.42533" lon="83.68824">
        <ele>2353.93</ele>
        <time>2013-10-29T07:24:39Z</time>
      </trkpt>
      <trkpt lat="28.42533" lon="83.68825">
        <ele>2353.93</ele>
        <time>2013-10-29T07:25:19Z</time>
      </trkpt>
      <trkpt lat="28.42533" lon="83.68825">
        <ele>2353.93</ele>
        <time>2013-10-29T07:25:53Z</time>
      </trkpt>
      <trkpt lat="28.42533" lon="83.68824">
        <ele>2353.93</ele>
        <time>2013-10-29T07:26:18Z</time>
      </trkpt>
      <trkpt lat="28.42532" lon="83.68824">
        <ele>2353.44</ele>
        <time>2013-10-29T07:26:41Z</time>
      </trkpt>
      <trkpt lat="28.42532" lon="83.68824">
        <ele>2353.44</ele>
        <time>2013-10-29T07:27:02Z</time>
      </trkpt>
      <trkpt lat="28.42532" lon="83.68825">
        <ele>2353.44</ele>
        <time>2013-10-29T07:27:27Z</time>
      </trkpt>
      <trkpt lat="28.42532" lon="83.68824">
        <ele>2352.96</ele>
        <time>2013-10-29T07:27:49Z</time>
      </trkpt>
      <trkpt lat="28.42531" lon="83.68824">
        <ele>2352.96</ele>
        <time>2013-10-29T07:28:09Z</time>
      </trkpt>
      <trkpt lat="28.42532" lon="83.68824">
        <ele>2352.96</ele>
        <time>2013-10-29T07:28:32Z</time>
      </trkpt>
      <trkpt lat="28.42532" lon="83.68825">
        <ele>2352.48</ele>
        <time>2013-10-29T07:28:50Z</time>
      </trkpt>
      <trkpt lat="28.42532" lon="83.68825">
        <ele>2352.96</ele>
        <time>2013-10-29T07:29:12Z</time>
      </trkpt>
      <trkpt lat="28.42533" lon="83.68824">
        <ele>2352.48</ele>
        <time>2013-10-29T07:29:30Z</time>
      </trkpt>
      <trkpt lat="28.42533" lon="83.68824">
        <ele>2352.96</ele>
        <time>2013-10-29T07:29:52Z</time>
      </trkpt>
      <trkpt lat="28.42533" lon="83.68824">
        <ele>2352.48</ele>
        <time>2013-10-29T07:30:19Z</time>
      </trkpt>
      <trkpt lat="28.42533" lon="83.68824">
        <ele>2352.48</ele>
        <time>2013-10-29T07:30:45Z</time>
      </trkpt>
      <trkpt lat="28.42533" lon="83.68824">
        <ele>2353.44</ele>
        <time>2013-10-29T07:31:16Z</time>
      </trkpt>
      <trkpt lat="28.42533" lon="83.68818">
        <ele>2353.44</ele>
        <time>2013-10-29T07:31:30Z</time>
      </trkpt>
      <trkpt lat="28.42535" lon="83.68812">
        <ele>2355.85</ele>
        <time>2013-10-29T07:31:49Z</time>
      </trkpt>
      <trkpt lat="28.42538" lon="83.68812">
        <ele>2352.96</ele>
        <time>2013-10-29T07:32:10Z</time>
      </trkpt>
      <trkpt lat="28.42537" lon="83.68814">
        <ele>2352.96</ele>
        <time>2013-10-29T07:32:12Z</time>
      </trkpt>
      <trkpt lat="28.42531" lon="83.68824">
        <ele>2352.96</ele>
        <time>2013-10-29T07:32:31Z</time>
      </trkpt>
      <trkpt lat="28.42534" lon="83.68812">
        <ele>2352.48</ele>
        <time>2013-10-29T07:32:53Z</time>
      </trkpt>
      <trkpt lat="28.42544" lon="83.6881">
        <ele>2352.48</ele>
        <time>2013-10-29T07:33:17Z</time>
      </trkpt>
      <trkpt lat="28.42539" lon="83.688">
        <ele>2352.48</ele>
        <time>2013-10-29T07:33:36Z</time>
      </trkpt>
      <trkpt lat="28.42539" lon="83.68801">
        <ele>2352.48</ele>
        <time>2013-10-29T07:33:58Z</time>
      </trkpt>
      <trkpt lat="28.42539" lon="83.68801">
        <ele>2352</ele>
        <time>2013-10-29T07:34:33Z</time>
      </trkpt>
      <trkpt lat="28.42539" lon="83.68802">
        <ele>2352</ele>
        <time>2013-10-29T07:34:55Z</time>
      </trkpt>
      <trkpt lat="28.42536" lon="83.68827">
        <ele>2357.29</ele>
        <time>2013-10-29T08:09:20Z</time>
      </trkpt>
      <trkpt lat="28.42536" lon="83.68824">
        <ele>2357.29</ele>
        <time>2013-10-29T08:09:35Z</time>
      </trkpt>
      <trkpt lat="28.42534" lon="83.68828">
        <ele>2357.29</ele>
        <time>2013-10-29T08:09:54Z</time>
      </trkpt>
      <trkpt lat="28.42534" lon="83.6883">
        <ele>2357.29</ele>
        <time>2013-10-29T08:10:15Z</time>
      </trkpt>
      <trkpt lat="28.42534" lon="83.68831">
        <ele>2357.29</ele>
        <time>2013-10-29T08:10:39Z</time>
      </trkpt>
      <trkpt lat="28.42535" lon="83.6883">
        <ele>2357.29</ele>
        <time>2013-10-29T08:10:59Z</time>
      </trkpt>
      <trkpt lat="28.42535" lon="83.68829">
        <ele>2357.77</ele>
        <time>2013-10-29T08:11:21Z</time>
      </trkpt>
      <trkpt lat="28.42533" lon="83.68828">
        <ele>2357.77</ele>
        <time>2013-10-29T08:11:42Z</time>
      </trkpt>
      <trkpt lat="28.42538" lon="83.68826">
        <ele>2357.77</ele>
        <time>2013-10-29T08:11:58Z</time>
      </trkpt>
      <trkpt lat="28.42539" lon="83.68828">
        <ele>2357.77</ele>
        <time>2013-10-29T08:12:14Z</time>
      </trkpt>
      <trkpt lat="28.4254" lon="83.68826">
        <ele>2356.81</ele>
        <time>2013-10-29T08:12:25Z</time>
      </trkpt>
      <trkpt lat="28.4254" lon="83.68822">
        <ele>2355.37</ele>
        <time>2013-10-29T08:12:34Z</time>
      </trkpt>
      <trkpt lat="28.42548" lon="83.68826">
        <ele>2353.44</ele>
        <time>2013-10-29T08:12:46Z</time>
      </trkpt>
      <trkpt lat="28.42553" lon="83.68827">
        <ele>2351.04</ele>
        <time>2013-10-29T08:12:59Z</time>
      </trkpt>
      <trkpt lat="28.42565" lon="83.68831">
        <ele>2348.16</ele>
        <time>2013-10-29T08:13:10Z</time>
      </trkpt>
      <trkpt lat="28.42573" lon="83.68835">
        <ele>2345.27</ele>
        <time>2013-10-29T08:13:23Z</time>
      </trkpt>
      <trkpt lat="28.42577" lon="83.68836">
        <ele>2343.35</ele>
        <time>2013-10-29T08:13:41Z</time>
      </trkpt>
      <trkpt lat="28.42579" lon="83.68838">
        <ele>2341.91</ele>
        <time>2013-10-29T08:14:03Z</time>
      </trkpt>
      <trkpt lat="28.42586" lon="83.68844">
        <ele>2339.51</ele>
        <time>2013-10-29T08:14:15Z</time>
      </trkpt>
      <trkpt lat="28.4259" lon="83.6885">
        <ele>2336.14</ele>
        <time>2013-10-29T08:14:29Z</time>
      </trkpt>
      <trkpt lat="28.42598" lon="83.68854">
        <ele>2333.26</ele>
        <time>2013-10-29T08:14:43Z</time>
      </trkpt>
      <trkpt lat="28.42604" lon="83.68858">
        <ele>2330.37</ele>
        <time>2013-10-29T08:14:56Z</time>
      </trkpt>
      <trkpt lat="28.42604" lon="83.68868">
        <ele>2327.49</ele>
        <time>2013-10-29T08:15:08Z</time>
      </trkpt>
      <trkpt lat="28.42606" lon="83.68873">
        <ele>2326.53</ele>
        <time>2013-10-29T08:15:13Z</time>
      </trkpt>
      <trkpt lat="28.42605" lon="83.68876">
        <ele>2326.05</ele>
        <time>2013-10-29T08:15:16Z</time>
      </trkpt>
      <trkpt lat="28.426" lon="83.68886">
        <ele>2323.64</ele>
        <time>2013-10-29T08:15:27Z</time>
      </trkpt>
      <trkpt lat="28.42599" lon="83.68897">
        <ele>2321.72</ele>
        <time>2013-10-29T08:15:38Z</time>
      </trkpt>
      <trkpt lat="28.42599" lon="83.68902">
        <ele>2321.24</ele>
        <time>2013-10-29T08:15:43Z</time>
      </trkpt>
      <trkpt lat="28.42599" lon="83.68915">
        <ele>2317.88</ele>
        <time>2013-10-29T08:15:56Z</time>
      </trkpt>
      <trkpt lat="28.42598" lon="83.68927">
        <ele>2315.47</ele>
        <time>2013-10-29T08:16:10Z</time>
      </trkpt>
      <trkpt lat="28.42599" lon="83.68941">
        <ele>2312.59</ele>
        <time>2013-10-29T08:16:21Z</time>
      </trkpt>
      <trkpt lat="28.42598" lon="83.68952">
        <ele>2309.7</ele>
        <time>2013-10-29T08:16:34Z</time>
      </trkpt>
      <trkpt lat="28.42598" lon="83.68951">
        <ele>2308.26</ele>
        <time>2013-10-29T08:16:39Z</time>
      </trkpt>
      <trkpt lat="28.42604" lon="83.68953">
        <ele>2305.86</ele>
        <time>2013-10-29T08:16:54Z</time>
      </trkpt>
      <trkpt lat="28.42612" lon="83.68955">
        <ele>2302.98</ele>
        <time>2013-10-29T08:17:09Z</time>
      </trkpt>
      <trkpt lat="28.42624" lon="83.68963">
        <ele>2301.05</ele>
        <time>2013-10-29T08:17:23Z</time>
      </trkpt>
      <trkpt lat="28.42636" lon="83.68965">
        <ele>2298.65</ele>
        <time>2013-10-29T08:17:36Z</time>
      </trkpt>
      <trkpt lat="28.42649" lon="83.68967">
        <ele>2296.73</ele>
        <time>2013-10-29T08:17:47Z</time>
      </trkpt>
      <trkpt lat="28.42658" lon="83.68976">
        <ele>2295.28</ele>
        <time>2013-10-29T08:17:59Z</time>
      </trkpt>
      <trkpt lat="28.42665" lon="83.68987">
        <ele>2293.36</ele>
        <time>2013-10-29T08:18:13Z</time>
      </trkpt>
      <trkpt lat="28.42667" lon="83.68989">
        <ele>2292.88</ele>
        <time>2013-10-29T08:18:15Z</time>
      </trkpt>
      <trkpt lat="28.42668" lon="83.68995">
        <ele>2291.92</ele>
        <time>2013-10-29T08:18:19Z</time>
      </trkpt>
      <trkpt lat="28.42673" lon="83.69009">
        <ele>2290</ele>
        <time>2013-10-29T08:18:32Z</time>
      </trkpt>
      <trkpt lat="28.4268" lon="83.69012">
        <ele>2287.59</ele>
        <time>2013-10-29T08:18:45Z</time>
      </trkpt>
      <trkpt lat="28.42684" lon="83.69021">
        <ele>2287.59</ele>
        <time>2013-10-29T08:18:58Z</time>
      </trkpt>
      <trkpt lat="28.42696" lon="83.69027">
        <ele>2288.56</ele>
        <time>2013-10-29T08:19:13Z</time>
      </trkpt>
      <trkpt lat="28.42708" lon="83.6904">
        <ele>2288.56</ele>
        <time>2013-10-29T08:19:29Z</time>
      </trkpt>
      <trkpt lat="28.42717" lon="83.6905">
        <ele>2288.56</ele>
        <time>2013-10-29T08:19:42Z</time>
      </trkpt>
      <trkpt lat="28.42722" lon="83.69053">
        <ele>2287.11</ele>
        <time>2013-10-29T08:19:53Z</time>
      </trkpt>
      <trkpt lat="28.42732" lon="83.6906">
        <ele>2286.15</ele>
        <time>2013-10-29T08:20:06Z</time>
      </trkpt>
      <trkpt lat="28.4274" lon="83.6907">
        <ele>2285.67</ele>
        <time>2013-10-29T08:20:17Z</time>
      </trkpt>
      <trkpt lat="28.42746" lon="83.69082">
        <ele>2283.27</ele>
        <time>2013-10-29T08:20:32Z</time>
      </trkpt>
      <trkpt lat="28.42749" lon="83.6909">
        <ele>2280.38</ele>
        <time>2013-10-29T08:20:47Z</time>
      </trkpt>
      <trkpt lat="28.42749" lon="83.69089">
        <ele>2277.5</ele>
        <time>2013-10-29T08:21:01Z</time>
      </trkpt>
      <trkpt lat="28.42756" lon="83.69096">
        <ele>2274.62</ele>
        <time>2013-10-29T08:21:14Z</time>
      </trkpt>
      <trkpt lat="28.42759" lon="83.6909">
        <ele>2271.73</ele>
        <time>2013-10-29T08:21:27Z</time>
      </trkpt>
      <trkpt lat="28.42758" lon="83.69097">
        <ele>2268.37</ele>
        <time>2013-10-29T08:21:41Z</time>
      </trkpt>
      <trkpt lat="28.42759" lon="83.69104">
        <ele>2266.45</ele>
        <time>2013-10-29T08:21:57Z</time>
      </trkpt>
      <trkpt lat="28.42758" lon="83.6911">
        <ele>2263.56</ele>
        <time>2013-10-29T08:22:10Z</time>
      </trkpt>
      <trkpt lat="28.42761" lon="83.69114">
        <ele>2260.2</ele>
        <time>2013-10-29T08:22:23Z</time>
      </trkpt>
      <trkpt lat="28.42762" lon="83.69115">
        <ele>2257.31</ele>
        <time>2013-10-29T08:22:40Z</time>
      </trkpt>
      <trkpt lat="28.42765" lon="83.69118">
        <ele>2253.95</ele>
        <time>2013-10-29T08:22:53Z</time>
      </trkpt>
      <trkpt lat="28.42773" lon="83.69128">
        <ele>2252.03</ele>
        <time>2013-10-29T08:23:07Z</time>
      </trkpt>
      <trkpt lat="28.42773" lon="83.69133">
        <ele>2249.14</ele>
        <time>2013-10-29T08:23:21Z</time>
      </trkpt>
      <trkpt lat="28.42773" lon="83.69145">
        <ele>2247.22</ele>
        <time>2013-10-29T08:23:32Z</time>
      </trkpt>
      <trkpt lat="28.42766" lon="83.69148">
        <ele>2245.78</ele>
        <time>2013-10-29T08:23:50Z</time>
      </trkpt>
      <trkpt lat="28.4276" lon="83.69152">
        <ele>2243.85</ele>
        <time>2013-10-29T08:24:03Z</time>
      </trkpt>
      <trkpt lat="28.42762" lon="83.69153">
        <ele>2243.85</ele>
        <time>2013-10-29T08:24:06Z</time>
      </trkpt>
      <trkpt lat="28.42765" lon="83.69165">
        <ele>2241.45</ele>
        <time>2013-10-29T08:24:21Z</time>
      </trkpt>
      <trkpt lat="28.42766" lon="83.69163">
        <ele>2240.01</ele>
        <time>2013-10-29T08:24:41Z</time>
      </trkpt>
      <trkpt lat="28.42772" lon="83.69165">
        <ele>2237.61</ele>
        <time>2013-10-29T08:24:53Z</time>
      </trkpt>
      <trkpt lat="28.42779" lon="83.69168">
        <ele>2235.2</ele>
        <time>2013-10-29T08:25:06Z</time>
      </trkpt>
      <trkpt lat="28.42777" lon="83.69175">
        <ele>2232.32</ele>
        <time>2013-10-29T08:25:21Z</time>
      </trkpt>
      <trkpt lat="28.42776" lon="83.69181">
        <ele>2230.88</ele>
        <time>2013-10-29T08:25:33Z</time>
      </trkpt>
      <trkpt lat="28.42772" lon="83.6918">
        <ele>2229.43</ele>
        <time>2013-10-29T08:25:41Z</time>
      </trkpt>
      <trkpt lat="28.42774" lon="83.69184">
        <ele>2227.03</ele>
        <time>2013-10-29T08:25:51Z</time>
      </trkpt>
      <trkpt lat="28.42783" lon="83.6919">
        <ele>2225.11</ele>
        <time>2013-10-29T08:26:07Z</time>
      </trkpt>
      <trkpt lat="28.42791" lon="83.6919">
        <ele>2224.15</ele>
        <time>2013-10-29T08:26:19Z</time>
      </trkpt>
      <trkpt lat="28.42809" lon="83.69178">
        <ele>2224.15</ele>
        <time>2013-10-29T08:26:46Z</time>
      </trkpt>
      <trkpt lat="28.42809" lon="83.69184">
        <ele>2223.19</ele>
        <time>2013-10-29T08:27:03Z</time>
      </trkpt>
      <trkpt lat="28.42813" lon="83.69188">
        <ele>2222.22</ele>
        <time>2013-10-29T08:27:16Z</time>
      </trkpt>
      <trkpt lat="28.42822" lon="83.69197">
        <ele>2220.3</ele>
        <time>2013-10-29T08:27:29Z</time>
      </trkpt>
      <trkpt lat="28.42819" lon="83.69203">
        <ele>2221.74</ele>
        <time>2013-10-29T08:27:39Z</time>
      </trkpt>
      <trkpt lat="28.42814" lon="83.6921">
        <ele>2222.71</ele>
        <time>2013-10-29T08:27:50Z</time>
      </trkpt>
      <trkpt lat="28.42811" lon="83.69216">
        <ele>2223.19</ele>
        <time>2013-10-29T08:28:00Z</time>
      </trkpt>
      <trkpt lat="28.4281" lon="83.69222">
        <ele>2222.71</ele>
        <time>2013-10-29T08:28:11Z</time>
      </trkpt>
      <trkpt lat="28.42814" lon="83.69226">
        <ele>2222.71</ele>
        <time>2013-10-29T08:28:16Z</time>
      </trkpt>
      <trkpt lat="28.42815" lon="83.69233">
        <ele>2222.71</ele>
        <time>2013-10-29T08:28:24Z</time>
      </trkpt>
      <trkpt lat="28.42817" lon="83.69239">
        <ele>2222.71</ele>
        <time>2013-10-29T08:28:30Z</time>
      </trkpt>
      <trkpt lat="28.42816" lon="83.69241">
        <ele>2223.19</ele>
        <time>2013-10-29T08:28:32Z</time>
      </trkpt>
      <trkpt lat="28.42811" lon="83.6925">
        <ele>2223.19</ele>
        <time>2013-10-29T08:28:42Z</time>
      </trkpt>
      <trkpt lat="28.42808" lon="83.69261">
        <ele>2222.71</ele>
        <time>2013-10-29T08:28:54Z</time>
      </trkpt>
      <trkpt lat="28.42809" lon="83.69272">
        <ele>2222.22</ele>
        <time>2013-10-29T08:29:03Z</time>
      </trkpt>
      <trkpt lat="28.42809" lon="83.69273">
        <ele>2222.22</ele>
        <time>2013-10-29T08:29:04Z</time>
      </trkpt>
      <trkpt lat="28.42809" lon="83.69278">
        <ele>2221.74</ele>
        <time>2013-10-29T08:29:17Z</time>
      </trkpt>
      <trkpt lat="28.4281" lon="83.69279">
        <ele>2221.26</ele>
        <time>2013-10-29T08:29:36Z</time>
      </trkpt>
      <trkpt lat="28.42817" lon="83.69281">
        <ele>2219.82</ele>
        <time>2013-10-29T08:29:48Z</time>
      </trkpt>
      <trkpt lat="28.42826" lon="83.69283">
        <ele>2217.9</ele>
        <time>2013-10-29T08:30:00Z</time>
      </trkpt>
      <trkpt lat="28.42831" lon="83.69285">
        <ele>2217.42</ele>
        <time>2013-10-29T08:30:03Z</time>
      </trkpt>
      <trkpt lat="28.42835" lon="83.69293">
        <ele>2215.98</ele>
        <time>2013-10-29T08:30:15Z</time>
      </trkpt>
      <trkpt lat="28.42841" lon="83.69296">
        <ele>2214.05</ele>
        <time>2013-10-29T08:30:26Z</time>
      </trkpt>
      <trkpt lat="28.42842" lon="83.69298">
        <ele>2213.09</ele>
        <time>2013-10-29T08:30:30Z</time>
      </trkpt>
      <trkpt lat="28.42853" lon="83.69305">
        <ele>2211.17</ele>
        <time>2013-10-29T08:30:45Z</time>
      </trkpt>
      <trkpt lat="28.42855" lon="83.69306">
        <ele>2209.73</ele>
        <time>2013-10-29T08:30:57Z</time>
      </trkpt>
      <trkpt lat="28.42858" lon="83.69308">
        <ele>2209.25</ele>
        <time>2013-10-29T08:31:11Z</time>
      </trkpt>
      <trkpt lat="28.4286" lon="83.69311">
        <ele>2208.77</ele>
        <time>2013-10-29T08:31:15Z</time>
      </trkpt>
      <trkpt lat="28.42863" lon="83.69317">
        <ele>2208.29</ele>
        <time>2013-10-29T08:31:27Z</time>
      </trkpt>
      <trkpt lat="28.42868" lon="83.69322">
        <ele>2206.84</ele>
        <time>2013-10-29T08:31:37Z</time>
      </trkpt>
      <trkpt lat="28.42873" lon="83.69327">
        <ele>2204.44</ele>
        <time>2013-10-29T08:31:50Z</time>
      </trkpt>
      <trkpt lat="28.42876" lon="83.6933">
        <ele>2203.48</ele>
        <time>2013-10-29T08:31:55Z</time>
      </trkpt>
      <trkpt lat="28.42883" lon="83.69334">
        <ele>2203.96</ele>
        <time>2013-10-29T08:32:10Z</time>
      </trkpt>
      <trkpt lat="28.42883" lon="83.69335">
        <ele>2202.04</ele>
        <time>2013-10-29T08:32:26Z</time>
      </trkpt>
      <trkpt lat="28.42886" lon="83.69341">
        <ele>2200.11</ele>
        <time>2013-10-29T08:32:39Z</time>
      </trkpt>
      <trkpt lat="28.42885" lon="83.69345">
        <ele>2199.63</ele>
        <time>2013-10-29T08:32:42Z</time>
      </trkpt>
      <trkpt lat="28.42889" lon="83.69349">
        <ele>2198.19</ele>
        <time>2013-10-29T08:32:48Z</time>
      </trkpt>
      <trkpt lat="28.42892" lon="83.69351">
        <ele>2197.71</ele>
        <time>2013-10-29T08:32:52Z</time>
      </trkpt>
      <trkpt lat="28.42901" lon="83.69354">
        <ele>2196.27</ele>
        <time>2013-10-29T08:33:03Z</time>
      </trkpt>
      <trkpt lat="28.42905" lon="83.6936">
        <ele>2193.87</ele>
        <time>2013-10-29T08:33:14Z</time>
      </trkpt>
      <trkpt lat="28.42915" lon="83.69358">
        <ele>2191.94</ele>
        <time>2013-10-29T08:33:27Z</time>
      </trkpt>
      <trkpt lat="28.42924" lon="83.69361">
        <ele>2190.5</ele>
        <time>2013-10-29T08:33:38Z</time>
      </trkpt>
      <trkpt lat="28.42926" lon="83.69363">
        <ele>2190.02</ele>
        <time>2013-10-29T08:33:44Z</time>
      </trkpt>
      <trkpt lat="28.42932" lon="83.69366">
        <ele>2189.54</ele>
        <time>2013-10-29T08:33:56Z</time>
      </trkpt>
      <trkpt lat="28.42935" lon="83.69368">
        <ele>2189.06</ele>
        <time>2013-10-29T08:33:58Z</time>
      </trkpt>
      <trkpt lat="28.42936" lon="83.69377">
        <ele>2187.62</ele>
        <time>2013-10-29T08:34:05Z</time>
      </trkpt>
      <trkpt lat="28.4294" lon="83.69389">
        <ele>2185.69</ele>
        <time>2013-10-29T08:34:15Z</time>
      </trkpt>
      <trkpt lat="28.4294" lon="83.69391">
        <ele>2184.73</ele>
        <time>2013-10-29T08:34:26Z</time>
      </trkpt>
      <trkpt lat="28.42946" lon="83.69394">
        <ele>2183.29</ele>
        <time>2013-10-29T08:34:37Z</time>
      </trkpt>
      <trkpt lat="28.42946" lon="83.69399">
        <ele>2182.33</ele>
        <time>2013-10-29T08:34:48Z</time>
      </trkpt>
      <trkpt lat="28.42946" lon="83.69407">
        <ele>2180.89</ele>
        <time>2013-10-29T08:34:56Z</time>
      </trkpt>
      <trkpt lat="28.42942" lon="83.69413">
        <ele>2179.93</ele>
        <time>2013-10-29T08:35:08Z</time>
      </trkpt>
      <trkpt lat="28.42944" lon="83.69414">
        <ele>2178.48</ele>
        <time>2013-10-29T08:35:15Z</time>
      </trkpt>
      <trkpt lat="28.42947" lon="83.69414">
        <ele>2175.6</ele>
        <time>2013-10-29T08:35:28Z</time>
      </trkpt>
      <trkpt lat="28.42948" lon="83.69419">
        <ele>2173.2</ele>
        <time>2013-10-29T08:35:40Z</time>
      </trkpt>
      <trkpt lat="28.42948" lon="83.69422">
        <ele>2171.27</ele>
        <time>2013-10-29T08:35:55Z</time>
      </trkpt>
      <trkpt lat="28.42947" lon="83.69427">
        <ele>2170.79</ele>
        <time>2013-10-29T08:36:16Z</time>
      </trkpt>
      <trkpt lat="28.42956" lon="83.69422">
        <ele>2168.39</ele>
        <time>2013-10-29T08:36:28Z</time>
      </trkpt>
      <trkpt lat="28.42963" lon="83.69411">
        <ele>2165.99</ele>
        <time>2013-10-29T08:36:43Z</time>
      </trkpt>
      <trkpt lat="28.42963" lon="83.69407">
        <ele>2162.62</ele>
        <time>2013-10-29T08:36:56Z</time>
      </trkpt>
      <trkpt lat="28.4297" lon="83.69409">
        <ele>2159.74</ele>
        <time>2013-10-29T08:37:08Z</time>
      </trkpt>
      <trkpt lat="28.42972" lon="83.69416">
        <ele>2158.3</ele>
        <time>2013-10-29T08:37:25Z</time>
      </trkpt>
      <trkpt lat="28.42975" lon="83.69414">
        <ele>2155.89</ele>
        <time>2013-10-29T08:37:42Z</time>
      </trkpt>
      <trkpt lat="28.4298" lon="83.69398">
        <ele>2153.01</ele>
        <time>2013-10-29T08:37:57Z</time>
      </trkpt>
      <trkpt lat="28.42989" lon="83.69392">
        <ele>2150.13</ele>
        <time>2013-10-29T08:38:13Z</time>
      </trkpt>
      <trkpt lat="28.42995" lon="83.69396">
        <ele>2147.24</ele>
        <time>2013-10-29T08:38:26Z</time>
      </trkpt>
      <trkpt lat="28.42996" lon="83.69397">
        <ele>2145.32</ele>
        <time>2013-10-29T08:38:44Z</time>
      </trkpt>
      <trkpt lat="28.42995" lon="83.69394">
        <ele>2144.84</ele>
        <time>2013-10-29T08:39:09Z</time>
      </trkpt>
      <trkpt lat="28.42996" lon="83.694">
        <ele>2141.95</ele>
        <time>2013-10-29T08:39:23Z</time>
      </trkpt>
      <trkpt lat="28.42998" lon="83.69397">
        <ele>2138.59</ele>
        <time>2013-10-29T08:39:36Z</time>
      </trkpt>
      <trkpt lat="28.43002" lon="83.69392">
        <ele>2135.71</ele>
        <time>2013-10-29T08:39:49Z</time>
      </trkpt>
      <trkpt lat="28.43002" lon="83.69385">
        <ele>2134.26</ele>
        <time>2013-10-29T08:40:03Z</time>
      </trkpt>
      <trkpt lat="28.43004" lon="83.69382">
        <ele>2132.34</ele>
        <time>2013-10-29T08:40:22Z</time>
      </trkpt>
      <trkpt lat="28.43004" lon="83.6938">
        <ele>2130.42</ele>
        <time>2013-10-29T08:40:35Z</time>
      </trkpt>
      <trkpt lat="28.43004" lon="83.6938">
        <ele>2129.94</ele>
        <time>2013-10-29T08:40:55Z</time>
      </trkpt>
      <trkpt lat="28.43003" lon="83.69379">
        <ele>2128.98</ele>
        <time>2013-10-29T08:41:11Z</time>
      </trkpt>
      <trkpt lat="28.43012" lon="83.69376">
        <ele>2127.05</ele>
        <time>2013-10-29T08:41:28Z</time>
      </trkpt>
      <trkpt lat="28.43017" lon="83.69376">
        <ele>2124.17</ele>
        <time>2013-10-29T08:41:50Z</time>
      </trkpt>
      <trkpt lat="28.43027" lon="83.69378">
        <ele>2121.29</ele>
        <time>2013-10-29T08:42:02Z</time>
      </trkpt>
      <trkpt lat="28.4303" lon="83.69379">
        <ele>2120.32</ele>
        <time>2013-10-29T08:42:06Z</time>
      </trkpt>
      <trkpt lat="28.43035" lon="83.69384">
        <ele>2116.96</ele>
        <time>2013-10-29T08:42:20Z</time>
      </trkpt>
      <trkpt lat="28.4304" lon="83.69378">
        <ele>2115.04</ele>
        <time>2013-10-29T08:42:37Z</time>
      </trkpt>
      <trkpt lat="28.43046" lon="83.69377">
        <ele>2113.12</ele>
        <time>2013-10-29T08:42:55Z</time>
      </trkpt>
      <trkpt lat="28.43051" lon="83.69378">
        <ele>2109.75</ele>
        <time>2013-10-29T08:43:09Z</time>
      </trkpt>
      <trkpt lat="28.43054" lon="83.6938">
        <ele>2106.87</ele>
        <time>2013-10-29T08:43:23Z</time>
      </trkpt>
      <trkpt lat="28.43055" lon="83.6938">
        <ele>2106.87</ele>
        <time>2013-10-29T08:43:45Z</time>
      </trkpt>
      <trkpt lat="28.43059" lon="83.6938">
        <ele>2106.87</ele>
        <time>2013-10-29T08:44:15Z</time>
      </trkpt>
      <trkpt lat="28.43058" lon="83.6938">
        <ele>2106.87</ele>
        <time>2013-10-29T08:44:44Z</time>
      </trkpt>
      <trkpt lat="28.43056" lon="83.69377">
        <ele>2104.94</ele>
        <time>2013-10-29T08:45:02Z</time>
      </trkpt>
      <trkpt lat="28.43055" lon="83.69378">
        <ele>2105.42</ele>
        <time>2013-10-29T08:45:20Z</time>
      </trkpt>
      <trkpt lat="28.43055" lon="83.69378">
        <ele>2104.94</ele>
        <time>2013-10-29T08:45:34Z</time>
      </trkpt>
      <trkpt lat="28.43056" lon="83.69375">
        <ele>2104.46</ele>
        <time>2013-10-29T08:45:46Z</time>
      </trkpt>
      <trkpt lat="28.43061" lon="83.69375">
        <ele>2103.5</ele>
        <time>2013-10-29T08:45:56Z</time>
      </trkpt>
      <trkpt lat="28.43072" lon="83.69377">
        <ele>2103.5</ele>
        <time>2013-10-29T08:46:09Z</time>
      </trkpt>
      <trkpt lat="28.43073" lon="83.69378">
        <ele>2103.98</ele>
        <time>2013-10-29T08:46:13Z</time>
      </trkpt>
      <trkpt lat="28.43079" lon="83.69379">
        <ele>2104.46</ele>
        <time>2013-10-29T08:46:24Z</time>
      </trkpt>
      <trkpt lat="28.43078" lon="83.69379">
        <ele>2104.46</ele>
        <time>2013-10-29T08:46:42Z</time>
      </trkpt>
      <trkpt lat="28.43079" lon="83.69379">
        <ele>2104.46</ele>
        <time>2013-10-29T08:47:01Z</time>
      </trkpt>
      <trkpt lat="28.43079" lon="83.69377">
        <ele>2104.46</ele>
        <time>2013-10-29T08:47:19Z</time>
      </trkpt>
      <trkpt lat="28.43081" lon="83.69378">
        <ele>2103.02</ele>
        <time>2013-10-29T08:47:40Z</time>
      </trkpt>
      <trkpt lat="28.43087" lon="83.69379">
        <ele>2101.58</ele>
        <time>2013-10-29T08:47:52Z</time>
      </trkpt>
      <trkpt lat="28.43087" lon="83.69378">
        <ele>2101.58</ele>
        <time>2013-10-29T08:47:54Z</time>
      </trkpt>
      <trkpt lat="28.43083" lon="83.69368">
        <ele>2100.14</ele>
        <time>2013-10-29T08:48:08Z</time>
      </trkpt>
      <trkpt lat="28.43079" lon="83.69363">
        <ele>2099.66</ele>
        <time>2013-10-29T08:48:21Z</time>
      </trkpt>
      <trkpt lat="28.43079" lon="83.69365">
        <ele>2099.66</ele>
        <time>2013-10-29T08:48:42Z</time>
      </trkpt>
      <trkpt lat="28.43079" lon="83.69365">
        <ele>2099.18</ele>
        <time>2013-10-29T08:48:59Z</time>
      </trkpt>
      <trkpt lat="28.43077" lon="83.69366">
        <ele>2098.7</ele>
        <time>2013-10-29T08:49:19Z</time>
      </trkpt>
      <trkpt lat="28.43077" lon="83.69365">
        <ele>2099.18</ele>
        <time>2013-10-29T08:49:38Z</time>
      </trkpt>
      <trkpt lat="28.43076" lon="83.69363">
        <ele>2098.7</ele>
        <time>2013-10-29T08:50:00Z</time>
      </trkpt>
      <trkpt lat="28.43076" lon="83.69362">
        <ele>2098.7</ele>
        <time>2013-10-29T08:50:29Z</time>
      </trkpt>
      <trkpt lat="28.43078" lon="83.69362">
        <ele>2099.18</ele>
        <time>2013-10-29T08:50:53Z</time>
      </trkpt>
      <trkpt lat="28.43079" lon="83.69361">
        <ele>2099.18</ele>
        <time>2013-10-29T08:51:11Z</time>
      </trkpt>
      <trkpt lat="28.43078" lon="83.69359">
        <ele>2099.18</ele>
        <time>2013-10-29T08:51:36Z</time>
      </trkpt>
      <trkpt lat="28.43079" lon="83.69359">
        <ele>2098.7</ele>
        <time>2013-10-29T08:52:00Z</time>
      </trkpt>
      <trkpt lat="28.4308" lon="83.6936">
        <ele>2098.7</ele>
        <time>2013-10-29T08:52:31Z</time>
      </trkpt>
      <trkpt lat="28.4308" lon="83.69359">
        <ele>2098.7</ele>
        <time>2013-10-29T08:52:50Z</time>
      </trkpt>
      <trkpt lat="28.43079" lon="83.69359">
        <ele>2098.7</ele>
        <time>2013-10-29T08:53:04Z</time>
      </trkpt>
      <trkpt lat="28.4308" lon="83.6936">
        <ele>2098.7</ele>
        <time>2013-10-29T08:53:19Z</time>
      </trkpt>
      <trkpt lat="28.4308" lon="83.6936">
        <ele>2099.18</ele>
        <time>2013-10-29T08:53:25Z</time>
      </trkpt>
      <trkpt lat="28.43081" lon="83.69361">
        <ele>2099.18</ele>
        <time>2013-10-29T08:53:28Z</time>
      </trkpt>
      <trkpt lat="28.43084" lon="83.69364">
        <ele>2098.7</ele>
        <time>2013-10-29T08:53:43Z</time>
      </trkpt>
      <trkpt lat="28.43087" lon="83.69373">
        <ele>2100.62</ele>
        <time>2013-10-29T08:53:53Z</time>
      </trkpt>
      <trkpt lat="28.43087" lon="83.69376">
        <ele>2100.62</ele>
        <time>2013-10-29T08:53:56Z</time>
      </trkpt>
      <trkpt lat="28.43087" lon="83.69382">
        <ele>2101.1</ele>
        <time>2013-10-29T08:54:12Z</time>
      </trkpt>
      <trkpt lat="28.43088" lon="83.69382">
        <ele>2100.14</ele>
        <time>2013-10-29T08:54:31Z</time>
      </trkpt>
      <trkpt lat="28.43088" lon="83.69382">
        <ele>2100.14</ele>
        <time>2013-10-29T08:54:52Z</time>
      </trkpt>
      <trkpt lat="28.43091" lon="83.69383">
        <ele>2100.14</ele>
        <time>2013-10-29T08:55:08Z</time>
      </trkpt>
      <trkpt lat="28.43096" lon="83.69385">
        <ele>2100.14</ele>
        <time>2013-10-29T08:55:20Z</time>
      </trkpt>
      <trkpt lat="28.43105" lon="83.69385">
        <ele>2101.58</ele>
        <time>2013-10-29T08:55:34Z</time>
      </trkpt>
      <trkpt lat="28.43116" lon="83.69387">
        <ele>2104.94</ele>
        <time>2013-10-29T08:55:50Z</time>
      </trkpt>
      <trkpt lat="28.43115" lon="83.69395">
        <ele>2106.87</ele>
        <time>2013-10-29T08:56:04Z</time>
      </trkpt>
      <trkpt lat="28.43112" lon="83.69402">
        <ele>2109.27</ele>
        <time>2013-10-29T08:56:19Z</time>
      </trkpt>
      <trkpt lat="28.4311" lon="83.69407">
        <ele>2112.63</ele>
        <time>2013-10-29T08:56:36Z</time>
      </trkpt>
      <trkpt lat="28.43113" lon="83.69415">
        <ele>2114.08</ele>
        <time>2013-10-29T08:56:50Z</time>
      </trkpt>
      <trkpt lat="28.43112" lon="83.69422">
        <ele>2116</ele>
        <time>2013-10-29T08:57:03Z</time>
      </trkpt>
      <trkpt lat="28.43114" lon="83.69424">
        <ele>2117.44</ele>
        <time>2013-10-29T08:57:18Z</time>
      </trkpt>
      <trkpt lat="28.43115" lon="83.69425">
        <ele>2119.84</ele>
        <time>2013-10-29T08:57:35Z</time>
      </trkpt>
      <trkpt lat="28.43117" lon="83.69422">
        <ele>2122.25</ele>
        <time>2013-10-29T08:57:51Z</time>
      </trkpt>
      <trkpt lat="28.43122" lon="83.69419">
        <ele>2124.65</ele>
        <time>2013-10-29T08:58:06Z</time>
      </trkpt>
      <trkpt lat="28.43128" lon="83.69416">
        <ele>2126.09</ele>
        <time>2013-10-29T08:58:19Z</time>
      </trkpt>
      <trkpt lat="28.43132" lon="83.69412">
        <ele>2128.02</ele>
        <time>2013-10-29T08:58:35Z</time>
      </trkpt>
      <trkpt lat="28.43143" lon="83.69409">
        <ele>2129.94</ele>
        <time>2013-10-29T08:58:50Z</time>
      </trkpt>
      <trkpt lat="28.43152" lon="83.69405">
        <ele>2131.38</ele>
        <time>2013-10-29T08:59:05Z</time>
      </trkpt>
      <trkpt lat="28.43157" lon="83.69404">
        <ele>2133.78</ele>
        <time>2013-10-29T08:59:21Z</time>
      </trkpt>
      <trkpt lat="28.43165" lon="83.69402">
        <ele>2135.23</ele>
        <time>2013-10-29T08:59:34Z</time>
      </trkpt>
      <trkpt lat="28.43172" lon="83.69403">
        <ele>2137.63</ele>
        <time>2013-10-29T08:59:48Z</time>
      </trkpt>
      <trkpt lat="28.43177" lon="83.69403">
        <ele>2139.55</ele>
        <time>2013-10-29T09:00:00Z</time>
      </trkpt>
      <trkpt lat="28.43182" lon="83.69406">
        <ele>2141.95</ele>
        <time>2013-10-29T09:00:11Z</time>
      </trkpt>
      <trkpt lat="28.43186" lon="83.69411">
        <ele>2142.44</ele>
        <time>2013-10-29T09:00:23Z</time>
      </trkpt>
      <trkpt lat="28.43189" lon="83.69409">
        <ele>2144.84</ele>
        <time>2013-10-29T09:00:37Z</time>
      </trkpt>
      <trkpt lat="28.43185" lon="83.69403">
        <ele>2146.28</ele>
        <time>2013-10-29T09:00:49Z</time>
      </trkpt>
      <trkpt lat="28.43188" lon="83.69397">
        <ele>2148.2</ele>
        <time>2013-10-29T09:01:04Z</time>
      </trkpt>
      <trkpt lat="28.43192" lon="83.69393">
        <ele>2150.13</ele>
        <time>2013-10-29T09:01:17Z</time>
      </trkpt>
      <trkpt lat="28.43195" lon="83.6939">
        <ele>2152.05</ele>
        <time>2013-10-29T09:01:32Z</time>
      </trkpt>
      <trkpt lat="28.43197" lon="83.69392">
        <ele>2153.49</ele>
        <time>2013-10-29T09:01:42Z</time>
      </trkpt>
      <trkpt lat="28.43198" lon="83.69393">
        <ele>2156.37</ele>
        <time>2013-10-29T09:01:57Z</time>
      </trkpt>
      <trkpt lat="28.43201" lon="83.69388">
        <ele>2158.78</ele>
        <time>2013-10-29T09:02:11Z</time>
      </trkpt>
      <trkpt lat="28.43203" lon="83.69388">
        <ele>2158.3</ele>
        <time>2013-10-29T09:02:23Z</time>
      </trkpt>
      <trkpt lat="28.43203" lon="83.69388">
        <ele>2158.3</ele>
        <time>2013-10-29T09:03:00Z</time>
      </trkpt>
      <trkpt lat="28.43204" lon="83.69387">
        <ele>2158.3</ele>
        <time>2013-10-29T09:03:31Z</time>
      </trkpt>
      <trkpt lat="28.43204" lon="83.69387">
        <ele>2158.3</ele>
        <time>2013-10-29T09:04:02Z</time>
      </trkpt>
      <trkpt lat="28.43204" lon="83.69387">
        <ele>2157.82</ele>
        <time>2013-10-29T09:04:28Z</time>
      </trkpt>
      <trkpt lat="28.43204" lon="83.69387">
        <ele>2158.3</ele>
        <time>2013-10-29T09:04:57Z</time>
      </trkpt>
      <trkpt lat="28.43202" lon="83.69387">
        <ele>2157.82</ele>
        <time>2013-10-29T09:05:27Z</time>
      </trkpt>
      <trkpt lat="28.43201" lon="83.69386">
        <ele>2157.82</ele>
        <time>2013-10-29T09:06:01Z</time>
      </trkpt>
      <trkpt lat="28.432" lon="83.69386">
        <ele>2157.82</ele>
        <time>2013-10-29T09:06:25Z</time>
      </trkpt>
      <trkpt lat="28.43207" lon="83.69376">
        <ele>2158.78</ele>
        <time>2013-10-29T09:06:39Z</time>
      </trkpt>
      <trkpt lat="28.43211" lon="83.69371">
        <ele>2159.74</ele>
        <time>2013-10-29T09:06:50Z</time>
      </trkpt>
      <trkpt lat="28.43217" lon="83.69366">
        <ele>2160.7</ele>
        <time>2013-10-29T09:07:02Z</time>
      </trkpt>
      <trkpt lat="28.43224" lon="83.69366">
        <ele>2163.1</ele>
        <time>2013-10-29T09:07:18Z</time>
      </trkpt>
      <trkpt lat="28.4323" lon="83.69359">
        <ele>2164.55</ele>
        <time>2013-10-29T09:07:29Z</time>
      </trkpt>
      <trkpt lat="28.43234" lon="83.69357">
        <ele>2166.47</ele>
        <time>2013-10-29T09:07:41Z</time>
      </trkpt>
      <trkpt lat="28.43237" lon="83.69354">
        <ele>2168.87</ele>
        <time>2013-10-29T09:07:58Z</time>
      </trkpt>
      <trkpt lat="28.43242" lon="83.69349">
        <ele>2170.79</ele>
        <time>2013-10-29T09:08:12Z</time>
      </trkpt>
      <trkpt lat="28.43246" lon="83.69347">
        <ele>2172.24</ele>
        <time>2013-10-29T09:08:24Z</time>
      </trkpt>
      <trkpt lat="28.43247" lon="83.69347">
        <ele>2174.64</ele>
        <time>2013-10-29T09:08:37Z</time>
      </trkpt>
      <trkpt lat="28.43259" lon="83.6934">
        <ele>2175.6</ele>
        <time>2013-10-29T09:08:51Z</time>
      </trkpt>
      <trkpt lat="28.43265" lon="83.69334">
        <ele>2177.04</ele>
        <time>2013-10-29T09:09:04Z</time>
      </trkpt>
      <trkpt lat="28.43269" lon="83.69333">
        <ele>2178.48</ele>
        <time>2013-10-29T09:09:16Z</time>
      </trkpt>
      <trkpt lat="28.43274" lon="83.6933">
        <ele>2180.41</ele>
        <time>2013-10-29T09:09:31Z</time>
      </trkpt>
      <trkpt lat="28.43278" lon="83.69327">
        <ele>2182.81</ele>
        <time>2013-10-29T09:09:45Z</time>
      </trkpt>
      <trkpt lat="28.43279" lon="83.69321">
        <ele>2183.29</ele>
        <time>2013-10-29T09:09:58Z</time>
      </trkpt>
      <trkpt lat="28.43278" lon="83.69321">
        <ele>2183.77</ele>
        <time>2013-10-29T09:10:00Z</time>
      </trkpt>
      <trkpt lat="28.43277" lon="83.69317">
        <ele>2185.21</ele>
        <time>2013-10-29T09:10:11Z</time>
      </trkpt>
      <trkpt lat="28.43279" lon="83.69312">
        <ele>2187.62</ele>
        <time>2013-10-29T09:10:22Z</time>
      </trkpt>
      <trkpt lat="28.43286" lon="83.69308">
        <ele>2188.58</ele>
        <time>2013-10-29T09:10:33Z</time>
      </trkpt>
      <trkpt lat="28.43288" lon="83.69303">
        <ele>2190.5</ele>
        <time>2013-10-29T09:10:45Z</time>
      </trkpt>
      <trkpt lat="28.4329" lon="83.69301">
        <ele>2192.9</ele>
        <time>2013-10-29T09:11:01Z</time>
      </trkpt>
      <trkpt lat="28.43296" lon="83.69289">
        <ele>2193.39</ele>
        <time>2013-10-29T09:11:14Z</time>
      </trkpt>
      <trkpt lat="28.43301" lon="83.69277">
        <ele>2191.94</ele>
        <time>2013-10-29T09:11:28Z</time>
      </trkpt>
      <trkpt lat="28.43301" lon="83.69276">
        <ele>2192.42</ele>
        <time>2013-10-29T09:11:30Z</time>
      </trkpt>
      <trkpt lat="28.43302" lon="83.69263">
        <ele>2191.46</ele>
        <time>2013-10-29T09:11:44Z</time>
      </trkpt>
      <trkpt lat="28.43299" lon="83.69255">
        <ele>2190.02</ele>
        <time>2013-10-29T09:12:00Z</time>
      </trkpt>
      <trkpt lat="28.43298" lon="83.69242">
        <ele>2190.02</ele>
        <time>2013-10-29T09:12:17Z</time>
      </trkpt>
      <trkpt lat="28.43301" lon="83.69234">
        <ele>2188.58</ele>
        <time>2013-10-29T09:12:31Z</time>
      </trkpt>
      <trkpt lat="28.43303" lon="83.69227">
        <ele>2188.58</ele>
        <time>2013-10-29T09:12:47Z</time>
      </trkpt>
      <trkpt lat="28.43307" lon="83.69218">
        <ele>2188.58</ele>
        <time>2013-10-29T09:13:02Z</time>
      </trkpt>
      <trkpt lat="28.43312" lon="83.69213">
        <ele>2189.06</ele>
        <time>2013-10-29T09:13:16Z</time>
      </trkpt>
      <trkpt lat="28.43315" lon="83.6921">
        <ele>2189.06</ele>
        <time>2013-10-29T09:13:31Z</time>
      </trkpt>
      <trkpt lat="28.43317" lon="83.69208">
        <ele>2189.06</ele>
        <time>2013-10-29T09:13:45Z</time>
      </trkpt>
      <trkpt lat="28.4332" lon="83.69204">
        <ele>2189.06</ele>
        <time>2013-10-29T09:14:01Z</time>
      </trkpt>
      <trkpt lat="28.43322" lon="83.69203">
        <ele>2189.54</ele>
        <time>2013-10-29T09:14:15Z</time>
      </trkpt>
      <trkpt lat="28.43326" lon="83.69198">
        <ele>2190.02</ele>
        <time>2013-10-29T09:14:28Z</time>
      </trkpt>
      <trkpt lat="28.43329" lon="83.69195">
        <ele>2189.54</ele>
        <time>2013-10-29T09:14:32Z</time>
      </trkpt>
      <trkpt lat="28.43334" lon="83.69186">
        <ele>2190.02</ele>
        <time>2013-10-29T09:14:43Z</time>
      </trkpt>
      <trkpt lat="28.43342" lon="83.69181">
        <ele>2189.54</ele>
        <time>2013-10-29T09:14:54Z</time>
      </trkpt>
      <trkpt lat="28.43343" lon="83.6918">
        <ele>2189.54</ele>
        <time>2013-10-29T09:14:55Z</time>
      </trkpt>
      <trkpt lat="28.43352" lon="83.69176">
        <ele>2190.02</ele>
        <time>2013-10-29T09:15:07Z</time>
      </trkpt>
      <trkpt lat="28.43356" lon="83.69174">
        <ele>2189.54</ele>
        <time>2013-10-29T09:15:10Z</time>
      </trkpt>
      <trkpt lat="28.43363" lon="83.69169">
        <ele>2190.5</ele>
        <time>2013-10-29T09:15:22Z</time>
      </trkpt>
      <trkpt lat="28.43363" lon="83.69166">
        <ele>2190.98</ele>
        <time>2013-10-29T09:15:25Z</time>
      </trkpt>
      <trkpt lat="28.43365" lon="83.69162">
        <ele>2190.5</ele>
        <time>2013-10-29T09:15:30Z</time>
      </trkpt>
      <trkpt lat="28.43365" lon="83.69155">
        <ele>2191.46</ele>
        <time>2013-10-29T09:15:43Z</time>
      </trkpt>
      <trkpt lat="28.4337" lon="83.69144">
        <ele>2190.02</ele>
        <time>2013-10-29T09:15:54Z</time>
      </trkpt>
      <trkpt lat="28.43377" lon="83.69133">
        <ele>2189.54</ele>
        <time>2013-10-29T09:16:06Z</time>
      </trkpt>
      <trkpt lat="28.43379" lon="83.69132">
        <ele>2190.02</ele>
        <time>2013-10-29T09:16:08Z</time>
      </trkpt>
      <trkpt lat="28.43383" lon="83.69122">
        <ele>2190.5</ele>
        <time>2013-10-29T09:16:16Z</time>
      </trkpt>
      <trkpt lat="28.43391" lon="83.69113">
        <ele>2191.94</ele>
        <time>2013-10-29T09:16:29Z</time>
      </trkpt>
      <trkpt lat="28.43394" lon="83.69112">
        <ele>2192.42</ele>
        <time>2013-10-29T09:16:33Z</time>
      </trkpt>
      <trkpt lat="28.43399" lon="83.69109">
        <ele>2192.9</ele>
        <time>2013-10-29T09:16:39Z</time>
      </trkpt>
      <trkpt lat="28.43401" lon="83.69109">
        <ele>2192.9</ele>
        <time>2013-10-29T09:16:41Z</time>
      </trkpt>
      <trkpt lat="28.43414" lon="83.69109">
        <ele>2194.35</ele>
        <time>2013-10-29T09:16:55Z</time>
      </trkpt>
      <trkpt lat="28.43417" lon="83.69107">
        <ele>2194.83</ele>
        <time>2013-10-29T09:16:58Z</time>
      </trkpt>
      <trkpt lat="28.43425" lon="83.69104">
        <ele>2196.27</ele>
        <time>2013-10-29T09:17:13Z</time>
      </trkpt>
      <trkpt lat="28.43428" lon="83.69101">
        <ele>2197.71</ele>
        <time>2013-10-29T09:17:29Z</time>
      </trkpt>
      <trkpt lat="28.43429" lon="83.69102">
        <ele>2198.19</ele>
        <time>2013-10-29T09:17:49Z</time>
      </trkpt>
      <trkpt lat="28.43431" lon="83.69102">
        <ele>2198.67</ele>
        <time>2013-10-29T09:18:07Z</time>
      </trkpt>
      <trkpt lat="28.43434" lon="83.69099">
        <ele>2200.59</ele>
        <time>2013-10-29T09:18:22Z</time>
      </trkpt>
      <trkpt lat="28.43441" lon="83.69098">
        <ele>2202.52</ele>
        <time>2013-10-29T09:18:34Z</time>
      </trkpt>
      <trkpt lat="28.43451" lon="83.69101">
        <ele>2203</ele>
        <time>2013-10-29T09:18:48Z</time>
      </trkpt>
      <trkpt lat="28.43454" lon="83.69102">
        <ele>2203.96</ele>
        <time>2013-10-29T09:19:09Z</time>
      </trkpt>
      <trkpt lat="28.43453" lon="83.69105">
        <ele>2203.96</ele>
        <time>2013-10-29T09:19:38Z</time>
      </trkpt>
      <trkpt lat="28.43454" lon="83.69106">
        <ele>2203.96</ele>
        <time>2013-10-29T09:20:08Z</time>
      </trkpt>
      <trkpt lat="28.43454" lon="83.69107">
        <ele>2203.96</ele>
        <time>2013-10-29T09:20:23Z</time>
      </trkpt>
      <trkpt lat="28.43461" lon="83.69114">
        <ele>2206.84</ele>
        <time>2013-10-29T09:20:38Z</time>
      </trkpt>
      <trkpt lat="28.43466" lon="83.69119">
        <ele>2210.69</ele>
        <time>2013-10-29T09:20:54Z</time>
      </trkpt>
      <trkpt lat="28.43466" lon="83.69115">
        <ele>2212.61</ele>
        <time>2013-10-29T09:21:11Z</time>
      </trkpt>
      <trkpt lat="28.43469" lon="83.69114">
        <ele>2215.01</ele>
        <time>2013-10-29T09:21:21Z</time>
      </trkpt>
      <trkpt lat="28.43478" lon="83.69117">
        <ele>2215.5</ele>
        <time>2013-10-29T09:21:34Z</time>
      </trkpt>
      <trkpt lat="28.43486" lon="83.69122">
        <ele>2215.98</ele>
        <time>2013-10-29T09:21:46Z</time>
      </trkpt>
      <trkpt lat="28.43489" lon="83.69118">
        <ele>2218.38</ele>
        <time>2013-10-29T09:21:56Z</time>
      </trkpt>
      <trkpt lat="28.43498" lon="83.69116">
        <ele>2219.82</ele>
        <time>2013-10-29T09:22:10Z</time>
      </trkpt>
      <trkpt lat="28.43498" lon="83.69111">
        <ele>2222.22</ele>
        <time>2013-10-29T09:22:20Z</time>
      </trkpt>
      <trkpt lat="28.43493" lon="83.69099">
        <ele>2223.19</ele>
        <time>2013-10-29T09:22:32Z</time>
      </trkpt>
      <trkpt lat="28.43493" lon="83.69094">
        <ele>2223.67</ele>
        <time>2013-10-29T09:22:36Z</time>
      </trkpt>
      <trkpt lat="28.43493" lon="83.69092">
        <ele>2223.67</ele>
        <time>2013-10-29T09:22:48Z</time>
      </trkpt>
      <trkpt lat="28.43493" lon="83.69091">
        <ele>2223.67</ele>
        <time>2013-10-29T09:23:06Z</time>
      </trkpt>
      <trkpt lat="28.43492" lon="83.69091">
        <ele>2223.67</ele>
        <time>2013-10-29T09:23:21Z</time>
      </trkpt>
      <trkpt lat="28.4349" lon="83.69092">
        <ele>2224.15</ele>
        <time>2013-10-29T09:23:37Z</time>
      </trkpt>
      <trkpt lat="28.4349" lon="83.69092">
        <ele>2224.15</ele>
        <time>2013-10-29T09:23:40Z</time>
      </trkpt>
      <trkpt lat="28.43489" lon="83.69089">
        <ele>2224.15</ele>
        <time>2013-10-29T09:23:52Z</time>
      </trkpt>
      <trkpt lat="28.43488" lon="83.69088">
        <ele>2225.11</ele>
        <time>2013-10-29T09:24:10Z</time>
      </trkpt>
      <trkpt lat="28.43486" lon="83.69087">
        <ele>2225.11</ele>
        <time>2013-10-29T09:24:39Z</time>
      </trkpt>
      <trkpt lat="28.43487" lon="83.69087">
        <ele>2224.63</ele>
        <time>2013-10-29T09:25:02Z</time>
      </trkpt>
      <trkpt lat="28.43488" lon="83.69086">
        <ele>2225.59</ele>
        <time>2013-10-29T09:25:20Z</time>
      </trkpt>
      <trkpt lat="28.4348" lon="83.69076">
        <ele>2225.59</ele>
        <time>2013-10-29T09:25:43Z</time>
      </trkpt>
      <trkpt lat="28.43479" lon="83.69074">
        <ele>2227.03</ele>
        <time>2013-10-29T09:25:46Z</time>
      </trkpt>
      <trkpt lat="28.43477" lon="83.69072">
        <ele>2227.99</ele>
        <time>2013-10-29T09:25:50Z</time>
      </trkpt>
      <trkpt lat="28.4349" lon="83.69071">
        <ele>2227.99</ele>
        <time>2013-10-29T09:26:35Z</time>
      </trkpt>
      <trkpt lat="28.43491" lon="83.6908">
        <ele>2227.99</ele>
        <time>2013-10-29T09:26:58Z</time>
      </trkpt>
      <trkpt lat="28.43493" lon="83.69079">
        <ele>2227.99</ele>
        <time>2013-10-29T09:27:23Z</time>
      </trkpt>
      <trkpt lat="28.43491" lon="83.69078">
        <ele>2228.47</ele>
        <time>2013-10-29T09:27:51Z</time>
      </trkpt>
      <trkpt lat="28.43489" lon="83.6908">
        <ele>2228.47</ele>
        <time>2013-10-29T09:27:55Z</time>
      </trkpt>
      <trkpt lat="28.4346" lon="83.69111">
        <ele>2228.47</ele>
        <time>2013-10-29T09:28:08Z</time>
      </trkpt>
      <trkpt lat="28.43456" lon="83.69118">
        <ele>2228.47</ele>
        <time>2013-10-29T09:28:20Z</time>
      </trkpt>
      <trkpt lat="28.43457" lon="83.69118">
        <ele>2228.95</ele>
        <time>2013-10-29T09:28:27Z</time>
      </trkpt>
      <trkpt lat="28.43455" lon="83.69122">
        <ele>2228.47</ele>
        <time>2013-10-29T09:28:34Z</time>
      </trkpt>
      <trkpt lat="28.43446" lon="83.69128">
        <ele>2228.47</ele>
        <time>2013-10-29T09:28:52Z</time>
      </trkpt>
      <trkpt lat="28.43493" lon="83.69072">
        <ele>2227.99</ele>
        <time>2013-10-29T09:32:17Z</time>
      </trkpt>
      <trkpt lat="28.43495" lon="83.69074">
        <ele>2227.51</ele>
        <time>2013-10-29T09:32:40Z</time>
      </trkpt>
      <trkpt lat="28.43499" lon="83.69074">
        <ele>2227.51</ele>
        <time>2013-10-29T09:32:56Z</time>
      </trkpt>
      <trkpt lat="28.43499" lon="83.69057">
        <ele>2227.03</ele>
        <time>2013-10-29T09:33:31Z</time>
      </trkpt>
      <trkpt lat="28.43495" lon="83.69059">
        <ele>2227.03</ele>
        <time>2013-10-29T09:33:50Z</time>
      </trkpt>
      <trkpt lat="28.43491" lon="83.69084">
        <ele>2227.03</ele>
        <time>2013-10-29T09:36:25Z</time>
      </trkpt>
      <trkpt lat="28.43487" lon="83.69081">
        <ele>2227.03</ele>
        <time>2013-10-29T09:36:54Z</time>
      </trkpt>
      <trkpt lat="28.43487" lon="83.69083">
        <ele>2227.51</ele>
        <time>2013-10-29T09:37:23Z</time>
      </trkpt>
      <trkpt lat="28.43488" lon="83.6908">
        <ele>2227.99</ele>
        <time>2013-10-29T09:37:46Z</time>
      </trkpt>
      <trkpt lat="28.43483" lon="83.69078">
        <ele>2227.99</ele>
        <time>2013-10-29T09:38:09Z</time>
      </trkpt>
    </trkseg>
  </trk>
</gpx>